GFSWCAN_prec_precacc24_156.txt.gz
Total_Precipitation_Accumulation
0.40 0.78 0.85 0.43 0.27 0.31 0.33 0.26 0.36 0.57 0.55 0.55 0.66 0.90 0.83 0.72 0.65 0.80 0.78 0.29 0.26 0.45 0.22 0.06 0.03 0.05 0.09 0.07 0.06 0.07 0.12 0.20 0.45 0.48 0.28 0.20 0.05 0.01 0.01 0.00 0.00 0.02 0.05 0.07 0.07 0.09 0.03 0.00 0.00 0.00 0.00 0.00 0.00 0.00
0.29 0.70 0.78 0.46 0.33 0.28 0.22 0.31 0.37 0.38 0.34 0.37 0.54 0.67 0.83 0.67 0.62 0.78 1.12 0.49 0.18 0.32 0.28 0.13 0.09 0.06 0.03 0.04 0.08 0.05 0.04 0.03 0.09 0.19 0.10 0.08 0.12 0.10 0.04 0.02 0.00 0.00 0.01 0.00 0.01 0.01 0.00 0.00 0.00 0.00 0.00 0.00 0.00 0.00
0.30 0.65 0.75 0.53 0.33 0.20 0.25 0.26 0.27 0.25 0.20 0.22 0.45 0.60 0.68 0.54 0.49 0.69 0.93 0.49 0.32 0.54 0.51 0.24 0.14 0.06 0.03 0.04 0.05 0.18 0.12 0.04 0.07 0.08 0.10 0.11 0.10 0.06 0.09 0.07 0.01 0.00 0.00 0.02 0.01 0.01 0.00 0.00 0.00 0.00 0.00 0.00 0.00 0.00
0.35 0.65 0.71 0.56 0.35 0.25 0.18 0.15 0.22 0.30 0.29 0.29 0.36 0.43 0.47 0.43 0.39 0.61 1.02 0.48 0.41 0.53 0.61 0.40 0.10 0.06 0.03 0.02 0.04 0.05 0.05 0.10 0.11 0.12 0.16 0.08 0.09 0.07 0.06 0.04 0.02 0.01 0.01 0.02 0.06 0.10 0.02 0.00 0.00 0.00 0.01 0.01 0.00 0.00
0.37 0.63 0.68 0.51 0.37 0.27 0.17 0.19 0.32 0.41 0.49 0.53 0.50 0.52 0.40 0.34 0.43 0.71 0.97 0.41 0.26 0.22 0.36 0.50 0.18 0.09 0.04 0.07 0.07 0.05 0.05 0.09 0.09 0.15 0.23 0.17 0.09 0.06 0.03 0.06 0.05 0.00 0.01 0.03 0.12 0.03 0.01 0.01 0.00 0.05 0.06 0.03 0.00 0.00
0.42 0.59 0.61 0.47 0.39 0.31 0.21 0.26 0.34 0.47 0.55 0.63 0.68 0.76 0.48 0.34 0.42 1.23 1.81 0.88 0.31 0.13 0.14 0.42 0.48 0.23 0.12 0.12 0.23 0.16 0.12 0.09 0.10 0.13 0.14 0.08 0.04 0.07 0.10 0.15 0.08 0.00 0.00 0.00 0.02 0.01 0.01 0.02 0.05 0.03 0.02 0.00 0.00 0.00
0.46 0.63 0.53 0.40 0.33 0.30 0.31 0.35 0.39 0.48 0.58 0.48 0.42 0.41 0.39 0.42 0.62 0.86 0.60 0.57 0.30 0.31 0.31 0.29 0.60 0.57 0.37 0.32 0.32 0.41 0.38 0.23 0.11 0.09 0.04 0.03 0.08 0.11 0.11 0.07 0.04 0.00 0.00 0.00 0.00 0.01 0.03 0.03 0.04 0.00 0.00 0.00 0.00 0.00
0.42 0.47 0.41 0.35 0.28 0.20 0.29 0.39 0.44 0.49 0.53 0.51 0.42 0.40 0.31 0.31 0.35 0.22 0.04 0.04 0.08 0.34 0.35 0.20 0.58 0.71 0.50 0.38 0.42 0.31 0.36 0.26 0.22 0.14 0.07 0.05 0.08 0.11 0.11 0.02 0.00 0.00 0.00 0.00 0.00 0.01 0.00 0.01 0.01 0.00 0.00 0.00 0.00 0.00
0.44 0.37 0.34 0.23 0.12 0.14 0.21 0.39 0.42 0.44 0.40 0.36 0.29 0.29 0.45 0.54 0.51 0.34 0.10 0.04 0.05 0.35 0.26 0.12 0.16 0.44 0.30 0.19 0.23 0.18 0.11 0.18 0.21 0.22 0.11 0.07 0.11 0.06 0.01 0.00 0.00 0.00 0.00 0.00 0.00 0.01 0.01 0.00 0.00 0.00 0.00 0.00 0.00 0.00
0.43 0.30 0.23 0.10 0.08 0.12 0.10 0.27 0.27 0.29 0.27 0.14 0.09 0.18 0.46 0.35 0.21 0.23 0.26 0.30 0.35 0.34 0.12 0.05 0.02 0.22 0.17 0.12 0.10 0.11 0.10 0.07 0.11 0.11 0.06 0.06 0.03 0.00 0.00 0.00 0.00 0.00 0.00 0.00 0.00 0.02 0.01 0.00 0.00 0.00 0.00 0.00 0.00 0.00
0.24 0.19 0.10 0.06 0.07 0.10 0.11 0.24 0.23 0.11 0.06 0.02 0.02 0.22 0.37 0.16 0.07 0.11 0.23 0.22 0.23 0.27 0.25 0.14 0.02 0.04 0.03 0.01 0.02 0.01 0.03 0.04 0.05 0.04 0.03 0.03 0.04 0.01 0.00 0.00 0.00 0.00 0.00 0.00 0.00 0.00 0.00 0.00 0.00 0.00 0.00 0.00 0.00 0.00
0.21 0.09 0.05 0.06 0.08 0.14 0.16 0.21 0.17 0.02 0.01 0.01 0.01 0.07 0.07 0.02 0.01 0.02 0.08 0.08 0.05 0.17 0.20 0.16 0.10 0.03 0.05 0.02 0.03 0.02 0.01 0.02 0.02 0.01 0.02 0.03 0.03 0.01 0.01 0.00 0.00 0.00 0.00 0.00 0.00 0.00 0.00 0.00 0.00 0.00 0.00 0.00 0.00 0.00
0.15 0.05 0.04 0.06 0.07 0.16 0.17 0.16 0.11 0.03 0.00 0.00 0.00 0.00 0.00 0.00 0.00 0.00 0.01 0.02 0.03 0.02 0.06 0.02 0.04 0.02 0.03 0.01 0.02 0.02 0.02 0.02 0.01 0.02 0.02 0.02 0.00 0.00 0.00 0.00 0.00 0.00 0.00 0.00 0.00 0.00 0.00 0.00 0.00 0.00 0.00 0.00 0.00 0.00
0.08 0.05 0.04 0.05 0.13 0.23 0.28 0.22 0.20 0.11 0.01 0.00 0.00 0.00 0.00 0.01 0.04 0.02 0.00 0.00 0.00 0.00 0.00 0.00 0.00 0.00 0.00 0.00 0.00 0.01 0.01 0.01 0.02 0.01 0.01 0.01 0.00 0.00 0.00 0.00 0.00 0.00 0.00 0.00 0.00 0.00 0.00 0.00 0.00 0.00 0.00 0.00 0.00 0.00
0.08 0.08 0.10 0.12 0.16 0.26 0.32 0.32 0.20 0.11 0.03 0.00 0.00 0.02 0.07 0.07 0.04 0.01 0.00 0.00 0.00 0.00 0.00 0.00 0.00 0.00 0.00 0.00 0.01 0.02 0.01 0.01 0.00 0.02 0.01 0.00 0.00 0.00 0.00 0.00 0.00 0.00 0.00 0.00 0.00 0.00 0.00 0.00 0.00 0.00 0.00 0.00 0.00 0.00
0.06 0.12 0.14 0.13 0.21 0.33 0.41 0.32 0.16 0.11 0.03 0.00 0.08 0.18 0.16 0.09 0.09 0.03 0.02 0.01 0.01 0.00 0.00 0.00 0.00 0.00 0.00 0.00 0.00 0.00 0.00 0.01 0.03 0.01 0.00 0.00 0.00 0.00 0.00 0.00 0.00 0.00 0.00 0.00 0.00 0.00 0.00 0.00 0.00 0.00 0.00 0.00 0.00 0.00
0.01 0.08 0.17 0.07 0.09 0.30 0.44 0.22 0.07 0.10 0.06 0.09 0.23 0.19 0.14 0.12 0.10 0.04 0.02 0.01 0.00 0.00 0.00 0.00 0.00 0.00 0.00 0.00 0.00 0.01 0.02 0.03 0.01 0.01 0.00 0.00 0.00 0.00 0.00 0.00 0.00 0.00 0.00 0.00 0.00 0.00 0.00 0.00 0.00 0.00 0.00 0.00 0.00 0.00
0.01 0.04 0.04 0.03 0.09 0.39 0.36 0.05 0.00 0.03 0.10 0.20 0.21 0.11 0.01 0.02 0.01 0.00 0.01 0.00 0.00 0.00 0.00 0.00 0.02 0.02 0.01 0.01 0.02 0.02 0.02 0.02 0.01 0.01 0.00 0.00 0.00 0.00 0.00 0.00 0.00 0.00 0.00 0.00 0.00 0.00 0.00 0.00 0.00 0.01 0.01 0.01 0.01 0.01
0.00 0.01 0.01 0.02 0.09 0.21 0.11 0.00 0.00 0.06 0.17 0.09 0.05 0.02 0.01 0.01 0.01 0.01 0.00 0.00 0.00 0.00 0.00 0.00 0.00 0.03 0.06 0.06 0.04 0.01 0.01 0.01 0.02 0.04 0.02 0.00 0.00 0.00 0.00 0.00 0.00 0.00 0.00 0.00 0.00 0.00 0.00 0.00 0.00 0.00 0.00 0.00 0.01 0.01
0.01 0.02 0.03 0.04 0.06 0.03 0.00 0.00 0.00 0.01 0.02 0.01 0.01 0.01 0.01 0.01 0.01 0.01 0.01 0.01 0.01 0.00 0.01 0.02 0.03 0.04 0.04 0.01 0.00 0.00 0.00 0.00 0.01 0.03 0.06 0.04 0.01 0.00 0.00 0.00 0.00 0.00 0.00 0.00 0.00 0.00 0.00 0.01 0.01 0.00 0.00 0.00 0.01 0.01
0.11 0.17 0.09 0.02 0.00 0.00 0.00 0.00 0.00 0.00 0.00 0.01 0.01 0.00 0.01 0.01 0.01 0.01 0.01 0.01 0.01 0.02 0.02 0.03 0.03 0.03 0.02 0.00 0.00 0.00 0.00 0.00 0.00 0.00 0.01 0.03 0.01 0.00 0.00 0.00 0.00 0.00 0.00 0.00 0.00 0.00 0.00 0.00 0.00 0.00 0.00 0.01 0.01 0.01
0.05 0.03 0.02 0.00 0.00 0.00 0.00 0.00 0.00 0.00 0.01 0.01 0.00 0.00 0.01 0.01 0.01 0.01 0.00 0.01 0.02 0.04 0.03 0.02 0.02 0.02 0.01 0.00 0.00 0.00 0.00 0.00 0.00 0.00 0.00 0.00 0.01 0.01 0.01 0.01 0.00 0.00 0.00 0.00 0.00 0.00 0.00 0.00 0.00 0.00 0.01 0.01 0.01 0.01
0.01 0.00 0.00 0.00 0.00 0.00 0.00 0.00 0.00 0.00 0.00 0.01 0.00 0.00 0.00 0.01 0.01 0.00 0.01 0.01 0.04 0.06 0.03 0.01 0.00 0.01 0.01 0.01 0.00 0.00 0.00 0.00 0.00 0.00 0.00 0.00 0.00 0.00 0.00 0.00 0.00 0.00 0.00 0.00 0.00 0.00 0.00 0.00 0.00 0.01 0.01 0.01 0.01 0.02
0.00 0.00 0.00 0.00 0.00 0.01 0.00 0.00 0.00 0.00 0.00 0.01 0.00 0.01 0.01 0.00 0.00 0.00 0.01 0.03 0.05 0.03 0.01 0.01 0.00 0.01 0.01 0.01 0.00 0.00 0.00 0.00 0.00 0.00 0.00 0.00 0.00 0.01 0.00 0.00 0.00 0.00 0.00 0.00 0.00 0.00 0.00 0.00 0.00 0.01 0.01 0.01 0.02 0.02
0.00 0.00 0.00 0.00 0.00 0.01 0.01 0.01 0.01 0.00 0.00 0.00 0.00 0.00 0.00 0.00 0.00 0.00 0.02 0.06 0.05 0.03 0.01 0.01 0.01 0.00 0.01 0.00 0.01 0.01 0.01 0.00 0.00 0.00 0.00 0.00 0.00 0.01 0.01 0.01 0.00 0.00 0.00 0.00 0.00 0.01 0.00 0.00 0.00 0.01 0.01 0.00 0.01 0.01
0.00 0.00 0.01 0.02 0.04 0.04 0.02 0.01 0.01 0.00 0.00 0.00 0.01 0.00 0.00 0.00 0.00 0.02 0.05 0.09 0.05 0.03 0.02 0.02 0.01 0.01 0.01 0.02 0.01 0.00 0.01 0.00 0.00 0.00 0.00 0.00 0.00 0.00 0.01 0.01 0.01 0.01 0.00 0.00 0.00 0.00 0.00 0.01 0.01 0.01 0.01 0.01 0.00 0.00
0.01 0.01 0.02 0.06 0.07 0.04 0.03 0.02 0.02 0.02 0.01 0.01 0.01 0.01 0.01 0.01 0.03 0.06 0.06 0.06 0.05 0.03 0.02 0.02 0.02 0.03 0.03 0.03 0.04 0.03 0.02 0.02 0.01 0.00 0.00 0.00 0.00 0.00 0.00 0.00 0.00 0.00 0.00 0.00 0.00 0.00 0.00 0.00 0.00 0.01 0.01 0.01 0.01 0.01
0.01 0.03 0.10 0.09 0.08 0.06 0.06 0.05 0.06 0.06 0.03 0.00 0.01 0.02 0.03 0.04 0.07 0.07 0.06 0.05 0.04 0.04 0.02 0.02 0.02 0.04 0.06 0.04 0.05 0.05 0.05 0.05 0.06 0.04 0.04 0.04 0.02 0.00 0.00 0.00 0.00 0.00 0.00 0.00 0.00 0.00 0.01 0.00 0.00 0.00 0.00 0.01 0.01 0.01
0.02 0.07 0.12 0.14 0.12 0.09 0.07 0.07 0.06 0.03 0.02 0.04 0.08 0.06 0.04 0.05 0.09 0.08 0.07 0.11 0.14 0.11 0.09 0.06 0.03 0.02 0.02 0.02 0.03 0.04 0.06 0.08 0.07 0.08 0.06 0.06 0.05 0.05 0.03 0.01 0.00 0.00 0.00 0.00 0.00 0.00 0.01 0.00 0.00 0.00 0.01 0.01 0.01 0.01
0.02 0.05 0.14 0.13 0.14 0.11 0.07 0.06 0.06 0.07 0.06 0.04 0.03 0.04 0.05 0.11 0.16 0.13 0.11 0.11 0.10 0.09 0.10 0.08 0.06 0.06 0.05 0.05 0.04 0.04 0.07 0.10 0.12 0.10 0.08 0.06 0.05 0.07 0.07 0.06 0.04 0.02 0.02 0.02 0.03 0.05 0.05 0.04 0.03 0.03 0.03 0.02 0.02 0.01
0.01 0.03 0.04 0.05 0.07 0.10 0.11 0.12 0.10 0.07 0.06 0.04 0.03 0.02 0.03 0.06 0.10 0.07 0.05 0.08 0.08 0.07 0.06 0.06 0.07 0.06 0.06 0.08 0.09 0.07 0.08 0.06 0.05 0.07 0.10 0.12 0.09 0.06 0.07 0.08 0.08 0.09 0.10 0.08 0.07 0.04 0.03 0.03 0.03 0.02 0.01 0.01 0.01 0.01
0.01 0.02 0.02 0.02 0.04 0.06 0.07 0.08 0.06 0.04 0.06 0.04 0.05 0.03 0.04 0.05 0.05 0.06 0.04 0.03 0.03 0.04 0.04 0.05 0.06 0.06 0.06 0.09 0.14 0.13 0.10 0.06 0.05 0.06 0.06 0.06 0.10 0.11 0.09 0.07 0.07 0.09 0.10 0.10 0.09 0.08 0.06 0.05 0.04 0.03 0.02 0.02 0.02 0.02
0.02 0.03 0.02 0.02 0.03 0.04 0.04 0.05 0.04 0.04 0.04 0.04 0.05 0.05 0.04 0.04 0.04 0.06 0.02 0.03 0.07 0.05 0.05 0.07 0.06 0.06 0.07 0.10 0.12 0.08 0.05 0.04 0.04 0.07 0.07 0.07 0.09 0.11 0.10 0.08 0.06 0.07 0.07 0.06 0.06 0.05 0.06 0.06 0.06 0.05 0.05 0.05 0.03 0.03

GFSWCAN_prec_precacc24_159.txt.gz
Total_Precipitation_Accumulation
0.29 0.56 0.62 0.32 0.25 0.29 0.28 0.20 0.31 0.54 0.55 0.55 0.66 0.89 0.83 0.74 0.66 0.83 0.80 0.30 0.29 0.51 0.23 0.06 0.03 0.05 0.09 0.07 0.06 0.07 0.13 0.21 0.47 0.52 0.34 0.28 0.09 0.01 0.01 0.00 0.01 0.05 0.09 0.08 0.09 0.12 0.03 0.00 0.00 0.00 0.00 0.00 0.00 0.00
0.22 0.53 0.61 0.34 0.30 0.26 0.19 0.29 0.35 0.36 0.34 0.37 0.56 0.68 0.84 0.69 0.64 0.84 1.14 0.50 0.19 0.43 0.36 0.13 0.09 0.06 0.03 0.04 0.08 0.05 0.04 0.03 0.09 0.24 0.19 0.11 0.14 0.13 0.06 0.03 0.02 0.03 0.03 0.02 0.04 0.02 0.00 0.00 0.01 0.00 0.00 0.00 0.00 0.00
0.25 0.54 0.59 0.41 0.27 0.17 0.23 0.25 0.27 0.24 0.20 0.23 0.46 0.62 0.71 0.56 0.53 0.75 0.95 0.51 0.36 0.64 0.62 0.25 0.14 0.06 0.03 0.04 0.05 0.18 0.12 0.04 0.08 0.11 0.22 0.26 0.18 0.06 0.09 0.07 0.02 0.01 0.02 0.02 0.02 0.01 0.00 0.01 0.00 0.00 0.00 0.00 0.00 0.00
0.30 0.56 0.57 0.41 0.26 0.20 0.16 0.15 0.23 0.30 0.30 0.31 0.40 0.49 0.55 0.50 0.51 0.76 1.14 0.53 0.43 0.61 0.67 0.41 0.10 0.06 0.03 0.02 0.04 0.05 0.05 0.13 0.15 0.17 0.26 0.25 0.19 0.08 0.06 0.05 0.02 0.01 0.01 0.02 0.06 0.10 0.02 0.01 0.00 0.00 0.01 0.01 0.00 0.00
0.36 0.58 0.59 0.38 0.24 0.17 0.13 0.19 0.34 0.44 0.52 0.56 0.55 0.58 0.48 0.46 0.59 0.94 1.11 0.46 0.27 0.26 0.40 0.51 0.18 0.09 0.04 0.07 0.07 0.05 0.05 0.09 0.10 0.18 0.35 0.30 0.16 0.09 0.04 0.07 0.05 0.00 0.01 0.03 0.13 0.03 0.01 0.01 0.00 0.05 0.06 0.03 0.00 0.00
0.42 0.57 0.56 0.37 0.24 0.18 0.18 0.31 0.41 0.53 0.60 0.68 0.75 0.82 0.54 0.42 0.60 1.75 2.39 1.15 0.33 0.14 0.17 0.53 0.52 0.24 0.12 0.12 0.23 0.16 0.12 0.09 0.10 0.14 0.17 0.19 0.14 0.13 0.12 0.15 0.08 0.00 0.00 0.00 0.02 0.01 0.01 0.02 0.05 0.03 0.02 0.01 0.00 0.00
0.46 0.63 0.52 0.35 0.25 0.24 0.33 0.39 0.43 0.57 0.64 0.53 0.48 0.53 0.50 0.55 0.85 1.11 0.73 0.67 0.33 0.34 0.43 0.37 0.63 0.59 0.37 0.32 0.33 0.41 0.38 0.23 0.12 0.11 0.05 0.04 0.11 0.21 0.18 0.07 0.04 0.00 0.00 0.00 0.00 0.01 0.03 0.03 0.05 0.03 0.01 0.00 0.00 0.00
0.42 0.47 0.42 0.38 0.33 0.24 0.35 0.46 0.45 0.59 0.70 0.62 0.50 0.49 0.44 0.48 0.56 0.31 0.05 0.04 0.09 0.46 0.48 0.30 0.63 0.78 0.52 0.39 0.43 0.34 0.39 0.29 0.26 0.16 0.08 0.05 0.09 0.11 0.11 0.02 0.00 0.00 0.00 0.00 0.00 0.01 0.00 0.03 0.04 0.01 0.00 0.00 0.00 0.00
0.44 0.38 0.38 0.31 0.17 0.15 0.21 0.33 0.39 0.49 0.47 0.49 0.39 0.47 0.78 0.92 0.77 0.43 0.11 0.05 0.06 0.43 0.38 0.23 0.21 0.49 0.31 0.20 0.24 0.22 0.23 0.24 0.24 0.26 0.13 0.07 0.12 0.07 0.01 0.00 0.00 0.00 0.00 0.00 0.00 0.01 0.02 0.02 0.01 0.00 0.00 0.00 0.00 0.00
0.45 0.33 0.28 0.12 0.09 0.11 0.11 0.17 0.14 0.25 0.29 0.28 0.31 0.40 0.77 0.53 0.25 0.35 0.49 0.52 0.58 0.43 0.17 0.19 0.03 0.22 0.17 0.12 0.11 0.11 0.14 0.08 0.12 0.12 0.07 0.09 0.04 0.00 0.00 0.00 0.00 0.00 0.00 0.00 0.01 0.09 0.08 0.03 0.00 0.00 0.00 0.00 0.00 0.00
0.32 0.23 0.10 0.06 0.07 0.11 0.14 0.16 0.09 0.08 0.06 0.07 0.10 0.37 0.54 0.21 0.13 0.20 0.40 0.34 0.34 0.38 0.26 0.15 0.02 0.04 0.03 0.01 0.02 0.02 0.04 0.04 0.05 0.05 0.03 0.03 0.03 0.01 0.00 0.00 0.00 0.00 0.00 0.01 0.01 0.02 0.01 0.00 0.00 0.00 0.00 0.00 0.00 0.00
0.25 0.09 0.05 0.06 0.08 0.15 0.14 0.16 0.09 0.03 0.03 0.00 0.07 0.21 0.21 0.13 0.09 0.08 0.15 0.10 0.05 0.18 0.21 0.16 0.10 0.03 0.06 0.03 0.04 0.03 0.02 0.02 0.02 0.01 0.02 0.03 0.03 0.01 0.02 0.00 0.00 0.00 0.01 0.00 0.02 0.02 0.00 0.00 0.00 0.00 0.00 0.00 0.00 0.00
0.16 0.05 0.04 0.06 0.08 0.15 0.08 0.08 0.08 0.04 0.01 0.00 0.00 0.01 0.02 0.01 0.00 0.01 0.02 0.02 0.03 0.02 0.07 0.04 0.06 0.03 0.06 0.04 0.07 0.06 0.04 0.02 0.01 0.02 0.02 0.02 0.00 0.00 0.01 0.01 0.02 0.03 0.03 0.03 0.03 0.00 0.00 0.00 0.00 0.00 0.00 0.00 0.00 0.00
0.08 0.05 0.04 0.05 0.13 0.21 0.15 0.14 0.07 0.00 0.00 0.01 0.00 0.00 0.00 0.01 0.04 0.02 0.00 0.00 0.00 0.00 0.00 0.00 0.01 0.01 0.02 0.02 0.02 0.03 0.02 0.01 0.04 0.02 0.01 0.01 0.00 0.00 0.00 0.00 0.00 0.01 0.03 0.03 0.00 0.00 0.00 0.00 0.00 0.00 0.00 0.00 0.00 0.00
0.07 0.07 0.09 0.12 0.16 0.21 0.18 0.15 0.03 0.00 0.00 0.00 0.00 0.02 0.08 0.08 0.04 0.01 0.00 0.00 0.00 0.00 0.00 0.00 0.02 0.00 0.00 0.01 0.01 0.01 0.01 0.01 0.01 0.02 0.01 0.00 0.00 0.00 0.00 0.00 0.00 0.00 0.00 0.00 0.00 0.00 0.00 0.00 0.00 0.00 0.00 0.00 0.00 0.00
0.05 0.10 0.13 0.12 0.19 0.27 0.11 0.03 0.02 0.02 0.00 0.00 0.08 0.19 0.18 0.10 0.11 0.04 0.02 0.01 0.01 0.00 0.00 0.00 0.01 0.01 0.01 0.00 0.00 0.00 0.00 0.01 0.03 0.01 0.00 0.00 0.00 0.00 0.00 0.00 0.00 0.00 0.00 0.00 0.00 0.00 0.00 0.00 0.00 0.00 0.00 0.00 0.00 0.00
0.01 0.08 0.15 0.06 0.08 0.16 0.08 0.02 0.01 0.05 0.02 0.09 0.23 0.20 0.14 0.13 0.13 0.07 0.03 0.01 0.00 0.00 0.00 0.00 0.00 0.00 0.00 0.00 0.00 0.01 0.03 0.03 0.01 0.01 0.00 0.00 0.00 0.00 0.00 0.00 0.00 0.00 0.00 0.00 0.00 0.00 0.00 0.00 0.00 0.00 0.00 0.00 0.00 0.00
0.01 0.03 0.02 0.02 0.04 0.12 0.10 0.00 0.00 0.02 0.10 0.21 0.24 0.13 0.03 0.04 0.04 0.05 0.03 0.01 0.00 0.00 0.00 0.00 0.00 0.00 0.01 0.01 0.03 0.03 0.02 0.02 0.02 0.02 0.01 0.00 0.00 0.00 0.00 0.00 0.00 0.00 0.00 0.00 0.00 0.00 0.00 0.00 0.00 0.01 0.00 0.00 0.00 0.01
0.00 0.01 0.00 0.00 0.03 0.09 0.05 0.00 0.00 0.07 0.21 0.14 0.09 0.03 0.01 0.02 0.02 0.02 0.02 0.00 0.00 0.00 0.00 0.00 0.00 0.02 0.07 0.07 0.05 0.01 0.02 0.01 0.02 0.04 0.03 0.01 0.00 0.00 0.00 0.00 0.00 0.00 0.00 0.00 0.00 0.00 0.00 0.00 0.00 0.00 0.00 0.00 0.01 0.01
0.01 0.02 0.02 0.01 0.03 0.02 0.00 0.00 0.00 0.03 0.04 0.03 0.02 0.01 0.01 0.01 0.00 0.00 0.01 0.00 0.00 0.00 0.01 0.01 0.04 0.06 0.06 0.03 0.02 0.01 0.00 0.00 0.01 0.03 0.07 0.05 0.01 0.00 0.00 0.00 0.00 0.00 0.00 0.00 0.00 0.00 0.00 0.01 0.01 0.00 0.00 0.00 0.01 0.01
0.10 0.14 0.03 0.01 0.00 0.00 0.00 0.00 0.00 0.00 0.00 0.01 0.01 0.00 0.01 0.00 0.00 0.00 0.00 0.00 0.01 0.02 0.03 0.05 0.06 0.06 0.04 0.02 0.01 0.00 0.00 0.00 0.00 0.00 0.01 0.04 0.02 0.00 0.00 0.00 0.00 0.00 0.00 0.00 0.00 0.00 0.00 0.00 0.00 0.00 0.00 0.01 0.01 0.01
0.04 0.01 0.01 0.00 0.00 0.00 0.00 0.00 0.00 0.00 0.01 0.01 0.00 0.00 0.01 0.01 0.01 0.01 0.00 0.01 0.03 0.07 0.05 0.04 0.03 0.03 0.02 0.01 0.01 0.00 0.00 0.01 0.00 0.00 0.00 0.00 0.01 0.01 0.01 0.01 0.00 0.00 0.00 0.00 0.00 0.00 0.00 0.00 0.00 0.00 0.01 0.01 0.01 0.01
0.01 0.00 0.00 0.00 0.00 0.00 0.00 0.00 0.00 0.00 0.00 0.01 0.00 0.00 0.00 0.01 0.01 0.00 0.01 0.02 0.05 0.09 0.04 0.02 0.01 0.01 0.02 0.01 0.00 0.00 0.00 0.00 0.00 0.00 0.00 0.00 0.00 0.00 0.00 0.00 0.00 0.00 0.00 0.00 0.00 0.00 0.00 0.00 0.00 0.01 0.01 0.01 0.01 0.02
0.00 0.00 0.00 0.00 0.00 0.01 0.00 0.00 0.00 0.00 0.00 0.00 0.00 0.01 0.00 0.00 0.00 0.00 0.01 0.03 0.08 0.05 0.02 0.02 0.00 0.01 0.01 0.01 0.01 0.01 0.00 0.00 0.00 0.00 0.00 0.00 0.00 0.01 0.00 0.00 0.00 0.00 0.00 0.00 0.00 0.00 0.00 0.00 0.00 0.01 0.01 0.01 0.02 0.02
0.00 0.00 0.00 0.00 0.00 0.00 0.01 0.01 0.00 0.00 0.00 0.00 0.00 0.00 0.00 0.00 0.00 0.00 0.02 0.08 0.07 0.03 0.01 0.01 0.01 0.01 0.01 0.01 0.01 0.02 0.01 0.00 0.00 0.00 0.00 0.00 0.00 0.01 0.01 0.01 0.00 0.00 0.00 0.00 0.00 0.01 0.00 0.00 0.00 0.01 0.01 0.00 0.01 0.01
0.00 0.00 0.01 0.02 0.01 0.01 0.00 0.00 0.00 0.00 0.00 0.00 0.01 0.00 0.00 0.00 0.00 0.02 0.06 0.10 0.07 0.05 0.03 0.02 0.02 0.01 0.01 0.03 0.02 0.01 0.02 0.01 0.00 0.00 0.00 0.00 0.00 0.00 0.01 0.01 0.01 0.01 0.00 0.00 0.00 0.00 0.00 0.01 0.00 0.01 0.01 0.01 0.00 0.00
0.01 0.01 0.02 0.05 0.05 0.03 0.02 0.02 0.02 0.01 0.01 0.01 0.01 0.01 0.01 0.01 0.03 0.06 0.07 0.08 0.06 0.04 0.03 0.04 0.03 0.03 0.04 0.04 0.06 0.04 0.03 0.04 0.02 0.01 0.01 0.00 0.00 0.00 0.00 0.00 0.00 0.00 0.00 0.00 0.00 0.00 0.00 0.00 0.00 0.01 0.01 0.01 0.01 0.01
0.01 0.03 0.10 0.09 0.07 0.06 0.06 0.05 0.06 0.06 0.03 0.00 0.01 0.02 0.03 0.04 0.07 0.08 0.07 0.05 0.06 0.05 0.04 0.03 0.03 0.04 0.06 0.05 0.05 0.05 0.05 0.05 0.07 0.05 0.05 0.05 0.02 0.00 0.00 0.00 0.00 0.00 0.00 0.00 0.00 0.00 0.01 0.00 0.00 0.00 0.00 0.01 0.01 0.01
0.03 0.08 0.12 0.14 0.12 0.09 0.08 0.07 0.07 0.04 0.03 0.04 0.08 0.06 0.04 0.05 0.10 0.09 0.08 0.12 0.15 0.12 0.09 0.06 0.04 0.03 0.02 0.02 0.03 0.04 0.06 0.08 0.07 0.08 0.06 0.06 0.05 0.06 0.04 0.02 0.01 0.00 0.00 0.00 0.01 0.01 0.01 0.01 0.01 0.01 0.02 0.01 0.02 0.02
0.03 0.06 0.14 0.13 0.14 0.11 0.07 0.06 0.06 0.07 0.06 0.04 0.03 0.04 0.05 0.11 0.17 0.15 0.12 0.11 0.10 0.10 0.11 0.09 0.07 0.06 0.05 0.05 0.04 0.04 0.07 0.10 0.12 0.11 0.08 0.06 0.06 0.07 0.08 0.08 0.06 0.03 0.02 0.03 0.05 0.08 0.09 0.07 0.06 0.06 0.05 0.04 0.04 0.04
0.01 0.04 0.04 0.05 0.07 0.11 0.12 0.13 0.10 0.08 0.06 0.05 0.03 0.02 0.03 0.06 0.10 0.07 0.05 0.08 0.08 0.07 0.06 0.06 0.07 0.06 0.06 0.08 0.09 0.07 0.08 0.06 0.05 0.07 0.10 0.12 0.10 0.08 0.09 0.09 0.10 0.11 0.12 0.10 0.08 0.07 0.06 0.06 0.05 0.04 0.04 0.03 0.03 0.02
0.01 0.03 0.02 0.03 0.04 0.07 0.09 0.10 0.07 0.05 0.06 0.04 0.06 0.04 0.05 0.05 0.05 0.06 0.04 0.03 0.02 0.03 0.04 0.05 0.06 0.07 0.07 0.10 0.14 0.14 0.11 0.07 0.05 0.07 0.06 0.06 0.10 0.12 0.10 0.07 0.08 0.10 0.13 0.13 0.13 0.12 0.10 0.08 0.07 0.05 0.04 0.04 0.03 0.03
0.03 0.03 0.03 0.02 0.04 0.05 0.05 0.06 0.04 0.05 0.05 0.04 0.05 0.05 0.05 0.04 0.04 0.06 0.02 0.02 0.06 0.05 0.05 0.05 0.05 0.06 0.07 0.10 0.12 0.08 0.06 0.04 0.05 0.08 0.08 0.08 0.10 0.12 0.11 0.09 0.07 0.08 0.09 0.08 0.09 0.08 0.09 0.09 0.08 0.07 0.07 0.07 0.05 0.04

GFSWCAN_prec_precacc24_162.txt.gz
Total_Precipitation_Accumulation
0.17 0.36 0.41 0.26 0.21 0.22 0.20 0.16 0.31 0.50 0.51 0.52 0.64 0.89 0.85 0.74 0.67 0.87 0.82 0.31 0.30 0.51 0.22 0.06 0.03 0.05 0.09 0.07 0.06 0.07 0.14 0.21 0.48 0.55 0.36 0.29 0.10 0.02 0.02 0.00 0.01 0.07 0.14 0.14 0.12 0.15 0.04 0.00 0.00 0.00 0.00 0.00 0.00 0.00
0.13 0.35 0.43 0.30 0.27 0.18 0.14 0.26 0.33 0.33 0.31 0.32 0.53 0.69 0.85 0.70 0.66 0.88 1.18 0.51 0.23 0.47 0.39 0.14 0.09 0.06 0.03 0.04 0.08 0.07 0.05 0.04 0.11 0.26 0.20 0.12 0.16 0.18 0.10 0.05 0.03 0.04 0.04 0.05 0.11 0.07 0.02 0.00 0.02 0.02 0.01 0.00 0.00 0.00
0.16 0.36 0.43 0.35 0.24 0.13 0.20 0.23 0.24 0.23 0.19 0.23 0.46 0.62 0.72 0.57 0.55 0.80 1.01 0.53 0.41 0.68 0.64 0.26 0.14 0.06 0.03 0.04 0.05 0.19 0.13 0.04 0.09 0.15 0.28 0.31 0.26 0.11 0.11 0.09 0.05 0.03 0.02 0.04 0.04 0.02 0.01 0.01 0.01 0.01 0.01 0.02 0.00 0.00
0.23 0.42 0.43 0.35 0.22 0.17 0.15 0.15 0.22 0.30 0.31 0.32 0.42 0.51 0.56 0.52 0.54 0.82 1.21 0.56 0.45 0.65 0.69 0.41 0.10 0.06 0.03 0.02 0.04 0.05 0.05 0.13 0.17 0.20 0.31 0.30 0.27 0.19 0.14 0.09 0.04 0.03 0.02 0.04 0.07 0.11 0.02 0.02 0.03 0.04 0.02 0.01 0.00 0.00
0.31 0.47 0.43 0.27 0.21 0.16 0.13 0.19 0.33 0.44 0.52 0.57 0.56 0.60 0.50 0.49 0.63 0.99 1.22 0.62 0.30 0.27 0.41 0.57 0.19 0.09 0.04 0.07 0.07 0.05 0.05 0.10 0.12 0.24 0.42 0.34 0.25 0.26 0.13 0.13 0.07 0.01 0.01 0.04 0.13 0.05 0.02 0.02 0.01 0.05 0.06 0.03 0.00 0.00
0.40 0.48 0.39 0.22 0.18 0.15 0.17 0.31 0.41 0.54 0.63 0.72 0.79 0.85 0.57 0.47 0.72 2.11 2.84 1.39 0.47 0.15 0.21 0.59 0.57 0.26 0.12 0.12 0.23 0.16 0.12 0.09 0.12 0.18 0.21 0.20 0.17 0.30 0.29 0.20 0.09 0.00 0.00 0.00 0.02 0.01 0.01 0.02 0.05 0.03 0.02 0.01 0.00 0.00
0.45 0.57 0.36 0.19 0.15 0.20 0.33 0.42 0.49 0.62 0.68 0.56 0.52 0.57 0.54 0.60 1.04 1.57 0.93 0.72 0.36 0.38 0.55 0.41 0.64 0.61 0.38 0.32 0.33 0.42 0.39 0.24 0.14 0.15 0.08 0.06 0.13 0.31 0.29 0.10 0.04 0.00 0.00 0.00 0.00 0.01 0.05 0.04 0.06 0.03 0.01 0.00 0.00 0.00
0.42 0.44 0.31 0.20 0.20 0.21 0.38 0.52 0.52 0.68 0.80 0.72 0.57 0.55 0.49 0.61 0.83 0.47 0.07 0.04 0.09 0.56 0.58 0.33 0.63 0.90 0.63 0.42 0.45 0.35 0.41 0.32 0.30 0.20 0.10 0.06 0.10 0.14 0.13 0.02 0.00 0.00 0.00 0.00 0.00 0.01 0.01 0.03 0.05 0.02 0.01 0.00 0.00 0.00
0.44 0.36 0.28 0.18 0.14 0.14 0.22 0.38 0.45 0.59 0.60 0.65 0.56 0.70 1.13 1.32 1.03 0.52 0.14 0.08 0.08 0.48 0.40 0.24 0.21 0.55 0.36 0.23 0.27 0.24 0.27 0.27 0.27 0.29 0.14 0.09 0.13 0.08 0.01 0.00 0.00 0.00 0.00 0.00 0.00 0.01 0.02 0.02 0.02 0.01 0.00 0.00 0.00 0.00
0.45 0.32 0.25 0.11 0.07 0.08 0.14 0.22 0.21 0.30 0.36 0.39 0.55 0.75 1.11 0.69 0.28 0.47 0.80 0.80 0.78 0.51 0.18 0.26 0.05 0.32 0.24 0.15 0.15 0.14 0.25 0.15 0.15 0.13 0.09 0.12 0.04 0.00 0.00 0.00 0.00 0.00 0.00 0.00 0.01 0.11 0.11 0.07 0.02 0.00 0.00 0.00 0.00 0.00
0.35 0.27 0.11 0.05 0.05 0.10 0.21 0.20 0.18 0.15 0.16 0.24 0.28 0.52 0.66 0.26 0.17 0.27 0.52 0.42 0.39 0.44 0.26 0.23 0.06 0.05 0.05 0.02 0.05 0.03 0.09 0.12 0.08 0.05 0.04 0.04 0.04 0.00 0.00 0.00 0.00 0.00 0.00 0.01 0.01 0.03 0.02 0.01 0.00 0.00 0.00 0.00 0.00 0.00
0.31 0.11 0.05 0.07 0.06 0.07 0.16 0.24 0.17 0.11 0.07 0.02 0.16 0.39 0.37 0.23 0.16 0.16 0.19 0.12 0.06 0.20 0.21 0.18 0.13 0.05 0.07 0.05 0.07 0.04 0.06 0.03 0.03 0.02 0.03 0.03 0.03 0.01 0.02 0.00 0.00 0.00 0.01 0.00 0.02 0.03 0.02 0.01 0.00 0.00 0.00 0.00 0.00 0.00
0.17 0.05 0.04 0.06 0.04 0.03 0.08 0.16 0.19 0.10 0.02 0.00 0.02 0.06 0.04 0.04 0.00 0.04 0.04 0.03 0.03 0.03 0.08 0.05 0.07 0.04 0.08 0.06 0.10 0.07 0.05 0.02 0.01 0.04 0.02 0.02 0.01 0.00 0.01 0.01 0.02 0.03 0.04 0.03 0.04 0.01 0.00 0.00 0.00 0.00 0.00 0.00 0.00 0.00
0.08 0.05 0.04 0.04 0.06 0.05 0.05 0.05 0.08 0.02 0.00 0.01 0.01 0.01 0.00 0.01 0.04 0.02 0.00 0.00 0.00 0.00 0.00 0.00 0.01 0.01 0.03 0.02 0.06 0.07 0.03 0.02 0.05 0.03 0.01 0.01 0.00 0.00 0.00 0.00 0.00 0.02 0.05 0.07 0.02 0.00 0.00 0.00 0.00 0.00 0.00 0.00 0.00 0.00
0.06 0.07 0.09 0.11 0.11 0.08 0.02 0.00 0.00 0.00 0.01 0.02 0.00 0.02 0.08 0.08 0.04 0.01 0.00 0.00 0.00 0.00 0.00 0.01 0.03 0.01 0.00 0.02 0.02 0.04 0.02 0.02 0.01 0.02 0.01 0.00 0.00 0.00 0.00 0.00 0.01 0.01 0.03 0.05 0.00 0.00 0.00 0.00 0.00 0.00 0.00 0.00 0.00 0.00
0.05 0.10 0.12 0.11 0.12 0.08 0.02 0.00 0.00 0.00 0.00 0.00 0.10 0.22 0.20 0.11 0.11 0.04 0.03 0.02 0.01 0.00 0.01 0.02 0.04 0.05 0.06 0.02 0.01 0.01 0.01 0.02 0.03 0.01 0.00 0.00 0.00 0.00 0.00 0.00 0.01 0.03 0.05 0.03 0.00 0.00 0.00 0.00 0.00 0.00 0.00 0.00 0.00 0.00
0.01 0.08 0.13 0.05 0.05 0.07 0.02 0.00 0.00 0.00 0.00 0.09 0.24 0.22 0.16 0.14 0.14 0.08 0.04 0.01 0.00 0.00 0.00 0.01 0.02 0.03 0.03 0.01 0.00 0.01 0.03 0.03 0.01 0.01 0.00 0.00 0.00 0.00 0.01 0.00 0.01 0.03 0.04 0.02 0.00 0.00 0.00 0.00 0.00 0.00 0.00 0.00 0.00 0.00
0.01 0.02 0.02 0.02 0.02 0.01 0.00 0.00 0.00 0.01 0.09 0.22 0.25 0.15 0.05 0.09 0.11 0.13 0.09 0.01 0.00 0.00 0.00 0.00 0.00 0.00 0.01 0.02 0.03 0.03 0.03 0.02 0.02 0.02 0.01 0.01 0.02 0.03 0.01 0.00 0.00 0.00 0.00 0.00 0.00 0.00 0.00 0.00 0.00 0.00 0.00 0.00 0.00 0.01
0.00 0.00 0.00 0.00 0.01 0.00 0.00 0.00 0.00 0.07 0.22 0.16 0.13 0.06 0.04 0.09 0.12 0.10 0.06 0.01 0.00 0.00 0.00 0.00 0.00 0.02 0.07 0.08 0.06 0.02 0.02 0.01 0.02 0.04 0.04 0.03 0.03 0.01 0.00 0.00 0.00 0.00 0.00 0.00 0.00 0.00 0.00 0.00 0.00 0.00 0.00 0.00 0.00 0.00
0.00 0.00 0.00 0.00 0.00 0.00 0.00 0.00 0.00 0.03 0.06 0.07 0.06 0.04 0.03 0.04 0.03 0.03 0.02 0.00 0.00 0.00 0.00 0.01 0.05 0.08 0.08 0.05 0.03 0.01 0.01 0.00 0.01 0.04 0.08 0.07 0.02 0.00 0.00 0.00 0.00 0.00 0.00 0.00 0.00 0.00 0.00 0.01 0.01 0.00 0.00 0.00 0.01 0.00
0.05 0.04 0.00 0.00 0.00 0.00 0.00 0.00 0.00 0.00 0.01 0.02 0.02 0.01 0.01 0.01 0.01 0.00 0.00 0.00 0.00 0.02 0.04 0.07 0.08 0.08 0.06 0.03 0.02 0.01 0.01 0.01 0.01 0.00 0.02 0.04 0.02 0.00 0.00 0.00 0.00 0.00 0.00 0.00 0.00 0.00 0.00 0.00 0.00 0.00 0.00 0.01 0.01 0.01
0.03 0.00 0.00 0.00 0.00 0.00 0.00 0.00 0.00 0.00 0.00 0.00 0.00 0.00 0.00 0.00 0.00 0.00 0.00 0.00 0.04 0.08 0.06 0.06 0.05 0.05 0.03 0.02 0.02 0.00 0.01 0.02 0.01 0.02 0.02 0.00 0.01 0.01 0.01 0.01 0.00 0.00 0.00 0.00 0.00 0.00 0.00 0.00 0.00 0.00 0.01 0.01 0.00 0.01
0.01 0.00 0.00 0.00 0.00 0.00 0.00 0.00 0.00 0.00 0.00 0.01 0.00 0.00 0.00 0.00 0.00 0.00 0.01 0.02 0.07 0.11 0.06 0.03 0.02 0.02 0.02 0.02 0.00 0.00 0.00 0.00 0.00 0.02 0.02 0.02 0.02 0.01 0.00 0.00 0.00 0.00 0.00 0.00 0.00 0.00 0.00 0.00 0.00 0.01 0.01 0.01 0.01 0.02
0.00 0.00 0.00 0.00 0.00 0.01 0.00 0.00 0.00 0.00 0.00 0.00 0.00 0.00 0.00 0.00 0.00 0.00 0.01 0.04 0.09 0.06 0.02 0.02 0.01 0.01 0.01 0.00 0.01 0.01 0.00 0.00 0.00 0.00 0.00 0.00 0.00 0.01 0.00 0.00 0.00 0.00 0.00 0.00 0.00 0.00 0.00 0.00 0.00 0.01 0.01 0.01 0.01 0.02
0.00 0.00 0.00 0.00 0.00 0.00 0.00 0.00 0.00 0.00 0.00 0.00 0.00 0.00 0.00 0.00 0.00 0.01 0.02 0.08 0.07 0.04 0.02 0.01 0.01 0.01 0.01 0.01 0.02 0.02 0.01 0.00 0.00 0.00 0.00 0.00 0.00 0.01 0.01 0.01 0.00 0.00 0.00 0.00 0.00 0.01 0.00 0.00 0.00 0.01 0.01 0.00 0.01 0.01
0.00 0.01 0.01 0.01 0.01 0.00 0.00 0.00 0.00 0.00 0.00 0.00 0.00 0.00 0.00 0.00 0.00 0.03 0.06 0.11 0.07 0.05 0.03 0.02 0.02 0.02 0.01 0.03 0.02 0.01 0.02 0.01 0.00 0.01 0.00 0.00 0.00 0.00 0.01 0.01 0.01 0.01 0.00 0.00 0.00 0.00 0.00 0.00 0.00 0.00 0.01 0.01 0.00 0.00
0.01 0.01 0.01 0.01 0.01 0.01 0.01 0.01 0.00 0.00 0.00 0.00 0.01 0.01 0.00 0.01 0.03 0.06 0.08 0.08 0.06 0.04 0.04 0.05 0.04 0.04 0.05 0.05 0.06 0.05 0.04 0.04 0.03 0.01 0.01 0.00 0.00 0.00 0.00 0.00 0.00 0.00 0.00 0.00 0.00 0.00 0.00 0.00 0.00 0.00 0.00 0.01 0.01 0.00
0.01 0.03 0.07 0.05 0.03 0.03 0.04 0.03 0.04 0.05 0.03 0.01 0.01 0.02 0.03 0.04 0.07 0.08 0.07 0.06 0.06 0.06 0.04 0.03 0.03 0.05 0.07 0.05 0.06 0.05 0.05 0.05 0.07 0.05 0.05 0.05 0.02 0.01 0.00 0.00 0.00 0.00 0.00 0.00 0.00 0.00 0.01 0.00 0.00 0.00 0.00 0.01 0.03 0.02
0.03 0.08 0.11 0.11 0.09 0.08 0.07 0.08 0.07 0.04 0.04 0.04 0.08 0.06 0.05 0.05 0.10 0.09 0.08 0.12 0.16 0.13 0.10 0.07 0.04 0.03 0.02 0.03 0.03 0.04 0.06 0.07 0.06 0.08 0.06 0.06 0.05 0.07 0.05 0.03 0.01 0.00 0.00 0.00 0.01 0.01 0.01 0.01 0.02 0.03 0.03 0.04 0.05 0.06
0.03 0.06 0.14 0.13 0.13 0.11 0.07 0.07 0.06 0.07 0.06 0.04 0.03 0.04 0.06 0.12 0.17 0.15 0.13 0.12 0.11 0.10 0.11 0.09 0.07 0.07 0.06 0.05 0.03 0.03 0.06 0.10 0.12 0.11 0.08 0.07 0.06 0.08 0.09 0.09 0.07 0.04 0.03 0.03 0.06 0.09 0.10 0.09 0.09 0.09 0.08 0.08 0.07 0.07
0.02 0.04 0.04 0.05 0.07 0.11 0.12 0.13 0.10 0.08 0.06 0.05 0.03 0.02 0.03 0.07 0.11 0.07 0.06 0.08 0.08 0.07 0.06 0.06 0.07 0.06 0.06 0.08 0.09 0.07 0.08 0.05 0.06 0.08 0.11 0.13 0.11 0.08 0.09 0.10 0.11 0.12 0.13 0.11 0.09 0.08 0.07 0.08 0.08 0.07 0.07 0.06 0.06 0.05
0.01 0.03 0.03 0.03 0.05 0.08 0.10 0.11 0.08 0.05 0.07 0.04 0.06 0.04 0.05 0.05 0.05 0.06 0.04 0.03 0.02 0.03 0.03 0.05 0.06 0.07 0.06 0.10 0.15 0.14 0.11 0.07 0.05 0.07 0.06 0.07 0.11 0.13 0.11 0.08 0.08 0.12 0.14 0.15 0.14 0.14 0.12 0.11 0.10 0.08 0.06 0.06 0.06 0.05
0.02 0.03 0.03 0.03 0.05 0.06 0.06 0.07 0.05 0.05 0.05 0.05 0.06 0.05 0.05 0.04 0.04 0.06 0.02 0.02 0.05 0.04 0.04 0.05 0.05 0.06 0.07 0.09 0.11 0.08 0.06 0.05 0.06 0.09 0.08 0.08 0.10 0.13 0.11 0.09 0.08 0.09 0.10 0.10 0.11 0.11 0.11 0.11 0.11 0.09 0.10 0.09 0.07 0.07

GFSWCAN_prec_precacc24_168.txt.gz
Total_Precipitation_Accumulation
0.05 0.05 0.08 0.12 0.14 0.17 0.15 0.10 0.13 0.18 0.20 0.23 0.29 0.39 0.44 0.46 0.47 0.95 0.86 0.30 0.28 0.45 0.12 0.01 0.02 0.04 0.09 0.12 0.14 0.10 0.20 0.23 0.51 0.56 0.36 0.30 0.12 0.02 0.03 0.00 0.02 0.13 0.33 0.33 0.23 0.21 0.08 0.00 0.00 0.01 0.00 0.00 0.00 0.01
0.04 0.04 0.11 0.16 0.22 0.18 0.11 0.12 0.10 0.11 0.15 0.16 0.29 0.44 0.62 0.51 0.46 0.79 1.11 0.45 0.23 0.45 0.29 0.05 0.03 0.02 0.01 0.04 0.10 0.10 0.16 0.07 0.13 0.29 0.21 0.13 0.19 0.21 0.13 0.07 0.04 0.04 0.04 0.09 0.27 0.22 0.04 0.02 0.04 0.05 0.03 0.03 0.08 0.04
0.03 0.07 0.17 0.23 0.20 0.13 0.15 0.13 0.12 0.12 0.13 0.18 0.32 0.45 0.55 0.42 0.44 0.75 0.99 0.54 0.40 0.56 0.43 0.08 0.04 0.03 0.03 0.03 0.05 0.18 0.12 0.04 0.10 0.16 0.33 0.35 0.29 0.12 0.12 0.08 0.08 0.05 0.03 0.07 0.07 0.02 0.01 0.03 0.03 0.02 0.02 0.06 0.06 0.04
0.02 0.10 0.19 0.27 0.19 0.16 0.13 0.14 0.20 0.27 0.30 0.30 0.33 0.43 0.49 0.43 0.47 0.77 1.16 0.57 0.46 0.64 0.51 0.16 0.04 0.03 0.02 0.02 0.03 0.03 0.04 0.12 0.17 0.22 0.37 0.38 0.33 0.24 0.18 0.11 0.09 0.05 0.08 0.14 0.16 0.15 0.04 0.02 0.05 0.09 0.06 0.02 0.03 0.04
0.05 0.18 0.26 0.22 0.20 0.15 0.13 0.20 0.33 0.43 0.52 0.55 0.52 0.54 0.47 0.46 0.58 0.99 1.24 0.64 0.33 0.31 0.34 0.54 0.18 0.09 0.05 0.07 0.06 0.04 0.06 0.12 0.16 0.32 0.51 0.40 0.31 0.34 0.19 0.19 0.09 0.03 0.04 0.09 0.17 0.07 0.09 0.13 0.14 0.14 0.17 0.06 0.00 0.00
0.16 0.25 0.23 0.18 0.18 0.14 0.17 0.31 0.41 0.54 0.62 0.71 0.78 0.84 0.58 0.49 0.78 2.31 3.01 1.45 0.51 0.19 0.35 0.56 0.47 0.27 0.13 0.12 0.23 0.18 0.15 0.15 0.18 0.26 0.31 0.28 0.24 0.43 0.40 0.27 0.10 0.01 0.01 0.02 0.05 0.03 0.06 0.14 0.16 0.08 0.04 0.03 0.01 0.00
0.23 0.35 0.23 0.17 0.14 0.19 0.33 0.42 0.50 0.63 0.71 0.60 0.55 0.59 0.57 0.62 1.16 1.89 1.05 0.73 0.37 0.46 0.78 0.49 0.57 0.60 0.41 0.37 0.38 0.49 0.49 0.35 0.24 0.25 0.16 0.11 0.21 0.49 0.41 0.13 0.07 0.04 0.02 0.06 0.07 0.06 0.09 0.06 0.06 0.03 0.01 0.01 0.01 0.01
0.22 0.24 0.20 0.16 0.20 0.21 0.38 0.52 0.53 0.73 0.90 0.83 0.66 0.61 0.57 0.75 1.09 0.72 0.13 0.07 0.14 0.66 0.68 0.42 0.61 0.94 0.66 0.51 0.54 0.43 0.53 0.47 0.44 0.30 0.16 0.11 0.12 0.24 0.18 0.02 0.00 0.00 0.00 0.01 0.14 0.06 0.03 0.04 0.06 0.03 0.01 0.00 0.00 0.00
0.26 0.19 0.15 0.14 0.13 0.13 0.22 0.39 0.52 0.70 0.74 0.88 0.90 1.10 1.58 2.00 1.68 0.68 0.19 0.19 0.30 0.78 0.57 0.28 0.20 0.59 0.41 0.31 0.37 0.32 0.37 0.39 0.34 0.35 0.16 0.15 0.19 0.13 0.01 0.00 0.00 0.00 0.00 0.00 0.00 0.03 0.03 0.08 0.08 0.02 0.00 0.00 0.00 0.01
0.28 0.14 0.11 0.08 0.06 0.08 0.17 0.30 0.33 0.49 0.59 0.72 1.20 1.56 1.69 0.93 0.36 0.60 1.36 1.44 1.27 0.79 0.31 0.29 0.06 0.36 0.43 0.27 0.25 0.20 0.34 0.21 0.21 0.15 0.13 0.17 0.05 0.00 0.00 0.00 0.00 0.00 0.00 0.00 0.01 0.11 0.12 0.09 0.06 0.02 0.00 0.00 0.01 0.01
0.19 0.13 0.06 0.05 0.09 0.18 0.31 0.31 0.34 0.50 0.44 0.56 0.76 0.81 0.75 0.31 0.26 0.48 0.73 0.58 0.48 0.50 0.27 0.23 0.07 0.10 0.14 0.20 0.15 0.10 0.16 0.18 0.16 0.10 0.05 0.05 0.03 0.00 0.00 0.00 0.00 0.00 0.00 0.01 0.01 0.03 0.02 0.01 0.01 0.02 0.01 0.00 0.00 0.00
0.20 0.08 0.07 0.15 0.13 0.14 0.24 0.31 0.29 0.32 0.22 0.17 0.31 0.68 0.64 0.40 0.35 0.33 0.27 0.18 0.08 0.21 0.20 0.17 0.12 0.11 0.16 0.16 0.26 0.10 0.18 0.13 0.12 0.13 0.07 0.03 0.02 0.02 0.02 0.01 0.00 0.00 0.01 0.00 0.02 0.03 0.02 0.03 0.03 0.03 0.02 0.01 0.00 0.00
0.13 0.05 0.07 0.09 0.06 0.13 0.15 0.20 0.31 0.29 0.17 0.18 0.18 0.29 0.20 0.13 0.10 0.12 0.07 0.05 0.04 0.05 0.08 0.05 0.09 0.10 0.15 0.17 0.27 0.17 0.10 0.13 0.11 0.13 0.07 0.01 0.04 0.03 0.02 0.01 0.02 0.03 0.04 0.03 0.04 0.01 0.00 0.00 0.02 0.03 0.02 0.00 0.00 0.00
0.06 0.05 0.04 0.03 0.04 0.10 0.11 0.16 0.27 0.23 0.16 0.14 0.11 0.08 0.10 0.04 0.05 0.04 0.03 0.00 0.01 0.00 0.00 0.01 0.03 0.08 0.11 0.09 0.23 0.16 0.07 0.07 0.08 0.04 0.01 0.03 0.01 0.00 0.00 0.00 0.00 0.02 0.05 0.07 0.02 0.00 0.00 0.01 0.00 0.00 0.00 0.00 0.00 0.00
0.04 0.03 0.01 0.01 0.02 0.04 0.05 0.14 0.14 0.10 0.15 0.12 0.08 0.07 0.10 0.12 0.07 0.03 0.03 0.05 0.05 0.02 0.01 0.05 0.09 0.10 0.09 0.07 0.05 0.15 0.12 0.05 0.03 0.03 0.02 0.00 0.00 0.00 0.00 0.00 0.01 0.02 0.03 0.08 0.02 0.01 0.01 0.01 0.01 0.00 0.00 0.00 0.00 0.00
0.04 0.05 0.03 0.00 0.01 0.04 0.04 0.03 0.02 0.06 0.05 0.02 0.11 0.24 0.22 0.13 0.11 0.03 0.02 0.02 0.03 0.05 0.09 0.13 0.13 0.12 0.10 0.05 0.04 0.02 0.05 0.05 0.05 0.01 0.01 0.00 0.00 0.00 0.01 0.01 0.02 0.06 0.10 0.08 0.05 0.04 0.03 0.02 0.01 0.00 0.00 0.00 0.00 0.00
0.01 0.07 0.03 0.00 0.01 0.01 0.00 0.00 0.02 0.02 0.04 0.20 0.37 0.30 0.19 0.18 0.15 0.08 0.03 0.01 0.02 0.07 0.07 0.08 0.09 0.09 0.07 0.05 0.02 0.03 0.04 0.03 0.01 0.01 0.00 0.00 0.01 0.01 0.02 0.03 0.03 0.08 0.16 0.14 0.09 0.10 0.08 0.02 0.00 0.00 0.00 0.00 0.00 0.00
0.05 0.03 0.01 0.00 0.00 0.00 0.01 0.00 0.01 0.01 0.10 0.22 0.28 0.19 0.13 0.18 0.15 0.15 0.10 0.02 0.02 0.05 0.05 0.04 0.03 0.04 0.04 0.06 0.08 0.04 0.03 0.03 0.02 0.02 0.01 0.01 0.03 0.04 0.05 0.05 0.05 0.07 0.10 0.16 0.10 0.09 0.08 0.03 0.00 0.00 0.00 0.00 0.00 0.00
0.01 0.00 0.00 0.00 0.00 0.01 0.03 0.01 0.00 0.07 0.22 0.16 0.15 0.09 0.10 0.18 0.26 0.18 0.09 0.01 0.00 0.00 0.00 0.01 0.02 0.03 0.05 0.04 0.03 0.03 0.02 0.02 0.03 0.04 0.03 0.03 0.04 0.05 0.07 0.07 0.08 0.08 0.07 0.11 0.13 0.10 0.08 0.04 0.00 0.00 0.00 0.00 0.00 0.00
0.00 0.00 0.00 0.00 0.00 0.02 0.00 0.00 0.00 0.04 0.08 0.09 0.10 0.09 0.08 0.11 0.13 0.14 0.05 0.01 0.00 0.01 0.01 0.02 0.06 0.07 0.07 0.06 0.04 0.02 0.01 0.01 0.01 0.04 0.08 0.08 0.06 0.05 0.07 0.07 0.05 0.06 0.04 0.07 0.08 0.05 0.02 0.01 0.00 0.00 0.00 0.00 0.00 0.00
0.00 0.00 0.00 0.00 0.00 0.00 0.00 0.00 0.00 0.00 0.02 0.04 0.04 0.05 0.08 0.08 0.08 0.05 0.02 0.00 0.00 0.02 0.05 0.07 0.09 0.09 0.07 0.04 0.02 0.02 0.02 0.02 0.02 0.02 0.03 0.07 0.08 0.06 0.06 0.03 0.01 0.01 0.01 0.01 0.02 0.01 0.00 0.00 0.00 0.00 0.00 0.00 0.00 0.00
0.00 0.00 0.00 0.00 0.00 0.00 0.00 0.00 0.00 0.00 0.00 0.01 0.00 0.02 0.04 0.06 0.04 0.01 0.00 0.00 0.04 0.09 0.07 0.08 0.06 0.07 0.04 0.03 0.02 0.01 0.03 0.03 0.03 0.03 0.05 0.04 0.04 0.02 0.01 0.00 0.00 0.00 0.00 0.00 0.00 0.00 0.00 0.00 0.00 0.00 0.00 0.00 0.00 0.00
0.00 0.00 0.00 0.00 0.01 0.00 0.00 0.00 0.00 0.00 0.00 0.00 0.00 0.00 0.01 0.01 0.00 0.00 0.01 0.02 0.08 0.13 0.08 0.04 0.03 0.03 0.03 0.03 0.01 0.01 0.02 0.04 0.04 0.06 0.08 0.05 0.03 0.01 0.00 0.00 0.00 0.00 0.00 0.00 0.00 0.00 0.00 0.00 0.00 0.00 0.00 0.00 0.00 0.01
0.00 0.00 0.00 0.00 0.00 0.00 0.00 0.00 0.00 0.00 0.00 0.00 0.00 0.00 0.00 0.00 0.00 0.00 0.01 0.04 0.09 0.07 0.03 0.03 0.02 0.02 0.02 0.01 0.02 0.02 0.01 0.01 0.02 0.03 0.03 0.03 0.03 0.02 0.00 0.00 0.00 0.00 0.00 0.00 0.00 0.00 0.00 0.00 0.00 0.00 0.00 0.00 0.01 0.01
0.00 0.00 0.00 0.00 0.00 0.00 0.00 0.00 0.00 0.00 0.00 0.00 0.00 0.00 0.00 0.00 0.00 0.00 0.02 0.08 0.08 0.05 0.02 0.02 0.02 0.02 0.02 0.03 0.03 0.03 0.02 0.01 0.01 0.01 0.01 0.00 0.00 0.01 0.01 0.00 0.00 0.00 0.00 0.00 0.00 0.00 0.00 0.00 0.00 0.00 0.00 0.00 0.00 0.00
0.00 0.01 0.01 0.01 0.01 0.00 0.00 0.00 0.00 0.00 0.00 0.00 0.00 0.00 0.00 0.00 0.00 0.02 0.06 0.11 0.08 0.06 0.04 0.03 0.03 0.02 0.02 0.03 0.03 0.02 0.02 0.01 0.01 0.01 0.01 0.00 0.00 0.00 0.01 0.01 0.01 0.01 0.00 0.00 0.00 0.00 0.00 0.00 0.00 0.00 0.00 0.00 0.00 0.00
0.01 0.01 0.01 0.01 0.01 0.00 0.00 0.00 0.00 0.00 0.00 0.00 0.00 0.00 0.00 0.00 0.02 0.06 0.08 0.09 0.07 0.05 0.04 0.05 0.04 0.04 0.04 0.04 0.06 0.05 0.05 0.04 0.03 0.02 0.01 0.00 0.00 0.00 0.00 0.00 0.00 0.01 0.00 0.00 0.00 0.00 0.01 0.01 0.00 0.00 0.00 0.00 0.00 0.00
0.02 0.02 0.03 0.02 0.00 0.00 0.01 0.01 0.01 0.02 0.01 0.00 0.00 0.01 0.01 0.02 0.05 0.07 0.08 0.06 0.06 0.06 0.05 0.03 0.03 0.04 0.06 0.05 0.06 0.05 0.05 0.05 0.07 0.05 0.05 0.05 0.03 0.01 0.00 0.00 0.00 0.00 0.00 0.00 0.00 0.00 0.00 0.01 0.00 0.00 0.01 0.01 0.03 0.03
0.03 0.04 0.03 0.03 0.02 0.01 0.02 0.03 0.04 0.03 0.03 0.02 0.02 0.02 0.03 0.04 0.08 0.09 0.08 0.10 0.13 0.11 0.09 0.06 0.04 0.03 0.02 0.02 0.02 0.02 0.04 0.06 0.06 0.07 0.06 0.07 0.08 0.07 0.05 0.03 0.02 0.01 0.00 0.00 0.01 0.01 0.01 0.02 0.03 0.04 0.05 0.06 0.09 0.09
0.04 0.05 0.08 0.05 0.04 0.04 0.04 0.05 0.06 0.07 0.06 0.03 0.02 0.03 0.04 0.08 0.14 0.13 0.12 0.11 0.11 0.10 0.11 0.09 0.07 0.07 0.06 0.05 0.03 0.02 0.04 0.06 0.07 0.08 0.07 0.06 0.07 0.08 0.10 0.10 0.09 0.07 0.05 0.05 0.06 0.09 0.11 0.10 0.10 0.11 0.11 0.11 0.12 0.11
0.02 0.05 0.05 0.05 0.07 0.10 0.11 0.13 0.11 0.08 0.07 0.05 0.03 0.01 0.03 0.06 0.09 0.07 0.06 0.08 0.08 0.07 0.06 0.06 0.07 0.06 0.04 0.06 0.08 0.06 0.07 0.04 0.05 0.06 0.08 0.10 0.10 0.10 0.10 0.12 0.13 0.15 0.16 0.14 0.11 0.09 0.08 0.10 0.10 0.09 0.09 0.09 0.09 0.08
0.02 0.05 0.04 0.04 0.06 0.09 0.11 0.13 0.09 0.06 0.08 0.05 0.06 0.03 0.05 0.04 0.04 0.06 0.04 0.03 0.03 0.03 0.03 0.05 0.05 0.05 0.05 0.08 0.12 0.12 0.09 0.07 0.05 0.07 0.06 0.07 0.11 0.14 0.13 0.09 0.09 0.13 0.16 0.17 0.17 0.16 0.15 0.14 0.14 0.12 0.11 0.11 0.10 0.10
0.03 0.03 0.04 0.05 0.06 0.07 0.07 0.08 0.07 0.07 0.06 0.05 0.06 0.06 0.05 0.03 0.04 0.06 0.02 0.02 0.05 0.03 0.03 0.04 0.04 0.05 0.06 0.08 0.09 0.06 0.06 0.06 0.07 0.09 0.09 0.09 0.11 0.13 0.12 0.10 0.08 0.09 0.10 0.11 0.12 0.13 0.14 0.14 0.15 0.13 0.14 0.13 0.11 0.11

GFSWCAN_prec_precacc24_171.txt.gz
Total_Precipitation_Accumulation
0.04 0.06 0.05 0.04 0.04 0.05 0.08 0.08 0.12 0.16 0.19 0.22 0.24 0.26 0.24 0.20 0.30 0.74 0.63 0.38 0.44 0.52 0.12 0.02 0.06 0.10 0.12 0.19 0.26 0.16 0.21 0.19 0.35 0.39 0.34 0.29 0.12 0.02 0.03 0.00 0.02 0.14 0.38 0.42 0.33 0.28 0.10 0.00 0.01 0.02 0.01 0.01 0.02 0.03
0.05 0.04 0.05 0.06 0.07 0.08 0.09 0.09 0.08 0.10 0.12 0.15 0.21 0.28 0.31 0.25 0.26 0.48 0.78 0.45 0.42 0.59 0.30 0.03 0.00 0.00 0.00 0.04 0.11 0.23 0.27 0.08 0.10 0.25 0.20 0.13 0.19 0.21 0.13 0.08 0.04 0.04 0.04 0.10 0.29 0.28 0.06 0.02 0.05 0.06 0.08 0.17 0.21 0.14
0.04 0.05 0.06 0.07 0.11 0.11 0.11 0.11 0.10 0.10 0.12 0.17 0.20 0.23 0.32 0.37 0.36 0.50 0.66 0.50 0.40 0.49 0.37 0.06 0.02 0.00 0.00 0.00 0.02 0.17 0.12 0.04 0.12 0.19 0.34 0.36 0.29 0.12 0.12 0.07 0.08 0.05 0.03 0.05 0.06 0.02 0.01 0.03 0.03 0.02 0.04 0.09 0.12 0.14
0.02 0.03 0.07 0.14 0.16 0.13 0.12 0.14 0.18 0.25 0.28 0.25 0.23 0.26 0.31 0.37 0.48 0.69 1.02 0.57 0.41 0.51 0.38 0.05 0.00 0.01 0.01 0.00 0.01 0.02 0.04 0.11 0.18 0.22 0.39 0.38 0.31 0.21 0.16 0.10 0.08 0.05 0.08 0.13 0.14 0.14 0.04 0.02 0.05 0.09 0.08 0.07 0.07 0.15
0.01 0.05 0.13 0.17 0.20 0.15 0.13 0.21 0.33 0.40 0.46 0.40 0.30 0.32 0.30 0.35 0.54 0.94 1.17 0.59 0.31 0.28 0.24 0.27 0.07 0.03 0.03 0.05 0.03 0.01 0.03 0.07 0.13 0.30 0.49 0.36 0.28 0.32 0.18 0.16 0.07 0.03 0.04 0.07 0.13 0.07 0.09 0.14 0.15 0.16 0.23 0.13 0.02 0.01
0.06 0.12 0.15 0.18 0.18 0.15 0.18 0.31 0.39 0.48 0.53 0.51 0.51 0.54 0.35 0.36 0.73 2.26 2.82 1.29 0.47 0.19 0.32 0.37 0.25 0.11 0.04 0.06 0.14 0.11 0.08 0.09 0.14 0.21 0.30 0.28 0.24 0.44 0.40 0.21 0.04 0.01 0.01 0.02 0.05 0.03 0.07 0.16 0.29 0.25 0.10 0.04 0.03 0.01
0.10 0.22 0.19 0.16 0.13 0.19 0.33 0.41 0.49 0.61 0.63 0.49 0.46 0.50 0.46 0.53 1.11 1.85 0.96 0.61 0.32 0.44 0.76 0.39 0.35 0.36 0.23 0.26 0.30 0.44 0.44 0.32 0.26 0.26 0.17 0.11 0.21 0.53 0.43 0.12 0.05 0.04 0.02 0.06 0.07 0.06 0.10 0.09 0.11 0.08 0.03 0.01 0.01 0.01
0.13 0.18 0.17 0.15 0.20 0.21 0.37 0.52 0.53 0.73 0.89 0.82 0.65 0.58 0.55 0.75 1.09 0.71 0.12 0.06 0.14 0.64 0.68 0.37 0.39 0.68 0.52 0.44 0.47 0.39 0.51 0.48 0.46 0.31 0.16 0.11 0.13 0.26 0.19 0.02 0.00 0.00 0.00 0.01 0.15 0.10 0.05 0.08 0.08 0.04 0.01 0.00 0.00 0.00
0.18 0.16 0.14 0.13 0.13 0.13 0.22 0.39 0.52 0.70 0.74 0.89 0.93 1.17 1.74 2.11 1.70 0.66 0.17 0.20 0.40 0.89 0.61 0.28 0.18 0.48 0.38 0.31 0.37 0.35 0.39 0.42 0.37 0.36 0.16 0.16 0.19 0.14 0.01 0.00 0.00 0.00 0.00 0.00 0.02 0.08 0.05 0.09 0.08 0.02 0.01 0.00 0.00 0.01
0.22 0.12 0.10 0.07 0.05 0.07 0.17 0.30 0.33 0.49 0.61 0.81 1.46 1.83 1.84 0.96 0.36 0.63 1.42 1.49 1.31 0.86 0.35 0.30 0.06 0.35 0.45 0.31 0.39 0.28 0.35 0.22 0.22 0.15 0.14 0.18 0.05 0.00 0.00 0.00 0.00 0.00 0.00 0.00 0.04 0.13 0.12 0.09 0.06 0.02 0.00 0.00 0.01 0.01
0.16 0.12 0.04 0.03 0.08 0.17 0.31 0.32 0.38 0.60 0.62 0.81 0.94 0.86 0.76 0.33 0.29 0.56 0.81 0.63 0.51 0.48 0.26 0.23 0.07 0.10 0.15 0.23 0.20 0.13 0.18 0.18 0.17 0.10 0.05 0.05 0.03 0.00 0.00 0.00 0.00 0.00 0.00 0.01 0.01 0.03 0.02 0.01 0.01 0.02 0.02 0.00 0.00 0.01
0.16 0.06 0.05 0.15 0.14 0.16 0.27 0.34 0.36 0.48 0.33 0.29 0.41 0.74 0.78 0.57 0.45 0.39 0.33 0.19 0.09 0.17 0.17 0.16 0.12 0.12 0.24 0.24 0.33 0.13 0.20 0.14 0.13 0.16 0.08 0.03 0.03 0.03 0.04 0.02 0.01 0.01 0.01 0.00 0.02 0.03 0.02 0.03 0.03 0.03 0.03 0.01 0.01 0.01
0.10 0.04 0.08 0.10 0.07 0.15 0.17 0.22 0.37 0.39 0.31 0.37 0.35 0.42 0.33 0.21 0.18 0.14 0.09 0.05 0.04 0.05 0.07 0.05 0.10 0.11 0.19 0.23 0.31 0.23 0.11 0.15 0.19 0.31 0.12 0.03 0.11 0.13 0.07 0.05 0.04 0.04 0.04 0.03 0.04 0.01 0.00 0.00 0.02 0.03 0.03 0.02 0.02 0.01
0.06 0.04 0.03 0.04 0.06 0.12 0.13 0.21 0.38 0.35 0.25 0.22 0.16 0.13 0.13 0.09 0.05 0.04 0.03 0.01 0.01 0.00 0.01 0.01 0.04 0.10 0.14 0.12 0.27 0.22 0.09 0.10 0.10 0.04 0.01 0.04 0.02 0.01 0.00 0.00 0.00 0.02 0.05 0.07 0.02 0.00 0.00 0.01 0.00 0.01 0.01 0.01 0.01 0.00
0.02 0.01 0.00 0.03 0.03 0.05 0.11 0.25 0.26 0.18 0.23 0.19 0.15 0.13 0.10 0.14 0.10 0.05 0.06 0.08 0.07 0.06 0.06 0.07 0.10 0.14 0.13 0.10 0.06 0.17 0.14 0.07 0.04 0.04 0.04 0.01 0.00 0.00 0.00 0.00 0.01 0.02 0.03 0.08 0.02 0.01 0.01 0.01 0.01 0.02 0.01 0.00 0.00 0.00
0.00 0.02 0.02 0.00 0.01 0.07 0.13 0.18 0.17 0.17 0.24 0.06 0.13 0.25 0.20 0.14 0.10 0.02 0.02 0.06 0.06 0.11 0.18 0.19 0.18 0.17 0.13 0.07 0.05 0.02 0.05 0.08 0.11 0.05 0.01 0.00 0.00 0.00 0.01 0.01 0.02 0.06 0.11 0.09 0.05 0.04 0.03 0.03 0.02 0.01 0.00 0.00 0.00 0.00
0.01 0.11 0.01 0.00 0.03 0.06 0.05 0.05 0.05 0.07 0.07 0.20 0.35 0.26 0.17 0.17 0.14 0.08 0.03 0.01 0.04 0.14 0.11 0.12 0.11 0.10 0.08 0.06 0.02 0.04 0.05 0.03 0.01 0.01 0.00 0.00 0.01 0.01 0.03 0.03 0.04 0.08 0.17 0.15 0.10 0.12 0.10 0.05 0.03 0.00 0.00 0.00 0.00 0.00
0.22 0.07 0.00 0.00 0.01 0.02 0.03 0.01 0.01 0.01 0.10 0.21 0.28 0.19 0.15 0.22 0.17 0.15 0.10 0.02 0.03 0.07 0.10 0.07 0.06 0.08 0.07 0.08 0.10 0.06 0.04 0.03 0.02 0.02 0.01 0.01 0.03 0.04 0.06 0.05 0.06 0.08 0.11 0.17 0.11 0.11 0.11 0.06 0.01 0.00 0.00 0.00 0.00 0.00
0.06 0.00 0.00 0.00 0.01 0.05 0.05 0.01 0.00 0.08 0.22 0.16 0.15 0.09 0.10 0.19 0.28 0.21 0.12 0.02 0.00 0.01 0.01 0.01 0.03 0.04 0.06 0.04 0.04 0.03 0.03 0.02 0.03 0.04 0.03 0.03 0.04 0.06 0.07 0.08 0.09 0.09 0.08 0.13 0.15 0.15 0.14 0.08 0.01 0.00 0.00 0.00 0.00 0.00
0.00 0.00 0.00 0.00 0.00 0.07 0.03 0.01 0.00 0.04 0.08 0.09 0.10 0.10 0.08 0.12 0.16 0.19 0.08 0.01 0.00 0.01 0.02 0.03 0.06 0.07 0.07 0.06 0.04 0.03 0.02 0.01 0.01 0.04 0.08 0.08 0.06 0.05 0.08 0.08 0.07 0.09 0.05 0.08 0.11 0.11 0.11 0.11 0.06 0.01 0.00 0.00 0.00 0.00
0.00 0.00 0.00 0.00 0.00 0.01 0.01 0.00 0.00 0.00 0.02 0.05 0.05 0.05 0.09 0.08 0.10 0.09 0.05 0.01 0.00 0.03 0.05 0.07 0.09 0.09 0.06 0.04 0.02 0.02 0.02 0.02 0.03 0.03 0.04 0.07 0.08 0.08 0.09 0.07 0.05 0.04 0.01 0.03 0.05 0.06 0.04 0.04 0.02 0.00 0.00 0.00 0.00 0.00
0.01 0.00 0.00 0.00 0.01 0.00 0.00 0.00 0.00 0.00 0.01 0.01 0.01 0.04 0.05 0.07 0.05 0.01 0.00 0.00 0.05 0.10 0.07 0.08 0.07 0.08 0.04 0.03 0.02 0.02 0.04 0.04 0.03 0.03 0.06 0.05 0.06 0.03 0.01 0.01 0.00 0.00 0.00 0.00 0.01 0.01 0.01 0.00 0.00 0.00 0.00 0.00 0.00 0.00
0.00 0.00 0.00 0.00 0.02 0.00 0.00 0.00 0.00 0.00 0.01 0.01 0.01 0.02 0.02 0.01 0.00 0.00 0.01 0.02 0.08 0.13 0.08 0.04 0.03 0.03 0.03 0.04 0.01 0.01 0.02 0.04 0.06 0.08 0.09 0.06 0.03 0.01 0.00 0.00 0.00 0.00 0.00 0.00 0.00 0.00 0.00 0.00 0.00 0.00 0.00 0.00 0.00 0.00
0.00 0.00 0.00 0.00 0.01 0.01 0.00 0.00 0.00 0.00 0.00 0.00 0.01 0.00 0.01 0.00 0.00 0.00 0.02 0.04 0.09 0.07 0.03 0.03 0.03 0.03 0.03 0.02 0.02 0.02 0.03 0.03 0.03 0.05 0.05 0.04 0.03 0.03 0.00 0.00 0.00 0.00 0.00 0.00 0.00 0.00 0.00 0.00 0.00 0.00 0.00 0.00 0.01 0.01
0.00 0.00 0.00 0.00 0.00 0.00 0.00 0.00 0.00 0.00 0.00 0.00 0.00 0.00 0.00 0.00 0.00 0.00 0.02 0.07 0.08 0.05 0.02 0.02 0.02 0.03 0.03 0.03 0.04 0.04 0.02 0.02 0.02 0.02 0.02 0.01 0.01 0.02 0.01 0.00 0.00 0.00 0.00 0.00 0.00 0.00 0.00 0.00 0.00 0.00 0.01 0.00 0.01 0.01
0.00 0.01 0.01 0.00 0.01 0.00 0.00 0.00 0.00 0.00 0.00 0.00 0.00 0.00 0.00 0.00 0.00 0.02 0.04 0.08 0.08 0.06 0.04 0.04 0.03 0.03 0.02 0.03 0.03 0.02 0.03 0.02 0.02 0.01 0.01 0.00 0.00 0.01 0.01 0.01 0.01 0.02 0.00 0.00 0.00 0.01 0.01 0.00 0.00 0.00 0.01 0.00 0.00 0.00
0.01 0.01 0.01 0.01 0.01 0.00 0.00 0.00 0.00 0.00 0.00 0.00 0.00 0.00 0.00 0.00 0.01 0.04 0.08 0.09 0.07 0.05 0.04 0.05 0.04 0.03 0.04 0.03 0.05 0.05 0.05 0.04 0.03 0.02 0.02 0.00 0.00 0.00 0.00 0.00 0.01 0.02 0.00 0.00 0.00 0.02 0.03 0.02 0.01 0.01 0.01 0.01 0.01 0.00
0.02 0.01 0.02 0.02 0.00 0.00 0.01 0.01 0.01 0.01 0.01 0.00 0.00 0.00 0.01 0.01 0.03 0.06 0.07 0.07 0.06 0.05 0.04 0.03 0.03 0.04 0.04 0.04 0.05 0.05 0.04 0.05 0.05 0.05 0.05 0.05 0.02 0.01 0.00 0.00 0.00 0.00 0.00 0.00 0.00 0.00 0.01 0.02 0.01 0.01 0.01 0.02 0.03 0.03
0.04 0.03 0.02 0.02 0.01 0.01 0.01 0.02 0.04 0.03 0.03 0.01 0.02 0.02 0.02 0.03 0.07 0.08 0.06 0.08 0.09 0.07 0.06 0.04 0.03 0.03 0.02 0.02 0.02 0.02 0.03 0.03 0.04 0.06 0.07 0.08 0.08 0.06 0.05 0.04 0.02 0.02 0.01 0.00 0.01 0.01 0.01 0.02 0.03 0.05 0.06 0.07 0.10 0.10
0.05 0.04 0.04 0.03 0.02 0.02 0.03 0.04 0.04 0.05 0.03 0.01 0.01 0.01 0.02 0.05 0.09 0.09 0.08 0.09 0.09 0.09 0.10 0.08 0.06 0.06 0.06 0.05 0.03 0.02 0.03 0.04 0.05 0.06 0.06 0.05 0.07 0.08 0.10 0.09 0.08 0.07 0.06 0.06 0.07 0.09 0.11 0.11 0.10 0.11 0.11 0.11 0.13 0.13
0.02 0.05 0.05 0.04 0.04 0.06 0.06 0.08 0.08 0.06 0.06 0.04 0.03 0.02 0.02 0.04 0.07 0.05 0.05 0.06 0.06 0.06 0.06 0.05 0.05 0.05 0.03 0.04 0.06 0.06 0.06 0.04 0.05 0.06 0.07 0.08 0.10 0.11 0.10 0.10 0.12 0.15 0.16 0.15 0.13 0.10 0.09 0.10 0.10 0.09 0.09 0.09 0.09 0.09
0.02 0.05 0.06 0.05 0.09 0.09 0.10 0.12 0.09 0.07 0.08 0.05 0.06 0.03 0.04 0.02 0.04 0.04 0.03 0.03 0.04 0.04 0.04 0.06 0.05 0.04 0.05 0.07 0.09 0.10 0.08 0.07 0.05 0.06 0.05 0.06 0.09 0.14 0.13 0.09 0.09 0.13 0.16 0.18 0.17 0.17 0.16 0.14 0.15 0.14 0.12 0.11 0.11 0.11
0.03 0.03 0.04 0.05 0.08 0.08 0.07 0.08 0.07 0.08 0.06 0.06 0.07 0.05 0.04 0.04 0.04 0.05 0.02 0.02 0.05 0.04 0.03 0.04 0.04 0.04 0.05 0.07 0.07 0.06 0.05 0.05 0.06 0.08 0.07 0.08 0.10 0.12 0.11 0.09 0.08 0.09 0.10 0.11 0.13 0.14 0.14 0.15 0.16 0.15 0.16 0.16 0.14 0.13

GFSWCAN_prec_precacc24_177.txt.gz
Total_Precipitation_Accumulation
0.04 0.05 0.07 0.05 0.04 0.02 0.01 0.02 0.05 0.07 0.09 0.10 0.11 0.15 0.15 0.12 0.20 0.51 0.45 0.32 0.38 0.46 0.12 0.03 0.08 0.18 0.27 0.44 0.59 0.49 0.55 0.52 0.56 0.37 0.25 0.18 0.09 0.03 0.03 0.00 0.01 0.12 0.35 0.38 0.34 0.35 0.14 0.00 0.01 0.03 0.02 0.01 0.02 0.04
0.06 0.05 0.04 0.06 0.05 0.03 0.02 0.01 0.02 0.03 0.05 0.08 0.13 0.19 0.21 0.16 0.15 0.21 0.28 0.20 0.46 0.84 0.35 0.03 0.01 0.04 0.15 0.21 0.26 0.61 0.72 0.38 0.31 0.33 0.17 0.07 0.10 0.18 0.13 0.08 0.04 0.04 0.04 0.09 0.30 0.29 0.06 0.02 0.05 0.06 0.09 0.17 0.21 0.16
0.04 0.06 0.07 0.04 0.03 0.03 0.02 0.03 0.04 0.07 0.09 0.14 0.15 0.16 0.29 0.35 0.26 0.19 0.27 0.33 0.54 0.74 0.41 0.07 0.02 0.00 0.00 0.01 0.03 0.12 0.12 0.12 0.17 0.23 0.35 0.32 0.23 0.08 0.11 0.07 0.08 0.05 0.03 0.05 0.06 0.01 0.01 0.03 0.03 0.02 0.04 0.09 0.13 0.16
0.02 0.02 0.04 0.04 0.04 0.05 0.07 0.10 0.10 0.10 0.10 0.12 0.15 0.19 0.23 0.34 0.44 0.45 0.35 0.44 0.42 0.41 0.23 0.03 0.00 0.00 0.00 0.00 0.00 0.00 0.01 0.06 0.11 0.15 0.33 0.35 0.27 0.18 0.13 0.10 0.08 0.05 0.07 0.13 0.10 0.05 0.02 0.02 0.05 0.09 0.07 0.06 0.09 0.21
0.02 0.02 0.03 0.05 0.09 0.11 0.10 0.12 0.13 0.11 0.11 0.11 0.13 0.17 0.20 0.26 0.39 0.59 0.57 0.36 0.12 0.15 0.18 0.24 0.06 0.02 0.01 0.00 0.01 0.00 0.01 0.04 0.09 0.24 0.43 0.32 0.26 0.30 0.17 0.14 0.06 0.03 0.04 0.06 0.05 0.04 0.08 0.13 0.14 0.12 0.17 0.12 0.04 0.05
0.04 0.02 0.03 0.06 0.12 0.15 0.15 0.14 0.17 0.21 0.21 0.21 0.27 0.24 0.18 0.26 0.51 1.55 1.73 0.91 0.32 0.11 0.30 0.27 0.15 0.07 0.03 0.02 0.02 0.02 0.03 0.06 0.10 0.17 0.25 0.23 0.22 0.41 0.35 0.14 0.02 0.01 0.01 0.02 0.03 0.03 0.06 0.14 0.27 0.24 0.10 0.04 0.04 0.02
0.04 0.03 0.05 0.10 0.12 0.15 0.20 0.27 0.30 0.35 0.31 0.24 0.23 0.31 0.28 0.36 0.77 1.31 0.59 0.29 0.23 0.31 0.65 0.28 0.10 0.08 0.05 0.08 0.08 0.11 0.12 0.14 0.15 0.17 0.13 0.09 0.16 0.49 0.38 0.07 0.02 0.04 0.02 0.06 0.07 0.04 0.07 0.07 0.11 0.08 0.04 0.02 0.01 0.01
0.04 0.05 0.10 0.14 0.18 0.17 0.28 0.38 0.41 0.54 0.61 0.54 0.46 0.34 0.39 0.65 0.92 0.60 0.10 0.04 0.15 0.48 0.55 0.29 0.15 0.30 0.17 0.15 0.13 0.14 0.19 0.24 0.27 0.19 0.09 0.07 0.05 0.19 0.15 0.01 0.00 0.00 0.00 0.01 0.15 0.09 0.05 0.08 0.08 0.04 0.01 0.00 0.01 0.00
0.06 0.09 0.11 0.13 0.13 0.12 0.19 0.32 0.46 0.58 0.60 0.76 0.77 1.08 1.68 2.00 1.49 0.46 0.11 0.17 0.37 0.68 0.56 0.23 0.08 0.22 0.14 0.14 0.16 0.20 0.29 0.25 0.20 0.22 0.08 0.10 0.12 0.11 0.00 0.00 0.00 0.00 0.00 0.00 0.02 0.09 0.05 0.09 0.08 0.02 0.01 0.00 0.01 0.01
0.08 0.10 0.09 0.06 0.04 0.05 0.16 0.29 0.33 0.50 0.60 0.79 1.47 1.83 1.64 0.75 0.20 0.51 1.36 1.39 1.15 0.68 0.34 0.30 0.05 0.22 0.32 0.22 0.38 0.34 0.44 0.20 0.15 0.08 0.11 0.16 0.04 0.00 0.01 0.00 0.00 0.00 0.00 0.01 0.05 0.14 0.12 0.09 0.06 0.02 0.00 0.00 0.01 0.02
0.13 0.11 0.03 0.03 0.08 0.17 0.32 0.33 0.39 0.64 0.72 0.92 1.02 0.85 0.69 0.32 0.33 0.58 0.78 0.57 0.40 0.35 0.13 0.14 0.06 0.09 0.14 0.23 0.21 0.17 0.21 0.18 0.16 0.09 0.06 0.05 0.02 0.04 0.03 0.00 0.00 0.00 0.00 0.01 0.01 0.03 0.02 0.01 0.01 0.02 0.02 0.00 0.01 0.03
0.13 0.04 0.04 0.14 0.14 0.16 0.27 0.35 0.42 0.63 0.44 0.35 0.51 0.89 0.99 0.75 0.66 0.47 0.36 0.16 0.05 0.06 0.05 0.08 0.07 0.11 0.23 0.24 0.35 0.17 0.24 0.18 0.14 0.17 0.11 0.03 0.03 0.08 0.06 0.02 0.01 0.01 0.01 0.00 0.02 0.03 0.02 0.03 0.03 0.04 0.03 0.01 0.01 0.03
0.04 0.02 0.06 0.10 0.07 0.15 0.19 0.29 0.51 0.61 0.63 0.76 0.70 0.69 0.47 0.32 0.29 0.20 0.11 0.04 0.02 0.04 0.04 0.05 0.09 0.10 0.19 0.31 0.39 0.37 0.18 0.16 0.22 0.48 0.17 0.03 0.12 0.35 0.16 0.07 0.05 0.04 0.04 0.04 0.04 0.01 0.00 0.00 0.02 0.03 0.03 0.02 0.02 0.02
0.00 0.00 0.02 0.05 0.07 0.14 0.17 0.33 0.66 0.78 0.62 0.46 0.30 0.27 0.17 0.16 0.04 0.04 0.03 0.01 0.01 0.00 0.01 0.01 0.04 0.10 0.14 0.15 0.32 0.26 0.12 0.12 0.14 0.09 0.04 0.03 0.03 0.02 0.00 0.00 0.00 0.02 0.05 0.07 0.02 0.00 0.00 0.01 0.00 0.01 0.01 0.01 0.01 0.01
0.00 0.00 0.01 0.03 0.04 0.07 0.15 0.36 0.58 0.45 0.48 0.45 0.23 0.16 0.06 0.11 0.09 0.06 0.07 0.11 0.09 0.12 0.15 0.11 0.10 0.15 0.16 0.11 0.07 0.17 0.16 0.10 0.09 0.16 0.10 0.08 0.08 0.05 0.00 0.00 0.01 0.02 0.03 0.08 0.02 0.01 0.01 0.01 0.01 0.02 0.01 0.00 0.00 0.01
0.00 0.03 0.03 0.01 0.03 0.10 0.22 0.33 0.53 0.46 0.45 0.22 0.19 0.21 0.22 0.16 0.08 0.03 0.04 0.09 0.11 0.23 0.43 0.29 0.21 0.17 0.16 0.09 0.06 0.02 0.06 0.08 0.13 0.07 0.02 0.01 0.01 0.00 0.01 0.01 0.03 0.06 0.11 0.09 0.06 0.06 0.06 0.06 0.05 0.04 0.03 0.02 0.01 0.01
0.03 0.12 0.02 0.03 0.07 0.21 0.21 0.20 0.24 0.30 0.21 0.20 0.21 0.14 0.09 0.11 0.09 0.07 0.03 0.02 0.09 0.25 0.24 0.14 0.11 0.11 0.09 0.06 0.03 0.04 0.05 0.03 0.02 0.03 0.02 0.00 0.01 0.01 0.03 0.03 0.04 0.08 0.17 0.16 0.11 0.14 0.13 0.11 0.10 0.07 0.04 0.03 0.01 0.01
0.24 0.08 0.00 0.01 0.06 0.14 0.22 0.14 0.19 0.11 0.10 0.11 0.15 0.15 0.15 0.23 0.19 0.16 0.10 0.02 0.04 0.14 0.29 0.22 0.08 0.09 0.08 0.08 0.10 0.06 0.03 0.03 0.02 0.02 0.01 0.01 0.03 0.04 0.06 0.06 0.06 0.08 0.12 0.19 0.13 0.13 0.14 0.09 0.05 0.04 0.04 0.02 0.00 0.00
0.06 0.00 0.00 0.00 0.10 0.18 0.13 0.05 0.07 0.10 0.15 0.12 0.13 0.09 0.10 0.19 0.29 0.22 0.14 0.02 0.00 0.01 0.04 0.08 0.06 0.05 0.05 0.04 0.04 0.02 0.02 0.01 0.02 0.03 0.03 0.03 0.04 0.06 0.08 0.08 0.09 0.10 0.09 0.14 0.16 0.16 0.16 0.12 0.07 0.06 0.04 0.02 0.00 0.00
0.00 0.00 0.00 0.00 0.03 0.15 0.15 0.02 0.01 0.05 0.08 0.09 0.10 0.10 0.08 0.12 0.16 0.20 0.13 0.10 0.04 0.06 0.04 0.04 0.06 0.06 0.07 0.06 0.04 0.03 0.02 0.01 0.01 0.03 0.07 0.07 0.06 0.06 0.09 0.09 0.09 0.10 0.07 0.10 0.14 0.13 0.14 0.15 0.14 0.07 0.03 0.00 0.00 0.00
0.00 0.00 0.00 0.00 0.01 0.03 0.05 0.01 0.00 0.01 0.02 0.05 0.05 0.05 0.09 0.09 0.10 0.10 0.08 0.05 0.06 0.07 0.06 0.07 0.08 0.08 0.06 0.04 0.02 0.02 0.02 0.02 0.03 0.04 0.04 0.06 0.09 0.08 0.10 0.10 0.09 0.06 0.02 0.03 0.07 0.09 0.07 0.13 0.17 0.14 0.06 0.00 0.00 0.00
0.01 0.00 0.00 0.00 0.02 0.05 0.03 0.00 0.00 0.00 0.02 0.02 0.02 0.04 0.06 0.07 0.05 0.01 0.01 0.02 0.05 0.08 0.07 0.07 0.06 0.07 0.04 0.03 0.02 0.02 0.04 0.04 0.03 0.04 0.06 0.05 0.05 0.03 0.02 0.03 0.02 0.01 0.00 0.01 0.01 0.02 0.04 0.06 0.09 0.09 0.04 0.00 0.00 0.00
0.00 0.00 0.00 0.02 0.06 0.01 0.00 0.00 0.00 0.00 0.01 0.01 0.02 0.04 0.04 0.02 0.00 0.00 0.01 0.02 0.06 0.10 0.07 0.04 0.03 0.03 0.03 0.04 0.01 0.01 0.03 0.05 0.07 0.09 0.11 0.07 0.03 0.01 0.00 0.00 0.00 0.00 0.00 0.01 0.00 0.00 0.00 0.01 0.01 0.00 0.00 0.00 0.00 0.00
0.00 0.00 0.00 0.01 0.02 0.02 0.01 0.00 0.01 0.01 0.00 0.01 0.01 0.01 0.01 0.00 0.00 0.01 0.02 0.03 0.07 0.06 0.03 0.02 0.03 0.04 0.04 0.01 0.02 0.02 0.04 0.03 0.04 0.07 0.07 0.04 0.04 0.03 0.01 0.01 0.00 0.00 0.00 0.00 0.00 0.00 0.00 0.00 0.00 0.00 0.01 0.01 0.01 0.01
0.00 0.00 0.00 0.00 0.00 0.00 0.00 0.00 0.00 0.00 0.00 0.00 0.00 0.00 0.00 0.00 0.00 0.01 0.01 0.03 0.04 0.03 0.02 0.02 0.03 0.04 0.03 0.03 0.04 0.04 0.03 0.02 0.03 0.02 0.04 0.02 0.02 0.02 0.02 0.01 0.01 0.01 0.01 0.00 0.01 0.01 0.01 0.01 0.00 0.01 0.01 0.01 0.01 0.01
0.00 0.00 0.00 0.01 0.01 0.01 0.01 0.01 0.00 0.00 0.00 0.00 0.00 0.00 0.00 0.00 0.00 0.01 0.02 0.06 0.06 0.04 0.03 0.04 0.03 0.04 0.03 0.02 0.02 0.02 0.04 0.03 0.02 0.01 0.02 0.00 0.01 0.01 0.01 0.01 0.02 0.02 0.00 0.00 0.01 0.01 0.01 0.01 0.01 0.01 0.01 0.01 0.01 0.02
0.00 0.00 0.01 0.01 0.01 0.00 0.00 0.00 0.00 0.01 0.01 0.00 0.00 0.00 0.00 0.00 0.00 0.02 0.06 0.08 0.06 0.05 0.04 0.05 0.03 0.02 0.03 0.03 0.03 0.04 0.04 0.04 0.03 0.02 0.02 0.00 0.00 0.00 0.00 0.00 0.01 0.03 0.01 0.00 0.01 0.03 0.04 0.02 0.01 0.01 0.01 0.02 0.01 0.01
0.01 0.01 0.02 0.02 0.00 0.00 0.01 0.01 0.01 0.01 0.01 0.01 0.03 0.01 0.00 0.00 0.02 0.04 0.05 0.05 0.07 0.06 0.05 0.03 0.02 0.02 0.02 0.02 0.02 0.02 0.02 0.03 0.04 0.03 0.03 0.03 0.01 0.01 0.01 0.01 0.00 0.00 0.00 0.00 0.00 0.01 0.02 0.04 0.02 0.02 0.02 0.02 0.03 0.04
0.05 0.03 0.01 0.01 0.00 0.01 0.01 0.02 0.03 0.02 0.02 0.01 0.02 0.02 0.02 0.02 0.04 0.05 0.03 0.04 0.05 0.05 0.05 0.04 0.03 0.02 0.02 0.03 0.01 0.01 0.01 0.02 0.04 0.04 0.06 0.07 0.06 0.04 0.04 0.03 0.03 0.03 0.02 0.01 0.01 0.01 0.02 0.03 0.04 0.06 0.06 0.07 0.10 0.11
0.05 0.03 0.03 0.02 0.01 0.02 0.03 0.03 0.04 0.03 0.01 0.00 0.00 0.00 0.01 0.03 0.04 0.04 0.05 0.06 0.06 0.07 0.07 0.05 0.04 0.05 0.05 0.04 0.03 0.02 0.03 0.03 0.04 0.04 0.04 0.04 0.05 0.06 0.08 0.07 0.08 0.08 0.08 0.07 0.08 0.08 0.09 0.09 0.10 0.11 0.12 0.12 0.14 0.14
0.02 0.04 0.04 0.03 0.03 0.04 0.04 0.05 0.04 0.03 0.02 0.01 0.01 0.01 0.01 0.03 0.04 0.03 0.03 0.03 0.05 0.05 0.06 0.05 0.05 0.05 0.03 0.03 0.03 0.03 0.03 0.02 0.03 0.04 0.04 0.05 0.08 0.09 0.09 0.08 0.10 0.11 0.12 0.11 0.11 0.09 0.08 0.09 0.09 0.09 0.09 0.09 0.09 0.09
0.02 0.05 0.06 0.05 0.07 0.07 0.06 0.08 0.06 0.04 0.04 0.03 0.03 0.02 0.03 0.02 0.02 0.02 0.02 0.02 0.04 0.05 0.06 0.05 0.04 0.04 0.04 0.05 0.04 0.04 0.04 0.03 0.03 0.04 0.03 0.03 0.05 0.07 0.08 0.06 0.07 0.09 0.11 0.12 0.13 0.14 0.15 0.14 0.15 0.14 0.12 0.12 0.11 0.11
0.02 0.03 0.04 0.05 0.08 0.07 0.07 0.07 0.07 0.07 0.06 0.05 0.05 0.03 0.03 0.03 0.03 0.04 0.02 0.02 0.06 0.05 0.04 0.04 0.05 0.06 0.06 0.06 0.05 0.05 0.05 0.05 0.05 0.05 0.03 0.04 0.05 0.06 0.06 0.05 0.05 0.05 0.06 0.08 0.10 0.11 0.12 0.12 0.14 0.14 0.15 0.16 0.16 0.15

GFSWCAN_prec_precacc24_180.txt.gz
Total_Precipitation_Accumulation
0.03 0.04 0.08 0.06 0.05 0.03 0.00 0.01 0.03 0.06 0.07 0.08 0.09 0.12 0.12 0.10 0.22 0.43 0.41 0.28 0.33 0.37 0.10 0.03 0.08 0.18 0.27 0.45 0.62 0.51 0.61 0.55 0.56 0.37 0.21 0.16 0.09 0.02 0.03 0.00 0.01 0.12 0.35 0.37 0.32 0.36 0.14 0.00 0.01 0.03 0.02 0.01 0.02 0.04
0.06 0.05 0.05 0.06 0.04 0.03 0.01 0.01 0.01 0.02 0.03 0.05 0.09 0.10 0.11 0.12 0.16 0.17 0.25 0.18 0.45 0.79 0.31 0.03 0.01 0.04 0.15 0.21 0.29 0.69 0.87 0.62 0.69 0.62 0.37 0.15 0.10 0.12 0.09 0.06 0.04 0.04 0.04 0.09 0.29 0.28 0.06 0.02 0.05 0.06 0.09 0.17 0.21 0.16
0.05 0.07 0.06 0.03 0.03 0.03 0.01 0.02 0.01 0.01 0.03 0.06 0.07 0.08 0.18 0.22 0.19 0.16 0.26 0.33 0.61 0.74 0.37 0.05 0.01 0.00 0.00 0.01 0.04 0.24 0.18 0.26 0.31 0.35 0.46 0.45 0.28 0.08 0.04 0.03 0.07 0.05 0.03 0.05 0.06 0.01 0.01 0.03 0.03 0.02 0.04 0.09 0.13 0.16
0.02 0.02 0.03 0.04 0.03 0.04 0.05 0.05 0.04 0.04 0.04 0.07 0.10 0.14 0.19 0.28 0.37 0.35 0.28 0.44 0.50 0.53 0.23 0.02 0.00 0.00 0.00 0.00 0.00 0.01 0.01 0.04 0.10 0.13 0.28 0.35 0.29 0.20 0.15 0.10 0.08 0.05 0.07 0.13 0.10 0.05 0.02 0.02 0.05 0.09 0.07 0.06 0.09 0.21
0.02 0.02 0.03 0.05 0.06 0.06 0.05 0.07 0.08 0.06 0.07 0.07 0.08 0.11 0.16 0.24 0.33 0.41 0.34 0.27 0.11 0.17 0.19 0.24 0.06 0.02 0.01 0.00 0.01 0.00 0.01 0.03 0.08 0.18 0.33 0.25 0.22 0.28 0.16 0.13 0.05 0.03 0.04 0.06 0.05 0.04 0.08 0.13 0.14 0.12 0.17 0.10 0.04 0.05
0.04 0.02 0.02 0.03 0.04 0.07 0.10 0.11 0.13 0.14 0.13 0.12 0.12 0.10 0.11 0.20 0.38 1.10 1.25 0.60 0.21 0.07 0.25 0.25 0.15 0.07 0.03 0.02 0.02 0.02 0.03 0.06 0.09 0.14 0.18 0.20 0.20 0.38 0.32 0.13 0.02 0.01 0.01 0.02 0.03 0.03 0.06 0.14 0.24 0.22 0.08 0.04 0.04 0.02
0.04 0.03 0.02 0.02 0.05 0.09 0.13 0.15 0.17 0.20 0.19 0.15 0.14 0.19 0.20 0.25 0.58 1.04 0.50 0.21 0.09 0.17 0.48 0.24 0.09 0.08 0.05 0.06 0.06 0.09 0.11 0.14 0.15 0.17 0.13 0.08 0.14 0.43 0.33 0.07 0.02 0.04 0.02 0.06 0.07 0.04 0.06 0.06 0.07 0.07 0.04 0.02 0.01 0.01
0.04 0.03 0.03 0.08 0.12 0.11 0.16 0.23 0.24 0.32 0.40 0.38 0.30 0.26 0.31 0.49 0.76 0.52 0.09 0.04 0.13 0.35 0.36 0.24 0.14 0.29 0.17 0.14 0.12 0.12 0.18 0.23 0.24 0.17 0.09 0.07 0.05 0.16 0.09 0.00 0.00 0.00 0.00 0.01 0.15 0.09 0.05 0.07 0.08 0.04 0.01 0.00 0.01 0.00
0.04 0.04 0.06 0.10 0.09 0.06 0.08 0.18 0.26 0.37 0.47 0.63 0.67 0.91 1.32 1.59 1.22 0.34 0.09 0.16 0.35 0.62 0.48 0.21 0.08 0.21 0.12 0.13 0.15 0.18 0.29 0.24 0.16 0.15 0.05 0.10 0.09 0.08 0.00 0.00 0.00 0.00 0.00 0.00 0.02 0.08 0.04 0.09 0.08 0.02 0.01 0.00 0.01 0.01
0.04 0.06 0.07 0.05 0.02 0.03 0.16 0.25 0.27 0.39 0.49 0.76 1.43 1.72 1.42 0.62 0.16 0.42 1.20 1.22 1.00 0.57 0.29 0.29 0.05 0.20 0.29 0.20 0.33 0.29 0.38 0.18 0.13 0.05 0.08 0.13 0.02 0.00 0.01 0.01 0.00 0.00 0.00 0.01 0.05 0.12 0.11 0.09 0.06 0.02 0.00 0.00 0.01 0.02
0.11 0.10 0.03 0.03 0.08 0.17 0.32 0.32 0.38 0.63 0.70 0.92 1.00 0.66 0.40 0.19 0.31 0.54 0.68 0.49 0.31 0.28 0.06 0.11 0.06 0.08 0.13 0.22 0.20 0.16 0.19 0.16 0.14 0.06 0.05 0.03 0.01 0.04 0.06 0.06 0.01 0.00 0.00 0.01 0.01 0.03 0.02 0.01 0.01 0.02 0.02 0.00 0.01 0.03
0.11 0.04 0.05 0.15 0.15 0.16 0.27 0.35 0.41 0.62 0.43 0.35 0.50 0.84 0.96 0.79 0.71 0.50 0.33 0.14 0.06 0.05 0.02 0.04 0.04 0.09 0.20 0.23 0.32 0.15 0.24 0.19 0.14 0.19 0.14 0.04 0.03 0.07 0.10 0.07 0.01 0.01 0.01 0.00 0.02 0.03 0.02 0.03 0.03 0.04 0.03 0.01 0.01 0.03
0.04 0.02 0.06 0.10 0.07 0.15 0.19 0.29 0.52 0.62 0.65 0.78 0.73 0.75 0.55 0.37 0.33 0.23 0.11 0.04 0.02 0.03 0.03 0.04 0.06 0.10 0.17 0.31 0.38 0.36 0.20 0.17 0.23 0.50 0.18 0.03 0.12 0.40 0.26 0.10 0.05 0.04 0.04 0.04 0.05 0.01 0.00 0.00 0.02 0.03 0.03 0.02 0.02 0.02
0.00 0.00 0.02 0.05 0.07 0.14 0.18 0.34 0.73 0.99 0.83 0.53 0.35 0.30 0.18 0.17 0.04 0.04 0.03 0.01 0.01 0.00 0.02 0.04 0.05 0.10 0.14 0.16 0.34 0.29 0.13 0.13 0.15 0.11 0.04 0.03 0.03 0.03 0.00 0.00 0.00 0.02 0.05 0.08 0.02 0.00 0.00 0.01 0.00 0.01 0.01 0.01 0.01 0.01
0.00 0.00 0.01 0.03 0.04 0.07 0.16 0.43 0.79 0.72 0.64 0.57 0.31 0.18 0.05 0.10 0.09 0.06 0.08 0.11 0.10 0.17 0.34 0.40 0.22 0.16 0.18 0.15 0.09 0.18 0.17 0.12 0.10 0.16 0.10 0.08 0.08 0.05 0.00 0.00 0.01 0.02 0.03 0.08 0.02 0.01 0.01 0.01 0.01 0.02 0.01 0.00 0.00 0.01
0.00 0.03 0.03 0.01 0.03 0.11 0.24 0.40 0.69 0.64 0.66 0.31 0.22 0.19 0.19 0.15 0.07 0.03 0.05 0.13 0.15 0.29 0.61 0.57 0.31 0.18 0.17 0.09 0.07 0.02 0.06 0.09 0.13 0.07 0.02 0.01 0.01 0.00 0.01 0.01 0.03 0.06 0.11 0.09 0.06 0.07 0.07 0.07 0.05 0.04 0.03 0.02 0.02 0.03
0.03 0.13 0.02 0.03 0.09 0.25 0.27 0.32 0.38 0.47 0.31 0.24 0.18 0.13 0.08 0.09 0.07 0.06 0.05 0.04 0.11 0.31 0.30 0.19 0.14 0.11 0.09 0.07 0.03 0.04 0.04 0.03 0.02 0.03 0.02 0.00 0.01 0.01 0.03 0.03 0.04 0.09 0.17 0.16 0.12 0.14 0.14 0.12 0.11 0.08 0.07 0.06 0.05 0.04
0.25 0.08 0.00 0.01 0.08 0.19 0.30 0.22 0.29 0.17 0.10 0.05 0.09 0.11 0.14 0.22 0.19 0.16 0.10 0.02 0.06 0.17 0.36 0.31 0.13 0.10 0.07 0.08 0.10 0.06 0.03 0.02 0.02 0.01 0.01 0.01 0.03 0.04 0.06 0.06 0.07 0.08 0.12 0.19 0.14 0.14 0.15 0.11 0.07 0.06 0.06 0.04 0.02 0.02
0.06 0.00 0.00 0.00 0.13 0.27 0.23 0.12 0.11 0.16 0.09 0.09 0.12 0.09 0.10 0.19 0.29 0.22 0.14 0.04 0.05 0.03 0.08 0.13 0.17 0.09 0.05 0.03 0.03 0.02 0.02 0.01 0.01 0.02 0.02 0.03 0.04 0.06 0.08 0.08 0.10 0.10 0.09 0.15 0.17 0.17 0.17 0.12 0.07 0.07 0.06 0.05 0.05 0.03
0.00 0.00 0.00 0.00 0.04 0.24 0.20 0.05 0.02 0.05 0.08 0.09 0.10 0.10 0.08 0.12 0.16 0.20 0.13 0.13 0.09 0.14 0.08 0.05 0.05 0.05 0.05 0.05 0.04 0.03 0.02 0.01 0.01 0.02 0.05 0.06 0.05 0.06 0.09 0.10 0.09 0.11 0.07 0.11 0.14 0.14 0.14 0.16 0.15 0.09 0.07 0.05 0.02 0.00
0.00 0.00 0.00 0.00 0.01 0.05 0.06 0.02 0.02 0.01 0.02 0.05 0.05 0.05 0.09 0.09 0.11 0.11 0.08 0.06 0.10 0.11 0.06 0.05 0.06 0.06 0.05 0.04 0.02 0.02 0.02 0.02 0.03 0.04 0.04 0.05 0.09 0.08 0.10 0.11 0.10 0.06 0.02 0.04 0.07 0.09 0.08 0.14 0.20 0.18 0.08 0.01 0.00 0.00
0.01 0.00 0.00 0.00 0.02 0.06 0.05 0.00 0.01 0.01 0.02 0.02 0.02 0.04 0.06 0.08 0.05 0.01 0.01 0.02 0.04 0.06 0.05 0.06 0.05 0.06 0.04 0.02 0.02 0.02 0.04 0.04 0.03 0.04 0.06 0.05 0.05 0.03 0.02 0.04 0.03 0.02 0.01 0.01 0.02 0.03 0.05 0.10 0.14 0.15 0.09 0.01 0.00 0.00
0.00 0.00 0.01 0.04 0.10 0.04 0.01 0.00 0.01 0.00 0.01 0.01 0.02 0.05 0.04 0.02 0.00 0.00 0.01 0.02 0.04 0.08 0.06 0.03 0.03 0.03 0.03 0.03 0.01 0.01 0.03 0.05 0.07 0.10 0.11 0.07 0.03 0.01 0.00 0.00 0.00 0.00 0.01 0.01 0.01 0.01 0.01 0.02 0.02 0.02 0.01 0.00 0.00 0.00
0.00 0.00 0.01 0.02 0.04 0.03 0.02 0.01 0.01 0.01 0.02 0.01 0.02 0.01 0.01 0.00 0.00 0.02 0.03 0.02 0.05 0.04 0.02 0.02 0.03 0.03 0.04 0.02 0.02 0.02 0.04 0.03 0.05 0.09 0.08 0.05 0.04 0.03 0.01 0.01 0.01 0.01 0.00 0.00 0.00 0.00 0.00 0.00 0.00 0.00 0.01 0.01 0.01 0.01
0.01 0.01 0.02 0.02 0.01 0.01 0.01 0.00 0.00 0.01 0.01 0.00 0.00 0.00 0.00 0.00 0.00 0.01 0.01 0.02 0.03 0.03 0.02 0.02 0.03 0.04 0.03 0.03 0.04 0.04 0.03 0.03 0.04 0.04 0.06 0.04 0.03 0.03 0.02 0.02 0.01 0.01 0.02 0.01 0.01 0.01 0.01 0.01 0.01 0.01 0.01 0.01 0.02 0.02
0.00 0.00 0.01 0.01 0.02 0.01 0.01 0.01 0.01 0.01 0.01 0.00 0.00 0.00 0.00 0.00 0.00 0.00 0.02 0.05 0.05 0.04 0.04 0.04 0.04 0.05 0.04 0.02 0.02 0.02 0.04 0.04 0.03 0.03 0.04 0.02 0.02 0.02 0.02 0.01 0.02 0.02 0.01 0.00 0.02 0.01 0.02 0.02 0.01 0.01 0.01 0.02 0.02 0.02
0.00 0.00 0.01 0.01 0.01 0.00 0.01 0.00 0.01 0.01 0.01 0.01 0.00 0.00 0.00 0.01 0.00 0.01 0.05 0.06 0.05 0.05 0.05 0.05 0.05 0.05 0.04 0.03 0.03 0.03 0.04 0.04 0.03 0.02 0.03 0.01 0.00 0.00 0.00 0.01 0.01 0.03 0.01 0.00 0.01 0.03 0.04 0.03 0.02 0.01 0.01 0.02 0.02 0.02
0.01 0.01 0.01 0.02 0.00 0.01 0.01 0.01 0.01 0.01 0.01 0.01 0.04 0.02 0.01 0.00 0.01 0.03 0.04 0.05 0.06 0.05 0.05 0.03 0.03 0.03 0.03 0.04 0.03 0.02 0.02 0.03 0.04 0.03 0.02 0.02 0.01 0.01 0.01 0.01 0.01 0.00 0.00 0.00 0.01 0.01 0.02 0.04 0.02 0.02 0.02 0.03 0.04 0.04
0.05 0.03 0.01 0.01 0.01 0.01 0.01 0.02 0.03 0.02 0.02 0.01 0.03 0.02 0.02 0.01 0.03 0.04 0.02 0.03 0.03 0.04 0.05 0.04 0.04 0.03 0.04 0.03 0.02 0.01 0.02 0.03 0.04 0.04 0.06 0.06 0.06 0.04 0.03 0.03 0.03 0.03 0.02 0.01 0.01 0.01 0.01 0.02 0.04 0.06 0.06 0.07 0.10 0.10
0.04 0.02 0.02 0.02 0.01 0.01 0.03 0.02 0.04 0.03 0.02 0.01 0.01 0.00 0.01 0.02 0.03 0.03 0.04 0.05 0.05 0.07 0.07 0.05 0.05 0.06 0.06 0.04 0.03 0.03 0.03 0.03 0.04 0.04 0.03 0.03 0.03 0.03 0.05 0.05 0.06 0.07 0.07 0.06 0.06 0.06 0.06 0.07 0.08 0.09 0.09 0.11 0.13 0.14
0.02 0.03 0.03 0.02 0.03 0.03 0.03 0.04 0.03 0.03 0.02 0.01 0.01 0.01 0.01 0.02 0.03 0.02 0.03 0.03 0.04 0.04 0.05 0.05 0.05 0.05 0.04 0.03 0.03 0.04 0.04 0.02 0.03 0.03 0.03 0.04 0.05 0.06 0.06 0.05 0.06 0.07 0.09 0.08 0.09 0.08 0.08 0.07 0.07 0.07 0.08 0.08 0.09 0.10
0.02 0.04 0.05 0.05 0.07 0.06 0.05 0.06 0.05 0.04 0.03 0.02 0.02 0.02 0.02 0.02 0.02 0.02 0.02 0.02 0.04 0.05 0.06 0.05 0.04 0.04 0.04 0.05 0.04 0.03 0.03 0.03 0.03 0.03 0.03 0.03 0.04 0.05 0.06 0.04 0.04 0.06 0.07 0.08 0.09 0.11 0.12 0.12 0.13 0.13 0.12 0.11 0.11 0.11
0.02 0.02 0.03 0.05 0.07 0.06 0.05 0.06 0.05 0.06 0.05 0.04 0.04 0.03 0.03 0.04 0.05 0.05 0.02 0.03 0.06 0.06 0.05 0.06 0.06 0.06 0.07 0.07 0.06 0.05 0.05 0.05 0.04 0.03 0.02 0.02 0.03 0.03 0.03 0.03 0.03 0.04 0.04 0.06 0.07 0.08 0.09 0.09 0.11 0.12 0.13 0.14 0.14 0.14

GFSWCAN_prec_precacc24_183.txt.gz
Total_Precipitation_Accumulation
0.03 0.03 0.06 0.07 0.05 0.03 0.00 0.00 0.03 0.05 0.06 0.07 0.08 0.12 0.11 0.10 0.24 0.41 0.39 0.27 0.30 0.32 0.09 0.03 0.08 0.18 0.27 0.45 0.62 0.51 0.62 0.56 0.61 0.47 0.31 0.16 0.07 0.02 0.03 0.00 0.01 0.11 0.35 0.40 0.37 0.42 0.16 0.00 0.01 0.03 0.02 0.01 0.02 0.04
0.05 0.04 0.03 0.05 0.04 0.03 0.01 0.01 0.01 0.02 0.02 0.04 0.07 0.09 0.10 0.10 0.18 0.13 0.23 0.17 0.44 0.71 0.24 0.03 0.01 0.04 0.15 0.21 0.31 0.72 0.88 0.64 0.87 0.85 0.50 0.29 0.21 0.15 0.09 0.05 0.02 0.02 0.02 0.07 0.26 0.28 0.06 0.02 0.04 0.06 0.09 0.17 0.21 0.16
0.04 0.06 0.05 0.03 0.03 0.03 0.01 0.01 0.00 0.00 0.01 0.05 0.06 0.05 0.16 0.20 0.19 0.10 0.23 0.32 0.57 0.67 0.28 0.04 0.01 0.00 0.00 0.01 0.04 0.32 0.20 0.31 0.45 0.53 0.48 0.43 0.31 0.18 0.13 0.07 0.07 0.04 0.01 0.05 0.05 0.01 0.01 0.02 0.03 0.02 0.04 0.09 0.13 0.16
0.03 0.02 0.03 0.03 0.03 0.03 0.04 0.04 0.02 0.02 0.02 0.04 0.06 0.08 0.11 0.21 0.30 0.21 0.16 0.39 0.48 0.48 0.18 0.00 0.00 0.00 0.00 0.00 0.00 0.01 0.01 0.02 0.09 0.12 0.27 0.25 0.22 0.22 0.17 0.12 0.09 0.05 0.07 0.13 0.10 0.05 0.02 0.01 0.05 0.09 0.07 0.06 0.09 0.21
0.02 0.01 0.02 0.04 0.05 0.05 0.03 0.05 0.05 0.03 0.02 0.02 0.03 0.05 0.08 0.14 0.25 0.23 0.32 0.26 0.11 0.16 0.17 0.22 0.06 0.02 0.01 0.00 0.01 0.00 0.01 0.03 0.08 0.17 0.23 0.14 0.15 0.25 0.15 0.13 0.05 0.03 0.04 0.06 0.05 0.04 0.07 0.13 0.14 0.12 0.17 0.10 0.04 0.05
0.04 0.02 0.01 0.03 0.03 0.04 0.04 0.04 0.05 0.07 0.07 0.05 0.05 0.04 0.07 0.14 0.22 0.57 0.67 0.33 0.18 0.07 0.23 0.13 0.12 0.06 0.03 0.02 0.02 0.02 0.03 0.06 0.09 0.12 0.15 0.10 0.11 0.32 0.30 0.13 0.02 0.01 0.01 0.02 0.03 0.03 0.06 0.14 0.24 0.22 0.08 0.03 0.04 0.02
0.04 0.03 0.02 0.02 0.02 0.01 0.03 0.06 0.09 0.10 0.10 0.08 0.07 0.08 0.09 0.13 0.35 0.79 0.37 0.11 0.06 0.17 0.39 0.15 0.06 0.06 0.05 0.06 0.06 0.09 0.11 0.14 0.15 0.16 0.12 0.07 0.11 0.34 0.26 0.06 0.02 0.04 0.02 0.06 0.07 0.04 0.06 0.06 0.06 0.05 0.03 0.02 0.01 0.01
0.04 0.02 0.02 0.02 0.02 0.03 0.04 0.09 0.14 0.19 0.21 0.25 0.22 0.17 0.19 0.31 0.55 0.43 0.09 0.04 0.12 0.24 0.23 0.15 0.07 0.22 0.15 0.13 0.11 0.10 0.15 0.20 0.20 0.15 0.08 0.06 0.04 0.15 0.10 0.00 0.00 0.00 0.00 0.01 0.15 0.09 0.05 0.05 0.04 0.03 0.01 0.00 0.01 0.00
0.04 0.03 0.02 0.03 0.04 0.03 0.04 0.11 0.16 0.22 0.32 0.47 0.56 0.72 0.99 1.21 0.96 0.25 0.08 0.15 0.35 0.54 0.37 0.11 0.02 0.14 0.10 0.12 0.15 0.14 0.17 0.18 0.14 0.12 0.04 0.10 0.09 0.09 0.00 0.00 0.00 0.00 0.00 0.00 0.02 0.08 0.03 0.07 0.07 0.02 0.01 0.00 0.01 0.01
0.02 0.02 0.02 0.02 0.01 0.02 0.11 0.20 0.24 0.30 0.40 0.60 1.21 1.49 1.11 0.44 0.12 0.31 1.00 1.01 0.81 0.50 0.25 0.16 0.03 0.18 0.29 0.19 0.32 0.28 0.33 0.18 0.13 0.04 0.07 0.11 0.02 0.00 0.01 0.01 0.05 0.03 0.01 0.01 0.04 0.05 0.04 0.06 0.06 0.02 0.00 0.00 0.01 0.02
0.03 0.07 0.04 0.04 0.09 0.15 0.25 0.27 0.34 0.58 0.66 0.86 0.92 0.51 0.23 0.15 0.26 0.49 0.54 0.39 0.22 0.18 0.06 0.10 0.05 0.07 0.13 0.22 0.20 0.16 0.18 0.16 0.15 0.06 0.06 0.05 0.02 0.04 0.06 0.11 0.04 0.00 0.00 0.00 0.00 0.01 0.01 0.01 0.01 0.02 0.02 0.00 0.01 0.03
0.07 0.04 0.07 0.16 0.16 0.15 0.23 0.26 0.35 0.59 0.41 0.35 0.45 0.70 0.83 0.70 0.67 0.46 0.28 0.13 0.06 0.04 0.01 0.03 0.04 0.09 0.19 0.22 0.31 0.15 0.23 0.19 0.15 0.21 0.17 0.06 0.03 0.08 0.21 0.26 0.06 0.01 0.00 0.00 0.00 0.01 0.02 0.03 0.03 0.04 0.03 0.01 0.01 0.03
0.04 0.03 0.07 0.11 0.08 0.15 0.18 0.25 0.47 0.59 0.64 0.78 0.73 0.75 0.56 0.39 0.35 0.23 0.10 0.04 0.02 0.03 0.02 0.02 0.06 0.09 0.13 0.27 0.33 0.33 0.20 0.17 0.23 0.51 0.18 0.03 0.12 0.40 0.29 0.12 0.04 0.01 0.01 0.01 0.02 0.01 0.00 0.00 0.02 0.03 0.03 0.02 0.02 0.02
0.00 0.00 0.02 0.05 0.07 0.14 0.18 0.35 0.76 1.00 0.85 0.55 0.36 0.31 0.19 0.17 0.04 0.04 0.03 0.01 0.01 0.01 0.03 0.09 0.19 0.19 0.14 0.15 0.32 0.28 0.13 0.15 0.14 0.10 0.04 0.03 0.03 0.03 0.00 0.00 0.00 0.01 0.02 0.04 0.02 0.00 0.01 0.01 0.00 0.01 0.01 0.01 0.01 0.01
0.00 0.00 0.01 0.03 0.04 0.07 0.17 0.46 0.91 0.93 0.77 0.62 0.35 0.19 0.05 0.10 0.08 0.06 0.08 0.11 0.12 0.29 0.47 0.65 0.40 0.28 0.23 0.16 0.10 0.19 0.17 0.12 0.10 0.16 0.10 0.08 0.08 0.05 0.00 0.00 0.01 0.02 0.03 0.07 0.02 0.02 0.02 0.02 0.01 0.02 0.01 0.00 0.00 0.01
0.00 0.03 0.03 0.01 0.03 0.12 0.26 0.44 0.88 0.89 0.88 0.38 0.24 0.19 0.17 0.15 0.05 0.03 0.05 0.15 0.23 0.36 0.69 0.72 0.42 0.23 0.18 0.09 0.08 0.03 0.06 0.09 0.13 0.07 0.02 0.01 0.01 0.00 0.01 0.01 0.03 0.06 0.11 0.09 0.07 0.08 0.08 0.07 0.06 0.04 0.03 0.02 0.02 0.03
0.03 0.13 0.02 0.04 0.10 0.27 0.32 0.48 0.57 0.64 0.41 0.29 0.19 0.12 0.08 0.08 0.04 0.02 0.04 0.05 0.15 0.40 0.37 0.30 0.19 0.11 0.09 0.08 0.04 0.04 0.04 0.03 0.01 0.03 0.02 0.00 0.01 0.01 0.03 0.03 0.04 0.09 0.18 0.16 0.12 0.15 0.15 0.13 0.13 0.09 0.07 0.07 0.05 0.05
0.25 0.08 0.00 0.02 0.09 0.23 0.38 0.35 0.47 0.29 0.14 0.03 0.06 0.08 0.13 0.20 0.16 0.12 0.08 0.03 0.11 0.26 0.42 0.40 0.20 0.11 0.07 0.07 0.10 0.05 0.03 0.02 0.01 0.01 0.00 0.01 0.03 0.04 0.06 0.06 0.07 0.09 0.13 0.19 0.14 0.15 0.16 0.11 0.07 0.07 0.07 0.05 0.03 0.04
0.06 0.00 0.01 0.02 0.15 0.32 0.30 0.20 0.16 0.18 0.04 0.03 0.07 0.07 0.09 0.17 0.27 0.20 0.12 0.05 0.13 0.15 0.16 0.16 0.22 0.13 0.04 0.02 0.02 0.02 0.01 0.01 0.01 0.01 0.01 0.02 0.04 0.06 0.08 0.09 0.10 0.10 0.10 0.15 0.18 0.18 0.17 0.13 0.08 0.07 0.07 0.07 0.07 0.05
0.01 0.00 0.00 0.01 0.08 0.30 0.27 0.08 0.07 0.06 0.06 0.07 0.08 0.09 0.08 0.12 0.16 0.20 0.13 0.13 0.15 0.24 0.14 0.06 0.04 0.03 0.03 0.03 0.02 0.02 0.02 0.01 0.01 0.02 0.04 0.05 0.05 0.06 0.09 0.10 0.10 0.12 0.08 0.12 0.16 0.15 0.15 0.16 0.16 0.10 0.08 0.07 0.05 0.02
0.00 0.00 0.00 0.00 0.02 0.07 0.09 0.03 0.04 0.02 0.02 0.06 0.05 0.06 0.09 0.09 0.11 0.11 0.08 0.06 0.13 0.14 0.06 0.03 0.04 0.03 0.03 0.02 0.01 0.02 0.02 0.02 0.03 0.04 0.04 0.05 0.08 0.09 0.11 0.12 0.12 0.07 0.03 0.05 0.08 0.11 0.10 0.16 0.21 0.20 0.10 0.02 0.00 0.00
0.01 0.00 0.00 0.01 0.03 0.08 0.07 0.00 0.01 0.02 0.04 0.03 0.02 0.05 0.06 0.08 0.05 0.01 0.02 0.03 0.04 0.04 0.03 0.04 0.03 0.04 0.03 0.01 0.01 0.01 0.03 0.03 0.03 0.04 0.06 0.06 0.06 0.04 0.04 0.06 0.04 0.02 0.01 0.02 0.03 0.04 0.07 0.13 0.17 0.19 0.13 0.02 0.00 0.00
0.01 0.01 0.05 0.09 0.16 0.07 0.02 0.00 0.03 0.01 0.02 0.02 0.02 0.05 0.04 0.02 0.00 0.00 0.01 0.01 0.03 0.05 0.04 0.03 0.02 0.02 0.02 0.03 0.02 0.02 0.03 0.05 0.07 0.10 0.12 0.08 0.04 0.01 0.01 0.01 0.01 0.01 0.01 0.02 0.02 0.02 0.02 0.04 0.06 0.06 0.05 0.02 0.01 0.00
0.01 0.07 0.07 0.07 0.09 0.04 0.03 0.02 0.03 0.03 0.04 0.02 0.04 0.01 0.01 0.00 0.01 0.03 0.03 0.01 0.02 0.02 0.01 0.01 0.03 0.03 0.05 0.04 0.04 0.03 0.04 0.03 0.06 0.10 0.09 0.06 0.05 0.05 0.02 0.02 0.01 0.01 0.00 0.00 0.00 0.00 0.00 0.00 0.00 0.00 0.01 0.01 0.01 0.01
0.05 0.05 0.05 0.04 0.03 0.03 0.02 0.01 0.01 0.03 0.04 0.01 0.01 0.00 0.00 0.00 0.01 0.01 0.01 0.01 0.02 0.02 0.02 0.02 0.05 0.05 0.05 0.05 0.05 0.04 0.03 0.04 0.06 0.06 0.09 0.07 0.06 0.05 0.03 0.02 0.02 0.02 0.02 0.01 0.01 0.01 0.01 0.01 0.01 0.01 0.02 0.02 0.02 0.02
0.01 0.01 0.03 0.03 0.04 0.03 0.04 0.03 0.03 0.05 0.05 0.02 0.00 0.00 0.00 0.00 0.00 0.00 0.01 0.03 0.03 0.03 0.04 0.05 0.06 0.07 0.05 0.05 0.04 0.02 0.04 0.05 0.05 0.05 0.07 0.06 0.05 0.04 0.03 0.02 0.02 0.03 0.01 0.00 0.02 0.02 0.02 0.03 0.02 0.01 0.02 0.02 0.02 0.03
0.00 0.00 0.01 0.01 0.01 0.01 0.02 0.02 0.02 0.02 0.02 0.01 0.01 0.01 0.01 0.02 0.00 0.01 0.04 0.05 0.04 0.04 0.03 0.04 0.05 0.06 0.06 0.07 0.06 0.05 0.04 0.04 0.03 0.04 0.04 0.02 0.01 0.01 0.01 0.01 0.01 0.04 0.01 0.00 0.01 0.03 0.05 0.03 0.02 0.02 0.01 0.02 0.02 0.02
0.02 0.01 0.01 0.01 0.00 0.01 0.01 0.01 0.01 0.01 0.01 0.02 0.05 0.03 0.02 0.00 0.01 0.03 0.03 0.04 0.04 0.04 0.04 0.03 0.03 0.03 0.04 0.06 0.07 0.05 0.04 0.04 0.05 0.04 0.02 0.02 0.01 0.01 0.01 0.01 0.01 0.00 0.00 0.00 0.01 0.01 0.02 0.04 0.02 0.02 0.03 0.03 0.04 0.04
0.05 0.02 0.01 0.01 0.01 0.01 0.01 0.02 0.02 0.02 0.02 0.02 0.04 0.02 0.03 0.01 0.03 0.03 0.02 0.01 0.02 0.03 0.04 0.04 0.04 0.04 0.05 0.05 0.04 0.03 0.03 0.04 0.05 0.05 0.06 0.07 0.05 0.03 0.02 0.02 0.03 0.04 0.02 0.01 0.01 0.01 0.01 0.02 0.03 0.05 0.06 0.07 0.09 0.09
0.04 0.01 0.02 0.02 0.01 0.01 0.02 0.02 0.05 0.04 0.02 0.01 0.01 0.00 0.00 0.01 0.02 0.02 0.03 0.04 0.05 0.06 0.06 0.04 0.05 0.07 0.07 0.06 0.04 0.04 0.04 0.04 0.05 0.05 0.04 0.03 0.02 0.02 0.03 0.03 0.04 0.06 0.07 0.06 0.04 0.03 0.03 0.03 0.04 0.06 0.07 0.09 0.11 0.12
0.01 0.02 0.03 0.03 0.03 0.02 0.02 0.03 0.03 0.02 0.01 0.01 0.01 0.01 0.01 0.02 0.02 0.02 0.03 0.03 0.04 0.04 0.05 0.05 0.05 0.05 0.04 0.04 0.05 0.05 0.04 0.03 0.03 0.04 0.04 0.04 0.06 0.06 0.05 0.04 0.04 0.05 0.06 0.06 0.07 0.06 0.06 0.05 0.05 0.05 0.06 0.06 0.08 0.09
0.02 0.04 0.05 0.05 0.06 0.04 0.03 0.04 0.04 0.03 0.02 0.02 0.02 0.02 0.02 0.02 0.02 0.03 0.02 0.02 0.04 0.05 0.06 0.06 0.05 0.05 0.05 0.06 0.05 0.03 0.03 0.04 0.03 0.04 0.04 0.04 0.05 0.06 0.06 0.03 0.03 0.04 0.05 0.05 0.06 0.07 0.08 0.09 0.11 0.11 0.11 0.10 0.11 0.11
0.02 0.02 0.03 0.04 0.06 0.05 0.04 0.05 0.04 0.05 0.05 0.04 0.04 0.03 0.04 0.05 0.06 0.05 0.03 0.04 0.08 0.08 0.06 0.07 0.09 0.09 0.09 0.09 0.08 0.07 0.07 0.06 0.04 0.04 0.04 0.04 0.04 0.03 0.03 0.02 0.02 0.02 0.02 0.03 0.04 0.06 0.06 0.06 0.09 0.10 0.11 0.12 0.13 0.13

GFSWCAN_prec_precacc24_186.txt.gz
Total_Precipitation_Accumulation
0.02 0.03 0.07 0.07 0.05 0.03 0.00 0.00 0.01 0.04 0.04 0.05 0.04 0.09 0.10 0.10 0.25 0.38 0.37 0.25 0.28 0.30 0.09 0.03 0.08 0.18 0.27 0.46 0.62 0.51 0.61 0.58 0.62 0.51 0.39 0.28 0.14 0.04 0.03 0.01 0.01 0.11 0.37 0.44 0.41 0.48 0.21 0.00 0.01 0.02 0.02 0.01 0.02 0.04
0.05 0.04 0.03 0.04 0.02 0.03 0.01 0.00 0.00 0.01 0.01 0.04 0.06 0.07 0.09 0.10 0.18 0.09 0.19 0.16 0.41 0.67 0.21 0.02 0.01 0.04 0.15 0.21 0.30 0.72 0.88 0.64 0.87 0.87 0.59 0.35 0.24 0.16 0.10 0.06 0.01 0.03 0.03 0.08 0.26 0.29 0.07 0.02 0.04 0.04 0.08 0.17 0.21 0.16
0.04 0.05 0.05 0.02 0.02 0.03 0.01 0.01 0.00 0.00 0.01 0.04 0.05 0.05 0.15 0.19 0.19 0.05 0.18 0.30 0.53 0.64 0.26 0.03 0.00 0.00 0.00 0.01 0.05 0.36 0.21 0.31 0.45 0.59 0.63 0.48 0.30 0.17 0.15 0.10 0.10 0.06 0.01 0.04 0.04 0.00 0.00 0.02 0.02 0.01 0.02 0.07 0.13 0.16
0.03 0.02 0.03 0.03 0.03 0.04 0.03 0.02 0.01 0.00 0.00 0.02 0.05 0.07 0.10 0.19 0.30 0.16 0.10 0.36 0.47 0.46 0.16 0.00 0.00 0.00 0.00 0.00 0.00 0.02 0.01 0.03 0.10 0.13 0.31 0.25 0.17 0.13 0.11 0.09 0.08 0.05 0.08 0.12 0.10 0.04 0.02 0.00 0.02 0.05 0.06 0.06 0.09 0.21
0.03 0.01 0.02 0.04 0.04 0.04 0.02 0.03 0.04 0.02 0.01 0.01 0.02 0.04 0.06 0.12 0.24 0.19 0.26 0.19 0.13 0.17 0.17 0.17 0.05 0.02 0.01 0.00 0.01 0.00 0.01 0.03 0.07 0.14 0.18 0.10 0.06 0.09 0.06 0.07 0.03 0.03 0.04 0.06 0.04 0.03 0.07 0.13 0.14 0.11 0.17 0.10 0.04 0.05
0.03 0.01 0.01 0.02 0.02 0.04 0.03 0.03 0.04 0.04 0.03 0.01 0.01 0.01 0.04 0.12 0.10 0.21 0.22 0.09 0.06 0.07 0.20 0.07 0.07 0.04 0.02 0.02 0.02 0.02 0.03 0.06 0.08 0.09 0.12 0.09 0.08 0.16 0.14 0.08 0.02 0.01 0.01 0.02 0.03 0.02 0.06 0.14 0.24 0.22 0.08 0.03 0.04 0.02
0.04 0.03 0.02 0.02 0.01 0.01 0.02 0.02 0.01 0.02 0.05 0.04 0.03 0.04 0.05 0.07 0.15 0.33 0.17 0.06 0.03 0.14 0.31 0.11 0.04 0.05 0.04 0.06 0.05 0.08 0.10 0.13 0.12 0.13 0.09 0.06 0.09 0.25 0.16 0.03 0.02 0.04 0.02 0.06 0.07 0.04 0.05 0.05 0.05 0.05 0.03 0.01 0.01 0.01
0.04 0.02 0.02 0.02 0.02 0.01 0.02 0.02 0.02 0.05 0.10 0.15 0.14 0.11 0.13 0.19 0.28 0.27 0.06 0.04 0.12 0.14 0.14 0.12 0.06 0.09 0.03 0.11 0.10 0.08 0.14 0.17 0.16 0.11 0.06 0.05 0.03 0.14 0.10 0.00 0.00 0.00 0.00 0.01 0.15 0.09 0.05 0.04 0.03 0.01 0.00 0.00 0.01 0.00
0.04 0.03 0.02 0.01 0.02 0.02 0.01 0.03 0.07 0.12 0.20 0.31 0.40 0.49 0.64 0.80 0.69 0.16 0.05 0.13 0.34 0.50 0.35 0.11 0.02 0.07 0.05 0.10 0.12 0.12 0.14 0.16 0.12 0.10 0.03 0.08 0.08 0.09 0.01 0.00 0.00 0.00 0.00 0.01 0.02 0.08 0.03 0.06 0.06 0.02 0.00 0.00 0.01 0.01
0.02 0.02 0.01 0.01 0.01 0.01 0.04 0.09 0.15 0.24 0.33 0.48 0.97 1.14 0.77 0.28 0.09 0.19 0.71 0.75 0.66 0.47 0.27 0.10 0.01 0.06 0.21 0.17 0.28 0.26 0.23 0.12 0.11 0.03 0.06 0.10 0.02 0.00 0.03 0.02 0.05 0.05 0.02 0.02 0.04 0.03 0.01 0.02 0.04 0.02 0.00 0.00 0.01 0.02
0.00 0.02 0.02 0.03 0.08 0.09 0.11 0.14 0.23 0.51 0.57 0.69 0.74 0.37 0.10 0.11 0.22 0.44 0.46 0.34 0.19 0.14 0.06 0.01 0.01 0.06 0.11 0.21 0.17 0.15 0.14 0.09 0.14 0.06 0.07 0.06 0.03 0.05 0.12 0.21 0.12 0.07 0.01 0.01 0.01 0.00 0.00 0.00 0.01 0.02 0.02 0.00 0.01 0.03
0.01 0.02 0.06 0.15 0.15 0.11 0.12 0.13 0.26 0.52 0.37 0.33 0.36 0.52 0.68 0.62 0.63 0.41 0.25 0.11 0.06 0.02 0.01 0.01 0.02 0.07 0.17 0.20 0.29 0.14 0.21 0.19 0.15 0.22 0.18 0.06 0.03 0.08 0.25 0.37 0.17 0.04 0.01 0.00 0.00 0.00 0.00 0.02 0.03 0.04 0.03 0.01 0.02 0.03
0.02 0.03 0.08 0.11 0.08 0.14 0.12 0.14 0.34 0.53 0.63 0.78 0.72 0.69 0.55 0.39 0.37 0.21 0.10 0.05 0.05 0.05 0.03 0.02 0.13 0.15 0.16 0.27 0.31 0.33 0.20 0.18 0.24 0.52 0.18 0.03 0.12 0.40 0.29 0.12 0.04 0.01 0.00 0.00 0.00 0.00 0.00 0.01 0.02 0.03 0.03 0.02 0.02 0.02
0.00 0.00 0.02 0.04 0.07 0.14 0.17 0.31 0.68 0.99 0.85 0.55 0.35 0.30 0.20 0.18 0.04 0.04 0.03 0.01 0.01 0.02 0.11 0.19 0.31 0.31 0.21 0.18 0.30 0.25 0.12 0.16 0.14 0.10 0.05 0.05 0.03 0.03 0.00 0.00 0.00 0.00 0.00 0.01 0.01 0.01 0.01 0.01 0.01 0.01 0.01 0.01 0.01 0.01
0.00 0.00 0.01 0.03 0.04 0.07 0.17 0.47 0.93 0.93 0.79 0.62 0.36 0.19 0.05 0.10 0.08 0.06 0.08 0.11 0.12 0.32 0.59 0.86 0.51 0.34 0.29 0.18 0.09 0.17 0.18 0.12 0.10 0.17 0.12 0.08 0.08 0.05 0.00 0.00 0.00 0.01 0.01 0.03 0.02 0.02 0.02 0.02 0.02 0.02 0.02 0.00 0.00 0.01
0.00 0.03 0.03 0.01 0.03 0.12 0.27 0.46 0.97 1.04 1.02 0.41 0.23 0.16 0.16 0.14 0.05 0.02 0.05 0.15 0.23 0.37 0.73 0.83 0.48 0.21 0.15 0.08 0.09 0.03 0.06 0.09 0.13 0.07 0.02 0.01 0.01 0.00 0.00 0.01 0.02 0.03 0.05 0.07 0.07 0.08 0.08 0.08 0.07 0.04 0.04 0.02 0.02 0.03
0.03 0.13 0.03 0.05 0.12 0.29 0.40 0.62 0.73 0.79 0.50 0.31 0.18 0.10 0.06 0.07 0.03 0.02 0.03 0.05 0.15 0.44 0.47 0.41 0.30 0.10 0.07 0.07 0.04 0.04 0.04 0.03 0.01 0.02 0.02 0.00 0.00 0.01 0.02 0.03 0.03 0.06 0.13 0.15 0.12 0.15 0.16 0.14 0.14 0.10 0.08 0.07 0.06 0.05
0.25 0.08 0.01 0.03 0.11 0.29 0.46 0.47 0.63 0.40 0.18 0.02 0.05 0.06 0.10 0.15 0.09 0.03 0.02 0.02 0.12 0.32 0.51 0.50 0.29 0.18 0.09 0.07 0.10 0.06 0.03 0.01 0.01 0.01 0.00 0.00 0.01 0.02 0.04 0.06 0.07 0.08 0.13 0.19 0.14 0.15 0.16 0.12 0.08 0.08 0.08 0.07 0.05 0.05
0.07 0.00 0.02 0.06 0.21 0.37 0.35 0.27 0.22 0.23 0.03 0.01 0.02 0.04 0.06 0.11 0.17 0.12 0.08 0.05 0.14 0.24 0.29 0.21 0.26 0.16 0.06 0.03 0.03 0.02 0.01 0.01 0.01 0.01 0.00 0.01 0.02 0.05 0.08 0.09 0.10 0.11 0.10 0.15 0.18 0.18 0.18 0.13 0.08 0.08 0.08 0.08 0.08 0.06
0.05 0.04 0.04 0.10 0.25 0.41 0.31 0.11 0.11 0.08 0.04 0.03 0.04 0.06 0.06 0.08 0.13 0.17 0.12 0.14 0.17 0.32 0.21 0.09 0.04 0.02 0.03 0.03 0.01 0.01 0.01 0.01 0.01 0.01 0.03 0.02 0.04 0.06 0.09 0.10 0.10 0.12 0.09 0.12 0.16 0.15 0.16 0.17 0.16 0.11 0.09 0.08 0.06 0.04
0.00 0.00 0.01 0.05 0.10 0.14 0.12 0.03 0.05 0.03 0.02 0.05 0.04 0.05 0.08 0.08 0.10 0.11 0.08 0.06 0.14 0.16 0.07 0.02 0.02 0.02 0.01 0.01 0.01 0.01 0.01 0.01 0.02 0.03 0.04 0.04 0.08 0.09 0.11 0.12 0.12 0.07 0.03 0.05 0.08 0.11 0.11 0.16 0.22 0.21 0.12 0.04 0.02 0.01
0.02 0.03 0.05 0.04 0.09 0.14 0.09 0.01 0.02 0.02 0.05 0.04 0.03 0.05 0.07 0.08 0.06 0.01 0.02 0.04 0.04 0.03 0.02 0.02 0.02 0.03 0.02 0.01 0.02 0.03 0.04 0.02 0.01 0.02 0.05 0.05 0.06 0.05 0.04 0.07 0.05 0.03 0.01 0.02 0.03 0.04 0.07 0.13 0.18 0.21 0.15 0.04 0.01 0.00
0.01 0.04 0.11 0.15 0.21 0.11 0.02 0.00 0.05 0.02 0.05 0.04 0.03 0.05 0.04 0.03 0.00 0.01 0.02 0.01 0.02 0.03 0.03 0.02 0.02 0.01 0.01 0.03 0.04 0.04 0.04 0.05 0.07 0.08 0.10 0.07 0.03 0.01 0.01 0.01 0.01 0.01 0.02 0.02 0.02 0.02 0.02 0.04 0.07 0.08 0.07 0.05 0.03 0.01
0.02 0.11 0.14 0.16 0.16 0.07 0.03 0.04 0.05 0.06 0.07 0.04 0.06 0.02 0.01 0.01 0.01 0.03 0.03 0.01 0.02 0.01 0.01 0.01 0.03 0.04 0.05 0.05 0.05 0.04 0.05 0.04 0.06 0.11 0.10 0.07 0.06 0.06 0.03 0.03 0.02 0.02 0.01 0.01 0.01 0.01 0.00 0.00 0.00 0.01 0.01 0.01 0.01 0.01
0.10 0.11 0.11 0.08 0.05 0.05 0.03 0.02 0.02 0.07 0.09 0.06 0.05 0.01 0.00 0.00 0.01 0.01 0.01 0.01 0.01 0.01 0.01 0.02 0.05 0.06 0.05 0.06 0.05 0.04 0.04 0.06 0.09 0.09 0.11 0.09 0.09 0.08 0.06 0.05 0.03 0.03 0.02 0.01 0.02 0.02 0.02 0.02 0.01 0.01 0.02 0.02 0.02 0.02
0.02 0.01 0.06 0.07 0.06 0.06 0.06 0.04 0.05 0.07 0.07 0.05 0.03 0.00 0.00 0.01 0.01 0.00 0.02 0.03 0.02 0.02 0.03 0.05 0.06 0.07 0.05 0.06 0.05 0.03 0.05 0.08 0.09 0.08 0.09 0.08 0.08 0.08 0.06 0.04 0.03 0.03 0.01 0.01 0.02 0.02 0.03 0.03 0.02 0.01 0.02 0.03 0.02 0.03
0.01 0.01 0.02 0.02 0.02 0.03 0.04 0.03 0.03 0.02 0.02 0.01 0.01 0.01 0.02 0.03 0.01 0.02 0.04 0.05 0.04 0.03 0.03 0.03 0.05 0.07 0.06 0.07 0.07 0.06 0.06 0.07 0.06 0.05 0.06 0.05 0.03 0.03 0.03 0.03 0.02 0.04 0.01 0.00 0.01 0.04 0.05 0.04 0.03 0.02 0.02 0.02 0.02 0.02
0.04 0.02 0.02 0.02 0.00 0.01 0.01 0.01 0.01 0.00 0.01 0.02 0.06 0.03 0.02 0.02 0.03 0.04 0.04 0.03 0.04 0.04 0.03 0.02 0.03 0.03 0.04 0.06 0.07 0.07 0.07 0.08 0.07 0.05 0.04 0.03 0.02 0.01 0.01 0.01 0.01 0.00 0.00 0.00 0.01 0.01 0.02 0.04 0.03 0.03 0.03 0.02 0.02 0.03
0.07 0.04 0.01 0.01 0.01 0.01 0.01 0.02 0.03 0.02 0.02 0.03 0.05 0.03 0.03 0.02 0.04 0.03 0.01 0.01 0.01 0.03 0.04 0.04 0.04 0.03 0.04 0.05 0.05 0.05 0.06 0.07 0.07 0.07 0.07 0.07 0.06 0.02 0.01 0.01 0.02 0.04 0.02 0.01 0.01 0.01 0.01 0.01 0.03 0.04 0.04 0.05 0.07 0.06
0.03 0.01 0.02 0.02 0.01 0.01 0.02 0.02 0.05 0.04 0.02 0.01 0.01 0.01 0.00 0.01 0.02 0.02 0.03 0.03 0.04 0.06 0.06 0.04 0.04 0.06 0.07 0.06 0.05 0.05 0.05 0.05 0.05 0.06 0.05 0.04 0.03 0.02 0.03 0.02 0.03 0.06 0.07 0.07 0.05 0.02 0.01 0.01 0.02 0.02 0.04 0.06 0.08 0.09
0.01 0.02 0.03 0.02 0.02 0.02 0.02 0.02 0.02 0.02 0.01 0.01 0.01 0.02 0.01 0.02 0.02 0.02 0.02 0.03 0.04 0.04 0.05 0.05 0.05 0.06 0.05 0.05 0.06 0.06 0.05 0.03 0.03 0.03 0.04 0.05 0.07 0.08 0.06 0.04 0.04 0.04 0.06 0.06 0.07 0.07 0.05 0.03 0.03 0.03 0.03 0.03 0.05 0.06
0.01 0.03 0.05 0.04 0.06 0.04 0.02 0.03 0.03 0.03 0.02 0.02 0.02 0.02 0.02 0.03 0.03 0.04 0.02 0.02 0.04 0.05 0.06 0.07 0.05 0.06 0.06 0.08 0.07 0.05 0.04 0.04 0.04 0.04 0.05 0.06 0.06 0.07 0.07 0.04 0.03 0.03 0.03 0.04 0.05 0.07 0.09 0.09 0.10 0.09 0.08 0.08 0.08 0.08
0.01 0.01 0.02 0.04 0.05 0.04 0.03 0.04 0.04 0.04 0.04 0.04 0.04 0.03 0.04 0.06 0.07 0.06 0.03 0.05 0.09 0.09 0.07 0.09 0.10 0.10 0.11 0.11 0.10 0.09 0.07 0.06 0.05 0.05 0.05 0.06 0.06 0.06 0.05 0.04 0.04 0.03 0.03 0.04 0.05 0.06 0.06 0.05 0.08 0.08 0.09 0.10 0.11 0.11

GFSWCAN_prec_precacc24_192.txt.gz
Total_Precipitation_Accumulation
0.02 0.02 0.06 0.06 0.04 0.02 0.02 0.01 0.00 0.00 0.00 0.01 0.01 0.04 0.05 0.07 0.16 0.10 0.15 0.19 0.27 0.26 0.06 0.02 0.06 0.16 0.25 0.39 0.54 0.49 0.54 0.56 0.61 0.52 0.40 0.31 0.18 0.11 0.10 0.05 0.06 0.11 0.25 0.36 0.44 0.57 0.24 0.03 0.02 0.06 0.04 0.02 0.03 0.04
0.04 0.03 0.02 0.03 0.02 0.02 0.01 0.00 0.00 0.01 0.00 0.01 0.04 0.05 0.06 0.08 0.16 0.08 0.11 0.13 0.36 0.62 0.17 0.01 0.00 0.04 0.15 0.21 0.29 0.72 0.79 0.64 0.91 0.92 0.69 0.50 0.39 0.26 0.13 0.10 0.05 0.09 0.10 0.12 0.22 0.31 0.16 0.08 0.05 0.02 0.07 0.16 0.16 0.13
0.04 0.05 0.03 0.01 0.02 0.02 0.01 0.01 0.00 0.00 0.01 0.03 0.04 0.04 0.12 0.16 0.16 0.06 0.18 0.23 0.47 0.62 0.25 0.03 0.00 0.00 0.00 0.01 0.05 0.36 0.22 0.34 0.46 0.62 0.64 0.48 0.30 0.19 0.18 0.13 0.10 0.05 0.02 0.03 0.03 0.01 0.02 0.03 0.04 0.01 0.02 0.06 0.09 0.12
0.03 0.02 0.02 0.02 0.02 0.03 0.02 0.02 0.00 0.00 0.00 0.02 0.04 0.05 0.09 0.18 0.27 0.16 0.13 0.31 0.45 0.43 0.16 0.02 0.00 0.00 0.00 0.00 0.00 0.02 0.03 0.07 0.19 0.26 0.43 0.30 0.16 0.12 0.10 0.07 0.05 0.03 0.02 0.02 0.01 0.01 0.01 0.01 0.03 0.03 0.03 0.05 0.07 0.19
0.02 0.00 0.01 0.03 0.03 0.03 0.01 0.02 0.03 0.01 0.00 0.00 0.01 0.03 0.05 0.11 0.23 0.18 0.26 0.16 0.13 0.18 0.15 0.04 0.02 0.00 0.00 0.00 0.00 0.01 0.01 0.02 0.08 0.19 0.20 0.10 0.06 0.07 0.03 0.02 0.00 0.00 0.00 0.02 0.01 0.01 0.01 0.02 0.01 0.03 0.05 0.07 0.04 0.05
0.01 0.00 0.01 0.02 0.02 0.03 0.02 0.02 0.03 0.03 0.02 0.00 0.00 0.00 0.04 0.12 0.06 0.03 0.02 0.01 0.02 0.05 0.09 0.02 0.01 0.00 0.00 0.00 0.00 0.00 0.00 0.02 0.04 0.05 0.04 0.03 0.01 0.10 0.07 0.01 0.00 0.00 0.00 0.00 0.00 0.00 0.00 0.02 0.13 0.17 0.06 0.01 0.03 0.01
0.03 0.02 0.01 0.01 0.01 0.01 0.01 0.01 0.01 0.01 0.02 0.00 0.01 0.03 0.05 0.07 0.10 0.04 0.05 0.05 0.02 0.06 0.10 0.02 0.00 0.00 0.00 0.00 0.00 0.00 0.01 0.02 0.04 0.05 0.02 0.01 0.01 0.11 0.09 0.01 0.00 0.00 0.00 0.00 0.00 0.00 0.01 0.03 0.05 0.05 0.03 0.00 0.00 0.00
0.03 0.03 0.02 0.01 0.01 0.01 0.01 0.01 0.00 0.00 0.00 0.03 0.05 0.05 0.05 0.05 0.05 0.06 0.01 0.01 0.08 0.07 0.07 0.04 0.01 0.02 0.01 0.02 0.06 0.04 0.08 0.09 0.08 0.03 0.01 0.01 0.02 0.10 0.11 0.00 0.00 0.00 0.00 0.00 0.01 0.03 0.02 0.03 0.02 0.00 0.00 0.00 0.00 0.00
0.04 0.03 0.01 0.01 0.01 0.01 0.01 0.01 0.00 0.01 0.05 0.08 0.05 0.10 0.19 0.14 0.09 0.03 0.00 0.02 0.16 0.26 0.24 0.10 0.03 0.07 0.03 0.05 0.12 0.13 0.13 0.14 0.09 0.08 0.02 0.09 0.07 0.10 0.01 0.00 0.00 0.00 0.00 0.01 0.02 0.06 0.02 0.01 0.00 0.00 0.00 0.01 0.02 0.01
0.02 0.01 0.01 0.01 0.01 0.00 0.00 0.02 0.03 0.06 0.09 0.15 0.32 0.35 0.21 0.05 0.01 0.07 0.17 0.17 0.22 0.24 0.18 0.07 0.01 0.02 0.04 0.07 0.22 0.27 0.23 0.09 0.09 0.04 0.04 0.10 0.05 0.04 0.08 0.08 0.09 0.07 0.03 0.05 0.15 0.10 0.05 0.03 0.01 0.01 0.00 0.01 0.02 0.03
0.00 0.01 0.02 0.02 0.02 0.01 0.01 0.03 0.07 0.16 0.28 0.39 0.31 0.12 0.05 0.05 0.16 0.28 0.31 0.22 0.14 0.12 0.06 0.02 0.01 0.02 0.04 0.05 0.11 0.14 0.13 0.08 0.11 0.06 0.10 0.09 0.05 0.07 0.13 0.24 0.18 0.15 0.07 0.05 0.05 0.02 0.01 0.01 0.01 0.01 0.01 0.00 0.01 0.04
0.00 0.01 0.03 0.04 0.05 0.03 0.03 0.06 0.14 0.31 0.25 0.22 0.24 0.24 0.43 0.47 0.48 0.29 0.19 0.07 0.06 0.03 0.05 0.05 0.10 0.06 0.15 0.12 0.15 0.14 0.13 0.12 0.08 0.18 0.20 0.07 0.10 0.14 0.27 0.38 0.18 0.06 0.02 0.00 0.00 0.00 0.00 0.00 0.00 0.01 0.01 0.01 0.02 0.04
0.02 0.02 0.04 0.06 0.04 0.03 0.04 0.10 0.22 0.34 0.49 0.63 0.57 0.48 0.41 0.32 0.31 0.15 0.09 0.08 0.11 0.07 0.07 0.05 0.20 0.17 0.15 0.22 0.23 0.29 0.18 0.08 0.18 0.48 0.18 0.08 0.18 0.42 0.30 0.12 0.04 0.01 0.00 0.00 0.00 0.00 0.01 0.01 0.01 0.01 0.02 0.01 0.02 0.02
0.00 0.00 0.02 0.04 0.04 0.06 0.08 0.19 0.49 0.78 0.71 0.44 0.27 0.24 0.12 0.16 0.03 0.02 0.05 0.07 0.09 0.09 0.18 0.31 0.49 0.40 0.22 0.19 0.17 0.21 0.11 0.14 0.15 0.12 0.10 0.16 0.10 0.05 0.01 0.00 0.00 0.00 0.00 0.00 0.01 0.01 0.02 0.02 0.01 0.01 0.01 0.01 0.01 0.01
0.00 0.00 0.01 0.03 0.04 0.05 0.12 0.34 0.79 0.85 0.68 0.54 0.31 0.15 0.03 0.05 0.06 0.05 0.06 0.08 0.09 0.35 0.65 0.91 0.57 0.33 0.31 0.19 0.09 0.08 0.13 0.12 0.11 0.20 0.24 0.16 0.09 0.05 0.00 0.00 0.00 0.00 0.00 0.01 0.02 0.02 0.02 0.02 0.02 0.03 0.03 0.01 0.00 0.02
0.00 0.02 0.02 0.01 0.03 0.08 0.23 0.47 0.99 1.03 1.02 0.41 0.22 0.13 0.14 0.12 0.05 0.02 0.06 0.18 0.26 0.40 0.70 0.79 0.53 0.24 0.17 0.07 0.09 0.03 0.03 0.05 0.14 0.21 0.11 0.03 0.01 0.00 0.00 0.00 0.00 0.00 0.01 0.01 0.02 0.04 0.06 0.07 0.08 0.07 0.05 0.03 0.03 0.03
0.03 0.07 0.02 0.05 0.11 0.28 0.41 0.68 0.84 0.90 0.53 0.23 0.05 0.01 0.01 0.03 0.03 0.02 0.07 0.11 0.20 0.40 0.45 0.47 0.44 0.23 0.13 0.12 0.06 0.04 0.06 0.11 0.16 0.10 0.03 0.00 0.00 0.00 0.00 0.00 0.01 0.01 0.02 0.03 0.04 0.05 0.08 0.13 0.15 0.13 0.10 0.09 0.08 0.08
0.20 0.06 0.01 0.04 0.17 0.51 0.64 0.64 0.81 0.51 0.24 0.02 0.02 0.02 0.04 0.08 0.07 0.05 0.05 0.07 0.12 0.30 0.54 0.60 0.36 0.24 0.17 0.10 0.11 0.21 0.29 0.18 0.09 0.03 0.00 0.00 0.00 0.00 0.00 0.02 0.02 0.02 0.03 0.03 0.05 0.06 0.08 0.09 0.09 0.09 0.11 0.10 0.08 0.08
0.06 0.01 0.02 0.07 0.27 0.63 0.61 0.43 0.32 0.33 0.03 0.00 0.01 0.01 0.01 0.03 0.05 0.05 0.06 0.05 0.16 0.31 0.45 0.27 0.31 0.18 0.11 0.15 0.20 0.11 0.06 0.03 0.01 0.00 0.00 0.00 0.00 0.01 0.01 0.02 0.03 0.03 0.03 0.04 0.05 0.09 0.10 0.10 0.09 0.08 0.09 0.10 0.11 0.12
0.07 0.10 0.11 0.16 0.42 0.69 0.54 0.23 0.16 0.10 0.03 0.02 0.01 0.01 0.04 0.03 0.06 0.07 0.09 0.13 0.18 0.37 0.29 0.13 0.05 0.07 0.09 0.07 0.05 0.02 0.02 0.01 0.01 0.01 0.03 0.01 0.01 0.01 0.03 0.04 0.05 0.06 0.05 0.06 0.09 0.11 0.15 0.18 0.17 0.12 0.10 0.11 0.10 0.08
0.04 0.03 0.05 0.23 0.49 0.47 0.31 0.10 0.09 0.04 0.02 0.03 0.02 0.03 0.02 0.02 0.04 0.06 0.07 0.07 0.17 0.19 0.09 0.06 0.08 0.07 0.03 0.02 0.01 0.01 0.02 0.01 0.02 0.03 0.03 0.02 0.02 0.03 0.05 0.10 0.11 0.06 0.02 0.04 0.07 0.11 0.12 0.18 0.25 0.24 0.15 0.09 0.07 0.06
0.08 0.14 0.24 0.30 0.44 0.46 0.33 0.05 0.04 0.05 0.07 0.04 0.04 0.05 0.04 0.04 0.03 0.02 0.03 0.07 0.07 0.04 0.03 0.02 0.02 0.02 0.01 0.01 0.02 0.03 0.03 0.01 0.00 0.01 0.01 0.02 0.04 0.05 0.07 0.08 0.06 0.04 0.02 0.03 0.03 0.05 0.08 0.15 0.21 0.25 0.21 0.10 0.05 0.04
0.05 0.12 0.23 0.32 0.45 0.31 0.13 0.02 0.08 0.04 0.08 0.08 0.05 0.08 0.06 0.03 0.02 0.02 0.04 0.04 0.05 0.02 0.02 0.01 0.01 0.01 0.01 0.02 0.03 0.04 0.03 0.02 0.03 0.04 0.05 0.05 0.04 0.03 0.03 0.03 0.03 0.03 0.04 0.03 0.02 0.02 0.03 0.06 0.11 0.14 0.14 0.12 0.09 0.06
0.08 0.22 0.24 0.26 0.28 0.17 0.08 0.08 0.08 0.08 0.13 0.09 0.12 0.06 0.04 0.05 0.02 0.05 0.09 0.08 0.03 0.01 0.00 0.01 0.02 0.02 0.04 0.05 0.05 0.04 0.05 0.03 0.05 0.10 0.10 0.07 0.08 0.10 0.05 0.05 0.04 0.03 0.02 0.02 0.01 0.01 0.01 0.01 0.03 0.05 0.06 0.06 0.05 0.04
0.25 0.18 0.19 0.18 0.16 0.18 0.13 0.06 0.04 0.11 0.15 0.12 0.15 0.12 0.10 0.05 0.05 0.04 0.06 0.06 0.02 0.01 0.01 0.02 0.04 0.05 0.05 0.05 0.05 0.04 0.05 0.07 0.09 0.11 0.15 0.12 0.13 0.12 0.09 0.07 0.05 0.04 0.03 0.04 0.05 0.04 0.03 0.03 0.02 0.02 0.03 0.03 0.03 0.02
0.13 0.05 0.13 0.20 0.27 0.25 0.26 0.20 0.16 0.13 0.14 0.13 0.11 0.07 0.04 0.06 0.06 0.08 0.10 0.10 0.04 0.02 0.03 0.04 0.05 0.06 0.05 0.06 0.05 0.04 0.06 0.09 0.10 0.11 0.15 0.10 0.12 0.14 0.13 0.11 0.09 0.09 0.02 0.02 0.04 0.04 0.05 0.04 0.02 0.02 0.04 0.04 0.03 0.04
0.20 0.11 0.09 0.04 0.04 0.09 0.14 0.18 0.16 0.14 0.12 0.10 0.09 0.07 0.08 0.06 0.06 0.10 0.07 0.07 0.05 0.03 0.03 0.03 0.05 0.07 0.06 0.07 0.07 0.06 0.06 0.08 0.09 0.09 0.08 0.06 0.05 0.05 0.07 0.08 0.08 0.08 0.03 0.01 0.03 0.05 0.06 0.06 0.04 0.02 0.03 0.04 0.04 0.05
0.19 0.08 0.04 0.03 0.01 0.02 0.03 0.03 0.04 0.05 0.06 0.04 0.07 0.07 0.08 0.07 0.10 0.08 0.06 0.04 0.04 0.03 0.02 0.02 0.02 0.03 0.04 0.07 0.08 0.08 0.08 0.09 0.09 0.07 0.05 0.04 0.03 0.02 0.01 0.03 0.02 0.01 0.02 0.01 0.02 0.02 0.03 0.05 0.05 0.04 0.03 0.04 0.02 0.02
0.08 0.04 0.01 0.01 0.01 0.01 0.04 0.05 0.10 0.05 0.03 0.03 0.06 0.07 0.09 0.04 0.05 0.03 0.01 0.01 0.01 0.02 0.03 0.03 0.03 0.03 0.04 0.05 0.05 0.07 0.09 0.11 0.11 0.10 0.09 0.09 0.11 0.11 0.04 0.02 0.03 0.04 0.04 0.03 0.01 0.01 0.01 0.01 0.03 0.04 0.04 0.04 0.04 0.03
0.02 0.00 0.01 0.01 0.01 0.01 0.05 0.02 0.05 0.03 0.01 0.01 0.01 0.01 0.00 0.02 0.02 0.02 0.02 0.02 0.02 0.05 0.05 0.04 0.05 0.06 0.07 0.05 0.05 0.05 0.10 0.11 0.08 0.08 0.07 0.05 0.08 0.06 0.04 0.03 0.04 0.05 0.06 0.07 0.07 0.03 0.00 0.01 0.01 0.01 0.02 0.04 0.06 0.07
0.01 0.01 0.03 0.03 0.03 0.04 0.03 0.01 0.01 0.01 0.01 0.01 0.01 0.01 0.01 0.03 0.03 0.02 0.02 0.02 0.04 0.04 0.04 0.04 0.05 0.06 0.06 0.07 0.08 0.07 0.08 0.07 0.03 0.04 0.04 0.05 0.08 0.09 0.09 0.07 0.06 0.05 0.05 0.04 0.07 0.10 0.09 0.04 0.05 0.06 0.04 0.05 0.06 0.08
0.01 0.03 0.04 0.03 0.03 0.03 0.02 0.01 0.01 0.01 0.01 0.01 0.03 0.02 0.03 0.06 0.06 0.05 0.03 0.02 0.03 0.04 0.06 0.06 0.05 0.06 0.07 0.10 0.10 0.08 0.06 0.05 0.04 0.04 0.05 0.07 0.08 0.09 0.08 0.06 0.05 0.04 0.04 0.04 0.04 0.07 0.11 0.14 0.16 0.12 0.09 0.09 0.09 0.08
0.01 0.01 0.02 0.02 0.03 0.03 0.03 0.02 0.02 0.03 0.04 0.06 0.07 0.03 0.04 0.08 0.09 0.06 0.03 0.05 0.09 0.09 0.08 0.09 0.11 0.11 0.12 0.14 0.13 0.11 0.08 0.07 0.05 0.05 0.06 0.06 0.07 0.07 0.07 0.06 0.06 0.05 0.06 0.07 0.08 0.09 0.10 0.10 0.11 0.11 0.11 0.12 0.13 0.11

GFSWCAN_prec_precacc24_195.txt.gz
Total_Precipitation_Accumulation
0.02 0.02 0.06 0.06 0.04 0.02 0.02 0.01 0.00 0.01 0.00 0.00 0.01 0.01 0.01 0.07 0.15 0.07 0.03 0.02 0.10 0.17 0.05 0.01 0.02 0.09 0.21 0.30 0.39 0.40 0.49 0.54 0.62 0.53 0.41 0.31 0.18 0.11 0.10 0.05 0.06 0.11 0.24 0.30 0.36 0.50 0.24 0.05 0.03 0.07 0.06 0.02 0.02 0.03
0.02 0.02 0.02 0.02 0.01 0.02 0.00 0.00 0.00 0.00 0.00 0.00 0.01 0.01 0.02 0.07 0.16 0.06 0.04 0.03 0.16 0.43 0.16 0.01 0.00 0.03 0.15 0.21 0.28 0.59 0.67 0.62 0.92 0.94 0.70 0.52 0.41 0.28 0.14 0.10 0.05 0.16 0.18 0.20 0.25 0.26 0.14 0.08 0.05 0.02 0.03 0.03 0.03 0.03
0.03 0.03 0.02 0.01 0.02 0.02 0.01 0.01 0.00 0.00 0.01 0.00 0.00 0.01 0.08 0.13 0.15 0.05 0.13 0.17 0.42 0.60 0.25 0.03 0.00 0.00 0.00 0.01 0.05 0.36 0.22 0.35 0.44 0.61 0.63 0.47 0.30 0.19 0.18 0.14 0.10 0.05 0.02 0.09 0.09 0.02 0.02 0.03 0.04 0.01 0.01 0.04 0.03 0.03
0.03 0.01 0.02 0.02 0.01 0.02 0.01 0.00 0.00 0.00 0.00 0.00 0.01 0.02 0.06 0.15 0.24 0.14 0.12 0.26 0.41 0.41 0.16 0.02 0.00 0.00 0.00 0.00 0.00 0.02 0.03 0.07 0.20 0.29 0.44 0.32 0.18 0.12 0.10 0.07 0.05 0.03 0.02 0.02 0.01 0.01 0.01 0.01 0.03 0.03 0.01 0.01 0.04 0.09
0.02 0.00 0.01 0.02 0.01 0.01 0.01 0.00 0.01 0.00 0.00 0.00 0.01 0.02 0.04 0.09 0.22 0.18 0.27 0.15 0.12 0.17 0.14 0.04 0.02 0.00 0.00 0.00 0.00 0.01 0.02 0.03 0.10 0.21 0.19 0.10 0.07 0.07 0.03 0.02 0.00 0.01 0.01 0.03 0.02 0.01 0.02 0.00 0.00 0.00 0.00 0.00 0.02 0.04
0.01 0.00 0.00 0.01 0.00 0.01 0.01 0.01 0.02 0.02 0.01 0.00 0.00 0.00 0.04 0.12 0.05 0.02 0.01 0.02 0.02 0.04 0.08 0.01 0.01 0.00 0.00 0.00 0.00 0.00 0.01 0.02 0.05 0.06 0.04 0.02 0.01 0.11 0.09 0.01 0.00 0.00 0.00 0.00 0.00 0.00 0.00 0.00 0.00 0.00 0.00 0.00 0.01 0.01
0.02 0.01 0.01 0.01 0.01 0.00 0.01 0.01 0.01 0.01 0.02 0.00 0.01 0.02 0.04 0.05 0.09 0.03 0.05 0.05 0.02 0.05 0.09 0.02 0.00 0.00 0.00 0.00 0.00 0.00 0.00 0.01 0.02 0.04 0.01 0.00 0.01 0.09 0.07 0.01 0.00 0.00 0.00 0.00 0.00 0.00 0.00 0.00 0.00 0.00 0.01 0.00 0.00 0.00
0.02 0.02 0.02 0.01 0.00 0.00 0.00 0.01 0.00 0.00 0.00 0.03 0.04 0.04 0.03 0.03 0.03 0.05 0.01 0.00 0.05 0.07 0.08 0.05 0.01 0.02 0.01 0.02 0.05 0.03 0.07 0.09 0.07 0.02 0.01 0.01 0.02 0.09 0.09 0.00 0.00 0.00 0.00 0.00 0.00 0.00 0.01 0.00 0.00 0.00 0.00 0.00 0.00 0.00
0.03 0.02 0.01 0.01 0.00 0.00 0.00 0.01 0.00 0.01 0.05 0.06 0.02 0.02 0.02 0.02 0.06 0.04 0.00 0.01 0.06 0.15 0.21 0.10 0.03 0.07 0.04 0.05 0.12 0.11 0.13 0.13 0.08 0.07 0.02 0.10 0.08 0.11 0.02 0.00 0.00 0.00 0.00 0.00 0.00 0.01 0.01 0.00 0.00 0.00 0.00 0.01 0.01 0.01
0.01 0.01 0.01 0.01 0.01 0.00 0.00 0.02 0.03 0.05 0.07 0.06 0.06 0.09 0.05 0.02 0.01 0.04 0.11 0.12 0.18 0.17 0.14 0.07 0.01 0.02 0.02 0.04 0.10 0.22 0.24 0.08 0.09 0.04 0.05 0.12 0.05 0.04 0.08 0.08 0.09 0.07 0.03 0.04 0.12 0.08 0.05 0.03 0.01 0.00 0.00 0.01 0.02 0.03
0.00 0.01 0.02 0.02 0.02 0.01 0.01 0.01 0.03 0.06 0.11 0.15 0.15 0.12 0.05 0.04 0.13 0.20 0.24 0.16 0.12 0.11 0.06 0.02 0.01 0.02 0.03 0.03 0.07 0.13 0.14 0.09 0.11 0.07 0.11 0.10 0.05 0.08 0.15 0.25 0.18 0.15 0.07 0.05 0.05 0.02 0.02 0.01 0.01 0.01 0.01 0.00 0.01 0.03
0.00 0.01 0.03 0.03 0.02 0.00 0.00 0.02 0.06 0.16 0.20 0.12 0.16 0.20 0.29 0.31 0.40 0.23 0.14 0.06 0.06 0.04 0.05 0.05 0.10 0.06 0.08 0.04 0.08 0.12 0.14 0.11 0.07 0.16 0.21 0.08 0.13 0.26 0.29 0.37 0.17 0.05 0.02 0.00 0.00 0.00 0.00 0.00 0.00 0.01 0.01 0.00 0.00 0.03
0.02 0.02 0.02 0.03 0.02 0.00 0.02 0.07 0.16 0.25 0.35 0.44 0.41 0.35 0.28 0.25 0.24 0.14 0.11 0.15 0.15 0.08 0.07 0.08 0.37 0.21 0.11 0.16 0.19 0.23 0.19 0.06 0.10 0.31 0.13 0.08 0.15 0.36 0.28 0.09 0.02 0.00 0.00 0.00 0.00 0.00 0.01 0.01 0.01 0.01 0.01 0.00 0.01 0.01
0.00 0.01 0.03 0.05 0.03 0.04 0.06 0.14 0.38 0.66 0.62 0.38 0.23 0.20 0.08 0.12 0.01 0.02 0.09 0.12 0.11 0.12 0.20 0.35 0.55 0.41 0.21 0.19 0.13 0.16 0.10 0.12 0.14 0.12 0.11 0.21 0.18 0.07 0.02 0.00 0.00 0.00 0.00 0.00 0.01 0.01 0.02 0.02 0.01 0.01 0.01 0.01 0.01 0.01
0.00 0.00 0.01 0.03 0.04 0.06 0.08 0.24 0.68 0.78 0.61 0.48 0.25 0.09 0.01 0.01 0.02 0.04 0.05 0.07 0.08 0.32 0.62 0.92 0.58 0.30 0.31 0.21 0.07 0.06 0.11 0.11 0.10 0.20 0.32 0.23 0.10 0.05 0.00 0.00 0.00 0.00 0.00 0.01 0.02 0.02 0.02 0.02 0.02 0.02 0.02 0.01 0.01 0.02
0.00 0.01 0.01 0.02 0.04 0.07 0.16 0.33 0.85 0.94 0.84 0.37 0.20 0.10 0.12 0.09 0.06 0.05 0.06 0.15 0.24 0.37 0.62 0.74 0.49 0.21 0.16 0.06 0.08 0.03 0.03 0.04 0.13 0.28 0.21 0.07 0.01 0.00 0.00 0.00 0.00 0.00 0.00 0.01 0.02 0.04 0.06 0.06 0.07 0.06 0.05 0.04 0.03 0.04
0.02 0.02 0.01 0.05 0.10 0.25 0.38 0.65 0.81 0.86 0.51 0.22 0.04 0.00 0.00 0.02 0.02 0.03 0.08 0.12 0.21 0.35 0.41 0.44 0.44 0.25 0.17 0.18 0.11 0.09 0.17 0.24 0.23 0.22 0.08 0.00 0.00 0.00 0.00 0.00 0.00 0.01 0.01 0.02 0.02 0.03 0.06 0.10 0.13 0.13 0.11 0.09 0.08 0.08
0.04 0.02 0.01 0.05 0.17 0.53 0.65 0.66 0.86 0.54 0.24 0.02 0.01 0.01 0.02 0.03 0.06 0.05 0.06 0.10 0.15 0.30 0.50 0.59 0.35 0.21 0.16 0.10 0.12 0.32 0.41 0.23 0.11 0.05 0.01 0.00 0.00 0.00 0.00 0.01 0.01 0.01 0.02 0.02 0.03 0.04 0.05 0.06 0.07 0.09 0.12 0.11 0.10 0.09
0.03 0.02 0.05 0.11 0.28 0.64 0.72 0.50 0.35 0.37 0.03 0.00 0.00 0.00 0.01 0.03 0.03 0.05 0.07 0.07 0.17 0.32 0.47 0.28 0.31 0.17 0.12 0.21 0.29 0.16 0.06 0.03 0.01 0.00 0.00 0.01 0.00 0.00 0.01 0.01 0.02 0.02 0.02 0.03 0.03 0.04 0.04 0.07 0.09 0.09 0.10 0.11 0.13 0.13
0.10 0.11 0.12 0.21 0.59 0.84 0.63 0.33 0.19 0.11 0.03 0.02 0.01 0.01 0.05 0.03 0.05 0.04 0.07 0.13 0.18 0.40 0.31 0.14 0.05 0.07 0.10 0.08 0.06 0.02 0.02 0.02 0.01 0.01 0.02 0.01 0.01 0.01 0.02 0.02 0.02 0.04 0.04 0.04 0.05 0.05 0.06 0.10 0.12 0.12 0.11 0.12 0.12 0.10
0.05 0.06 0.11 0.33 0.65 0.63 0.42 0.15 0.15 0.05 0.02 0.02 0.01 0.05 0.03 0.01 0.02 0.03 0.04 0.07 0.19 0.20 0.10 0.07 0.11 0.11 0.06 0.04 0.02 0.01 0.02 0.01 0.02 0.03 0.03 0.02 0.01 0.01 0.03 0.07 0.07 0.05 0.02 0.02 0.04 0.06 0.08 0.15 0.23 0.24 0.16 0.10 0.08 0.08
0.09 0.16 0.31 0.44 0.72 0.71 0.51 0.08 0.06 0.09 0.09 0.05 0.04 0.05 0.04 0.03 0.03 0.02 0.03 0.09 0.09 0.05 0.03 0.02 0.02 0.01 0.00 0.01 0.02 0.03 0.03 0.01 0.00 0.01 0.01 0.02 0.02 0.04 0.08 0.09 0.06 0.04 0.03 0.02 0.02 0.04 0.08 0.15 0.21 0.26 0.22 0.12 0.08 0.07
0.07 0.16 0.30 0.37 0.55 0.44 0.22 0.04 0.10 0.06 0.09 0.08 0.05 0.08 0.06 0.03 0.02 0.02 0.04 0.05 0.06 0.03 0.01 0.01 0.01 0.01 0.01 0.02 0.04 0.04 0.02 0.01 0.01 0.02 0.04 0.05 0.04 0.04 0.06 0.05 0.03 0.04 0.06 0.05 0.03 0.02 0.03 0.06 0.11 0.15 0.16 0.14 0.11 0.09
0.14 0.27 0.31 0.33 0.32 0.20 0.12 0.14 0.13 0.11 0.14 0.09 0.13 0.07 0.05 0.08 0.04 0.06 0.10 0.12 0.06 0.01 0.00 0.01 0.01 0.01 0.03 0.05 0.05 0.03 0.03 0.03 0.04 0.08 0.08 0.07 0.08 0.10 0.07 0.05 0.04 0.04 0.04 0.04 0.04 0.02 0.01 0.01 0.04 0.06 0.08 0.09 0.09 0.08
0.43 0.27 0.20 0.19 0.17 0.20 0.16 0.09 0.06 0.12 0.16 0.13 0.17 0.14 0.12 0.10 0.12 0.08 0.12 0.15 0.06 0.01 0.01 0.01 0.04 0.04 0.04 0.04 0.04 0.03 0.04 0.06 0.08 0.11 0.14 0.14 0.12 0.11 0.10 0.09 0.07 0.06 0.04 0.06 0.07 0.06 0.04 0.03 0.03 0.03 0.03 0.04 0.04 0.04
0.21 0.15 0.22 0.26 0.34 0.35 0.36 0.32 0.31 0.26 0.23 0.21 0.19 0.14 0.06 0.09 0.15 0.26 0.27 0.23 0.08 0.05 0.04 0.04 0.05 0.06 0.05 0.05 0.05 0.03 0.06 0.08 0.09 0.11 0.16 0.11 0.13 0.14 0.14 0.11 0.10 0.14 0.04 0.04 0.05 0.05 0.05 0.06 0.03 0.02 0.05 0.04 0.03 0.04
0.26 0.13 0.15 0.08 0.04 0.10 0.16 0.20 0.20 0.18 0.21 0.26 0.26 0.21 0.21 0.16 0.17 0.18 0.13 0.09 0.07 0.05 0.03 0.03 0.05 0.06 0.06 0.07 0.07 0.06 0.06 0.08 0.09 0.09 0.08 0.06 0.05 0.05 0.08 0.08 0.09 0.08 0.03 0.02 0.04 0.05 0.06 0.06 0.06 0.02 0.03 0.05 0.04 0.06
0.20 0.09 0.04 0.03 0.01 0.02 0.04 0.05 0.07 0.08 0.09 0.05 0.08 0.10 0.15 0.15 0.16 0.12 0.09 0.07 0.06 0.04 0.02 0.02 0.02 0.03 0.04 0.07 0.08 0.08 0.09 0.10 0.10 0.07 0.05 0.04 0.05 0.10 0.08 0.04 0.02 0.01 0.02 0.01 0.03 0.04 0.04 0.06 0.06 0.05 0.03 0.04 0.03 0.02
0.07 0.04 0.00 0.01 0.01 0.01 0.06 0.08 0.12 0.06 0.03 0.03 0.06 0.09 0.11 0.05 0.07 0.05 0.03 0.01 0.01 0.02 0.02 0.03 0.03 0.03 0.04 0.04 0.05 0.07 0.10 0.12 0.12 0.09 0.06 0.07 0.12 0.15 0.05 0.02 0.03 0.04 0.04 0.04 0.02 0.01 0.01 0.01 0.02 0.03 0.04 0.05 0.03 0.02
0.01 0.00 0.01 0.01 0.01 0.03 0.11 0.04 0.05 0.03 0.01 0.01 0.01 0.01 0.01 0.02 0.03 0.02 0.01 0.01 0.01 0.03 0.04 0.04 0.04 0.05 0.05 0.05 0.05 0.05 0.11 0.12 0.08 0.09 0.07 0.05 0.08 0.05 0.04 0.04 0.04 0.06 0.08 0.08 0.08 0.06 0.02 0.01 0.01 0.01 0.02 0.04 0.05 0.05
0.01 0.02 0.03 0.03 0.04 0.07 0.04 0.02 0.01 0.01 0.00 0.01 0.01 0.01 0.02 0.04 0.05 0.02 0.01 0.01 0.03 0.04 0.03 0.03 0.04 0.06 0.06 0.06 0.08 0.07 0.08 0.08 0.03 0.03 0.05 0.05 0.07 0.09 0.09 0.07 0.07 0.05 0.05 0.05 0.06 0.10 0.12 0.07 0.06 0.08 0.06 0.05 0.08 0.09
0.02 0.04 0.04 0.02 0.01 0.02 0.03 0.01 0.00 0.00 0.01 0.01 0.05 0.06 0.06 0.09 0.10 0.07 0.03 0.02 0.02 0.03 0.05 0.05 0.05 0.06 0.07 0.10 0.10 0.10 0.09 0.06 0.04 0.04 0.05 0.06 0.08 0.08 0.07 0.06 0.05 0.04 0.04 0.04 0.05 0.07 0.11 0.15 0.20 0.13 0.08 0.09 0.10 0.09
0.01 0.02 0.03 0.03 0.02 0.03 0.04 0.02 0.01 0.02 0.03 0.09 0.11 0.04 0.04 0.08 0.10 0.07 0.03 0.05 0.07 0.08 0.08 0.09 0.11 0.11 0.12 0.13 0.13 0.12 0.09 0.07 0.06 0.06 0.06 0.06 0.07 0.07 0.07 0.06 0.06 0.06 0.06 0.07 0.08 0.10 0.11 0.13 0.14 0.13 0.12 0.12 0.12 0.12

GFSWCAN_prec_precacc24_198.txt.gz
Total_Precipitation_Accumulation
0.01 0.02 0.04 0.04 0.03 0.03 0.04 0.02 0.00 0.00 0.00 0.00 0.00 0.00 0.00 0.06 0.13 0.06 0.03 0.02 0.08 0.10 0.04 0.00 0.00 0.00 0.03 0.16 0.20 0.16 0.32 0.37 0.54 0.52 0.41 0.31 0.18 0.11 0.10 0.05 0.06 0.11 0.24 0.29 0.32 0.43 0.22 0.06 0.03 0.07 0.05 0.02 0.02 0.02
0.02 0.01 0.01 0.02 0.01 0.02 0.00 0.00 0.00 0.00 0.00 0.00 0.00 0.00 0.01 0.05 0.14 0.06 0.03 0.03 0.07 0.19 0.09 0.00 0.00 0.01 0.03 0.13 0.25 0.35 0.53 0.56 0.90 0.94 0.70 0.52 0.41 0.28 0.14 0.10 0.05 0.16 0.19 0.25 0.34 0.34 0.16 0.09 0.05 0.02 0.03 0.03 0.03 0.02
0.02 0.02 0.01 0.01 0.02 0.02 0.00 0.00 0.00 0.00 0.00 0.00 0.00 0.00 0.04 0.09 0.15 0.05 0.09 0.10 0.24 0.34 0.16 0.03 0.00 0.00 0.00 0.01 0.05 0.36 0.21 0.34 0.44 0.61 0.63 0.47 0.30 0.19 0.18 0.14 0.10 0.05 0.03 0.10 0.11 0.03 0.03 0.03 0.05 0.02 0.01 0.03 0.03 0.01
0.02 0.01 0.01 0.01 0.01 0.02 0.00 0.00 0.00 0.00 0.00 0.00 0.00 0.00 0.04 0.09 0.17 0.10 0.11 0.17 0.38 0.40 0.16 0.02 0.00 0.00 0.00 0.00 0.00 0.02 0.03 0.07 0.20 0.29 0.44 0.32 0.18 0.12 0.10 0.07 0.05 0.03 0.02 0.02 0.01 0.01 0.01 0.01 0.03 0.03 0.01 0.01 0.02 0.02
0.02 0.00 0.00 0.02 0.01 0.00 0.00 0.00 0.00 0.00 0.00 0.00 0.00 0.00 0.02 0.07 0.20 0.17 0.27 0.15 0.11 0.17 0.14 0.04 0.02 0.00 0.00 0.00 0.00 0.01 0.02 0.03 0.10 0.20 0.17 0.08 0.06 0.07 0.03 0.02 0.00 0.01 0.01 0.03 0.02 0.01 0.02 0.00 0.00 0.00 0.00 0.00 0.00 0.00
0.01 0.00 0.00 0.01 0.00 0.00 0.00 0.00 0.00 0.00 0.00 0.00 0.00 0.00 0.04 0.12 0.05 0.02 0.01 0.02 0.02 0.04 0.08 0.01 0.01 0.00 0.00 0.00 0.00 0.00 0.01 0.02 0.06 0.06 0.03 0.02 0.01 0.11 0.09 0.01 0.00 0.00 0.00 0.00 0.00 0.00 0.00 0.00 0.00 0.00 0.00 0.00 0.00 0.00
0.01 0.00 0.00 0.01 0.00 0.00 0.00 0.00 0.00 0.01 0.01 0.00 0.01 0.02 0.04 0.03 0.09 0.03 0.05 0.05 0.01 0.04 0.09 0.02 0.00 0.00 0.00 0.00 0.00 0.00 0.00 0.01 0.02 0.04 0.01 0.00 0.00 0.08 0.07 0.01 0.00 0.00 0.00 0.00 0.00 0.01 0.00 0.00 0.00 0.00 0.00 0.00 0.00 0.00
0.01 0.01 0.01 0.00 0.00 0.00 0.00 0.01 0.00 0.00 0.00 0.01 0.02 0.01 0.00 0.00 0.02 0.05 0.01 0.00 0.02 0.06 0.06 0.04 0.01 0.02 0.01 0.02 0.05 0.03 0.07 0.09 0.07 0.02 0.01 0.01 0.02 0.08 0.10 0.00 0.00 0.00 0.00 0.00 0.00 0.00 0.01 0.00 0.00 0.00 0.00 0.00 0.00 0.00
0.01 0.01 0.00 0.00 0.00 0.00 0.00 0.01 0.00 0.00 0.03 0.03 0.00 0.00 0.01 0.01 0.05 0.04 0.00 0.01 0.05 0.08 0.12 0.09 0.03 0.07 0.04 0.05 0.12 0.10 0.13 0.13 0.08 0.07 0.02 0.10 0.08 0.12 0.02 0.00 0.00 0.00 0.00 0.00 0.00 0.00 0.00 0.00 0.00 0.00 0.00 0.00 0.01 0.00
0.01 0.01 0.00 0.01 0.01 0.00 0.00 0.01 0.03 0.04 0.04 0.01 0.01 0.03 0.03 0.01 0.01 0.04 0.10 0.11 0.18 0.16 0.11 0.05 0.01 0.02 0.02 0.04 0.07 0.11 0.15 0.07 0.08 0.04 0.05 0.12 0.06 0.04 0.08 0.08 0.09 0.07 0.03 0.04 0.11 0.07 0.05 0.03 0.01 0.00 0.00 0.00 0.02 0.02
0.00 0.01 0.02 0.02 0.02 0.01 0.01 0.01 0.03 0.04 0.02 0.04 0.10 0.10 0.05 0.03 0.10 0.17 0.22 0.13 0.12 0.11 0.06 0.02 0.01 0.02 0.03 0.03 0.06 0.08 0.11 0.09 0.12 0.07 0.11 0.10 0.05 0.07 0.16 0.25 0.18 0.15 0.07 0.05 0.05 0.02 0.02 0.02 0.01 0.01 0.01 0.01 0.01 0.01
0.00 0.01 0.03 0.03 0.02 0.00 0.00 0.01 0.02 0.03 0.10 0.07 0.10 0.10 0.17 0.21 0.28 0.19 0.10 0.05 0.06 0.04 0.05 0.05 0.11 0.08 0.08 0.04 0.07 0.08 0.12 0.11 0.07 0.16 0.21 0.08 0.12 0.24 0.29 0.37 0.17 0.05 0.02 0.00 0.00 0.00 0.00 0.00 0.00 0.01 0.01 0.00 0.00 0.01
0.02 0.02 0.03 0.03 0.02 0.00 0.00 0.03 0.08 0.12 0.17 0.23 0.23 0.24 0.22 0.19 0.19 0.12 0.14 0.17 0.15 0.08 0.07 0.09 0.45 0.31 0.11 0.08 0.13 0.14 0.17 0.06 0.08 0.19 0.10 0.08 0.16 0.32 0.26 0.08 0.02 0.00 0.00 0.00 0.00 0.00 0.01 0.01 0.01 0.01 0.01 0.00 0.00 0.00
0.00 0.01 0.04 0.05 0.02 0.03 0.04 0.11 0.26 0.50 0.47 0.29 0.17 0.12 0.06 0.07 0.02 0.02 0.14 0.14 0.11 0.12 0.20 0.35 0.56 0.42 0.21 0.19 0.11 0.14 0.08 0.11 0.12 0.09 0.11 0.22 0.23 0.12 0.02 0.00 0.00 0.00 0.00 0.00 0.01 0.01 0.02 0.02 0.01 0.01 0.01 0.01 0.02 0.01
0.00 0.00 0.00 0.03 0.03 0.05 0.07 0.18 0.48 0.66 0.54 0.34 0.22 0.06 0.00 0.01 0.02 0.04 0.05 0.05 0.07 0.31 0.61 0.91 0.59 0.30 0.31 0.24 0.08 0.06 0.09 0.10 0.07 0.16 0.33 0.27 0.26 0.14 0.01 0.00 0.00 0.00 0.00 0.01 0.02 0.02 0.02 0.02 0.02 0.02 0.02 0.01 0.01 0.02
0.00 0.01 0.00 0.02 0.04 0.09 0.13 0.24 0.70 0.81 0.79 0.26 0.17 0.03 0.04 0.07 0.05 0.05 0.06 0.13 0.22 0.35 0.60 0.71 0.47 0.20 0.15 0.07 0.10 0.04 0.03 0.04 0.14 0.39 0.32 0.13 0.06 0.01 0.00 0.00 0.00 0.00 0.00 0.01 0.02 0.03 0.04 0.04 0.05 0.05 0.05 0.04 0.03 0.04
0.01 0.01 0.00 0.05 0.10 0.18 0.29 0.56 0.71 0.75 0.43 0.17 0.04 0.00 0.00 0.01 0.01 0.03 0.08 0.12 0.19 0.30 0.36 0.43 0.44 0.25 0.20 0.23 0.14 0.23 0.33 0.34 0.30 0.27 0.11 0.00 0.00 0.00 0.00 0.00 0.00 0.00 0.01 0.01 0.02 0.02 0.05 0.08 0.11 0.11 0.09 0.08 0.08 0.08
0.01 0.00 0.02 0.05 0.16 0.48 0.57 0.62 0.81 0.53 0.22 0.01 0.01 0.00 0.01 0.02 0.04 0.04 0.06 0.11 0.15 0.29 0.46 0.59 0.34 0.20 0.16 0.11 0.14 0.34 0.44 0.25 0.12 0.06 0.01 0.00 0.00 0.00 0.00 0.01 0.01 0.01 0.01 0.02 0.02 0.03 0.03 0.04 0.05 0.07 0.10 0.11 0.11 0.09
0.05 0.04 0.06 0.14 0.28 0.60 0.75 0.52 0.36 0.38 0.03 0.00 0.00 0.00 0.01 0.02 0.02 0.04 0.06 0.07 0.17 0.32 0.47 0.29 0.30 0.17 0.12 0.21 0.29 0.19 0.10 0.04 0.02 0.00 0.01 0.02 0.00 0.00 0.00 0.01 0.01 0.02 0.01 0.02 0.03 0.03 0.03 0.06 0.05 0.06 0.09 0.11 0.14 0.13
0.11 0.13 0.13 0.23 0.79 1.09 0.73 0.41 0.21 0.11 0.03 0.02 0.01 0.01 0.05 0.03 0.04 0.03 0.03 0.08 0.16 0.39 0.33 0.15 0.05 0.07 0.09 0.08 0.06 0.03 0.02 0.02 0.01 0.01 0.01 0.01 0.01 0.01 0.01 0.02 0.02 0.04 0.04 0.03 0.04 0.04 0.04 0.06 0.06 0.10 0.11 0.13 0.12 0.11
0.05 0.06 0.12 0.38 0.75 0.72 0.53 0.27 0.23 0.06 0.02 0.02 0.01 0.06 0.04 0.01 0.02 0.04 0.04 0.06 0.19 0.20 0.10 0.07 0.11 0.11 0.06 0.04 0.02 0.01 0.02 0.01 0.01 0.02 0.03 0.02 0.01 0.01 0.03 0.07 0.06 0.04 0.03 0.02 0.03 0.04 0.06 0.09 0.14 0.17 0.15 0.10 0.09 0.09
0.09 0.18 0.32 0.47 0.83 0.88 0.68 0.09 0.07 0.11 0.10 0.05 0.04 0.06 0.04 0.03 0.03 0.03 0.04 0.08 0.09 0.05 0.03 0.02 0.03 0.03 0.02 0.01 0.02 0.03 0.03 0.01 0.00 0.01 0.01 0.02 0.02 0.04 0.08 0.10 0.06 0.04 0.04 0.02 0.02 0.04 0.07 0.13 0.19 0.25 0.22 0.13 0.08 0.07
0.08 0.18 0.31 0.38 0.58 0.49 0.27 0.06 0.14 0.07 0.11 0.09 0.05 0.07 0.06 0.03 0.02 0.02 0.04 0.05 0.06 0.03 0.01 0.01 0.01 0.01 0.01 0.02 0.04 0.04 0.02 0.01 0.01 0.01 0.03 0.04 0.04 0.04 0.07 0.06 0.03 0.05 0.07 0.06 0.03 0.02 0.04 0.07 0.11 0.16 0.16 0.15 0.12 0.09
0.16 0.29 0.33 0.37 0.36 0.21 0.15 0.19 0.19 0.14 0.16 0.10 0.13 0.07 0.04 0.09 0.05 0.08 0.10 0.13 0.06 0.01 0.01 0.01 0.01 0.02 0.03 0.05 0.05 0.03 0.02 0.02 0.04 0.06 0.07 0.07 0.08 0.10 0.06 0.05 0.05 0.05 0.05 0.06 0.05 0.03 0.01 0.01 0.04 0.06 0.09 0.10 0.10 0.09
0.64 0.43 0.25 0.21 0.20 0.23 0.18 0.11 0.08 0.18 0.26 0.19 0.24 0.16 0.14 0.14 0.16 0.15 0.23 0.28 0.16 0.08 0.05 0.03 0.03 0.03 0.04 0.04 0.04 0.03 0.04 0.05 0.08 0.10 0.13 0.15 0.12 0.11 0.09 0.09 0.08 0.09 0.07 0.07 0.08 0.07 0.05 0.04 0.03 0.02 0.03 0.04 0.04 0.05
0.22 0.24 0.36 0.32 0.36 0.40 0.44 0.37 0.35 0.33 0.28 0.26 0.30 0.21 0.12 0.14 0.20 0.43 0.44 0.35 0.17 0.14 0.12 0.10 0.09 0.06 0.05 0.06 0.05 0.03 0.05 0.07 0.09 0.11 0.15 0.11 0.12 0.15 0.15 0.11 0.10 0.14 0.04 0.04 0.05 0.05 0.05 0.06 0.05 0.03 0.05 0.04 0.02 0.04
0.27 0.13 0.16 0.09 0.05 0.12 0.17 0.24 0.25 0.23 0.26 0.29 0.30 0.24 0.30 0.37 0.35 0.30 0.19 0.15 0.15 0.14 0.12 0.10 0.10 0.10 0.08 0.07 0.07 0.06 0.05 0.07 0.09 0.09 0.08 0.07 0.07 0.09 0.14 0.13 0.10 0.08 0.03 0.02 0.03 0.05 0.06 0.07 0.08 0.05 0.03 0.04 0.04 0.06
0.21 0.10 0.04 0.02 0.01 0.02 0.04 0.06 0.09 0.09 0.11 0.07 0.09 0.14 0.18 0.18 0.22 0.19 0.16 0.14 0.12 0.10 0.08 0.06 0.05 0.05 0.05 0.07 0.08 0.08 0.09 0.09 0.09 0.06 0.04 0.04 0.07 0.13 0.11 0.06 0.03 0.01 0.02 0.02 0.03 0.04 0.04 0.06 0.07 0.09 0.05 0.04 0.03 0.02
0.06 0.04 0.00 0.00 0.01 0.01 0.07 0.10 0.13 0.06 0.03 0.03 0.06 0.11 0.13 0.08 0.11 0.09 0.06 0.04 0.03 0.03 0.03 0.03 0.03 0.03 0.04 0.04 0.05 0.07 0.11 0.11 0.10 0.08 0.05 0.06 0.11 0.15 0.05 0.02 0.02 0.03 0.04 0.04 0.02 0.02 0.01 0.01 0.02 0.04 0.05 0.06 0.04 0.02
0.00 0.00 0.01 0.01 0.01 0.06 0.13 0.05 0.05 0.03 0.01 0.01 0.01 0.01 0.02 0.04 0.06 0.03 0.02 0.01 0.01 0.03 0.03 0.04 0.04 0.05 0.05 0.04 0.05 0.05 0.11 0.12 0.08 0.08 0.07 0.05 0.08 0.06 0.04 0.04 0.04 0.05 0.07 0.09 0.09 0.07 0.02 0.02 0.02 0.02 0.03 0.06 0.07 0.06
0.01 0.02 0.03 0.04 0.04 0.08 0.04 0.02 0.01 0.01 0.00 0.00 0.01 0.01 0.04 0.06 0.06 0.03 0.01 0.01 0.02 0.03 0.02 0.03 0.03 0.04 0.05 0.05 0.08 0.08 0.08 0.08 0.04 0.04 0.04 0.05 0.07 0.09 0.09 0.07 0.06 0.05 0.05 0.05 0.05 0.09 0.12 0.08 0.08 0.12 0.09 0.08 0.11 0.11
0.02 0.03 0.05 0.02 0.01 0.01 0.03 0.01 0.00 0.00 0.01 0.01 0.07 0.10 0.13 0.13 0.12 0.08 0.04 0.02 0.02 0.03 0.04 0.05 0.06 0.06 0.07 0.10 0.10 0.11 0.10 0.08 0.06 0.04 0.05 0.07 0.08 0.08 0.07 0.06 0.05 0.04 0.04 0.04 0.05 0.07 0.10 0.14 0.22 0.15 0.09 0.11 0.12 0.11
0.01 0.02 0.04 0.04 0.02 0.01 0.02 0.01 0.00 0.01 0.02 0.10 0.13 0.06 0.07 0.10 0.12 0.09 0.03 0.04 0.06 0.07 0.07 0.09 0.11 0.10 0.11 0.13 0.12 0.11 0.10 0.10 0.08 0.06 0.06 0.06 0.07 0.07 0.07 0.06 0.06 0.06 0.06 0.07 0.08 0.10 0.11 0.13 0.16 0.16 0.15 0.14 0.13 0.12

GFSWCAN_prec_precacc24_204.txt.gz
Total_Precipitation_Accumulation
0.01 0.01 0.01 0.03 0.04 0.05 0.08 0.08 0.09 0.10 0.12 0.15 0.14 0.16 0.17 0.17 0.13 0.09 0.10 0.10 0.21 0.31 0.32 0.11 0.06 0.04 0.01 0.01 0.06 0.08 0.05 0.08 0.15 0.28 0.31 0.27 0.17 0.11 0.10 0.05 0.06 0.11 0.23 0.28 0.31 0.39 0.22 0.06 0.03 0.07 0.05 0.02 0.02 0.02
0.00 0.00 0.00 0.01 0.00 0.00 0.00 0.00 0.00 0.01 0.02 0.03 0.03 0.04 0.06 0.08 0.09 0.05 0.06 0.07 0.10 0.16 0.14 0.04 0.01 0.00 0.00 0.00 0.03 0.09 0.05 0.07 0.29 0.43 0.45 0.43 0.39 0.28 0.14 0.10 0.05 0.16 0.19 0.25 0.34 0.34 0.16 0.10 0.06 0.02 0.03 0.04 0.03 0.02
0.00 0.00 0.00 0.00 0.01 0.01 0.00 0.00 0.00 0.00 0.00 0.00 0.00 0.00 0.00 0.02 0.06 0.03 0.08 0.02 0.03 0.07 0.06 0.03 0.01 0.00 0.00 0.00 0.01 0.16 0.07 0.10 0.19 0.36 0.42 0.29 0.22 0.18 0.18 0.14 0.10 0.05 0.03 0.10 0.11 0.03 0.03 0.03 0.05 0.02 0.01 0.03 0.03 0.01
0.01 0.00 0.00 0.00 0.01 0.01 0.00 0.00 0.00 0.00 0.00 0.00 0.00 0.00 0.00 0.00 0.07 0.04 0.09 0.01 0.05 0.07 0.06 0.02 0.00 0.00 0.00 0.00 0.00 0.01 0.02 0.06 0.18 0.27 0.40 0.29 0.15 0.09 0.08 0.05 0.04 0.03 0.02 0.02 0.01 0.01 0.01 0.01 0.03 0.03 0.01 0.01 0.02 0.02
0.01 0.00 0.00 0.01 0.01 0.00 0.00 0.00 0.00 0.00 0.00 0.00 0.00 0.00 0.00 0.02 0.12 0.12 0.24 0.14 0.10 0.11 0.11 0.04 0.02 0.00 0.00 0.00 0.00 0.01 0.02 0.03 0.10 0.20 0.16 0.08 0.06 0.07 0.03 0.02 0.00 0.01 0.01 0.03 0.02 0.01 0.02 0.00 0.00 0.00 0.00 0.00 0.00 0.00
0.00 0.00 0.00 0.01 0.00 0.00 0.00 0.00 0.00 0.00 0.00 0.00 0.00 0.00 0.03 0.08 0.04 0.02 0.01 0.02 0.02 0.03 0.07 0.01 0.01 0.00 0.00 0.00 0.00 0.00 0.01 0.02 0.06 0.06 0.03 0.02 0.01 0.11 0.08 0.01 0.00 0.00 0.00 0.00 0.00 0.00 0.00 0.00 0.00 0.00 0.00 0.00 0.00 0.00
0.00 0.00 0.00 0.01 0.00 0.00 0.00 0.00 0.00 0.00 0.00 0.00 0.01 0.02 0.04 0.02 0.09 0.03 0.05 0.05 0.00 0.03 0.09 0.02 0.00 0.00 0.00 0.00 0.00 0.00 0.00 0.01 0.02 0.04 0.01 0.00 0.00 0.07 0.06 0.01 0.00 0.00 0.00 0.00 0.00 0.01 0.00 0.00 0.00 0.00 0.00 0.00 0.00 0.00
0.00 0.00 0.00 0.00 0.00 0.00 0.00 0.00 0.00 0.00 0.00 0.00 0.00 0.00 0.00 0.00 0.02 0.05 0.01 0.00 0.01 0.04 0.06 0.04 0.01 0.02 0.01 0.02 0.05 0.03 0.07 0.09 0.07 0.02 0.01 0.01 0.02 0.09 0.10 0.00 0.00 0.00 0.00 0.00 0.00 0.00 0.01 0.00 0.00 0.00 0.00 0.00 0.00 0.00
0.00 0.00 0.00 0.00 0.00 0.00 0.00 0.00 0.00 0.00 0.00 0.00 0.00 0.00 0.01 0.01 0.05 0.04 0.00 0.01 0.05 0.07 0.09 0.06 0.02 0.07 0.04 0.05 0.12 0.10 0.13 0.13 0.07 0.06 0.02 0.09 0.08 0.12 0.02 0.00 0.00 0.00 0.00 0.00 0.00 0.00 0.00 0.00 0.00 0.00 0.00 0.00 0.01 0.00
0.00 0.00 0.00 0.00 0.00 0.00 0.00 0.00 0.01 0.00 0.00 0.00 0.01 0.03 0.03 0.01 0.01 0.03 0.08 0.10 0.15 0.12 0.09 0.03 0.01 0.02 0.02 0.04 0.07 0.11 0.13 0.06 0.08 0.03 0.05 0.12 0.05 0.04 0.07 0.07 0.08 0.07 0.03 0.04 0.11 0.07 0.05 0.03 0.01 0.00 0.00 0.00 0.02 0.02
0.00 0.01 0.01 0.01 0.01 0.00 0.00 0.00 0.00 0.00 0.00 0.04 0.08 0.10 0.05 0.01 0.04 0.11 0.15 0.09 0.09 0.08 0.03 0.01 0.01 0.02 0.03 0.03 0.06 0.08 0.10 0.09 0.11 0.07 0.10 0.11 0.05 0.04 0.11 0.18 0.17 0.15 0.07 0.05 0.05 0.02 0.02 0.02 0.01 0.01 0.00 0.00 0.01 0.02
0.00 0.01 0.02 0.02 0.02 0.00 0.00 0.01 0.00 0.01 0.10 0.06 0.06 0.03 0.04 0.07 0.12 0.11 0.06 0.04 0.05 0.04 0.05 0.05 0.12 0.10 0.08 0.04 0.07 0.08 0.10 0.06 0.06 0.14 0.17 0.05 0.11 0.23 0.23 0.32 0.17 0.05 0.02 0.00 0.00 0.00 0.00 0.00 0.00 0.01 0.01 0.01 0.01 0.01
0.01 0.02 0.03 0.03 0.02 0.00 0.00 0.01 0.01 0.00 0.00 0.03 0.02 0.03 0.07 0.09 0.09 0.05 0.13 0.16 0.15 0.08 0.07 0.09 0.46 0.34 0.12 0.08 0.12 0.09 0.09 0.04 0.07 0.14 0.08 0.08 0.15 0.13 0.11 0.05 0.01 0.00 0.00 0.00 0.00 0.00 0.01 0.01 0.01 0.01 0.02 0.00 0.01 0.01
0.00 0.01 0.04 0.05 0.02 0.02 0.01 0.01 0.03 0.02 0.04 0.06 0.04 0.03 0.03 0.04 0.01 0.02 0.14 0.14 0.11 0.11 0.19 0.32 0.54 0.43 0.22 0.19 0.06 0.10 0.06 0.09 0.09 0.05 0.09 0.23 0.29 0.25 0.09 0.01 0.00 0.00 0.00 0.00 0.00 0.01 0.02 0.02 0.01 0.01 0.01 0.02 0.04 0.02
0.00 0.00 0.00 0.02 0.03 0.04 0.03 0.06 0.15 0.23 0.20 0.11 0.09 0.03 0.00 0.00 0.02 0.04 0.04 0.04 0.05 0.21 0.34 0.59 0.47 0.31 0.31 0.22 0.07 0.06 0.09 0.07 0.04 0.14 0.41 0.32 0.31 0.28 0.12 0.03 0.00 0.00 0.00 0.01 0.01 0.02 0.02 0.02 0.02 0.02 0.02 0.02 0.04 0.03
0.00 0.00 0.00 0.01 0.03 0.07 0.08 0.12 0.33 0.46 0.41 0.12 0.04 0.01 0.01 0.01 0.04 0.04 0.03 0.07 0.15 0.19 0.20 0.36 0.36 0.21 0.16 0.07 0.12 0.04 0.03 0.04 0.15 0.42 0.40 0.15 0.06 0.01 0.00 0.00 0.00 0.00 0.00 0.01 0.01 0.02 0.03 0.03 0.04 0.04 0.03 0.02 0.02 0.03
0.00 0.00 0.00 0.03 0.07 0.11 0.18 0.38 0.49 0.46 0.27 0.10 0.02 0.00 0.00 0.01 0.01 0.02 0.06 0.09 0.15 0.17 0.22 0.37 0.41 0.25 0.20 0.26 0.16 0.27 0.43 0.39 0.31 0.26 0.10 0.01 0.00 0.00 0.00 0.00 0.00 0.00 0.00 0.01 0.01 0.01 0.03 0.03 0.04 0.06 0.05 0.03 0.04 0.05
0.01 0.01 0.02 0.07 0.14 0.37 0.39 0.46 0.59 0.41 0.17 0.01 0.00 0.00 0.01 0.02 0.03 0.04 0.06 0.10 0.12 0.21 0.26 0.36 0.29 0.20 0.16 0.11 0.15 0.36 0.47 0.27 0.12 0.05 0.01 0.00 0.00 0.00 0.00 0.00 0.00 0.00 0.01 0.01 0.01 0.01 0.01 0.02 0.03 0.04 0.06 0.07 0.09 0.08
0.06 0.04 0.06 0.15 0.25 0.49 0.62 0.44 0.25 0.25 0.02 0.00 0.00 0.00 0.01 0.02 0.02 0.04 0.05 0.05 0.13 0.30 0.42 0.19 0.18 0.13 0.12 0.21 0.29 0.19 0.10 0.04 0.02 0.00 0.01 0.02 0.00 0.00 0.00 0.00 0.01 0.01 0.01 0.01 0.02 0.02 0.02 0.05 0.03 0.03 0.05 0.06 0.10 0.11
0.11 0.13 0.14 0.25 0.87 1.25 0.86 0.48 0.21 0.09 0.02 0.02 0.01 0.01 0.05 0.03 0.04 0.03 0.02 0.02 0.10 0.32 0.31 0.14 0.04 0.07 0.09 0.08 0.06 0.03 0.02 0.02 0.01 0.01 0.01 0.01 0.01 0.00 0.01 0.02 0.01 0.02 0.03 0.02 0.02 0.02 0.02 0.04 0.03 0.04 0.05 0.08 0.11 0.11
0.05 0.06 0.13 0.41 0.80 0.81 0.62 0.37 0.32 0.07 0.02 0.02 0.01 0.06 0.04 0.01 0.02 0.04 0.04 0.03 0.14 0.16 0.09 0.07 0.11 0.11 0.06 0.04 0.02 0.01 0.02 0.01 0.01 0.02 0.02 0.02 0.01 0.01 0.02 0.04 0.03 0.03 0.03 0.02 0.02 0.03 0.04 0.05 0.06 0.07 0.08 0.09 0.10 0.10
0.09 0.20 0.34 0.50 0.85 0.88 0.74 0.10 0.07 0.12 0.11 0.05 0.04 0.06 0.04 0.03 0.03 0.04 0.05 0.09 0.10 0.06 0.03 0.02 0.03 0.03 0.02 0.01 0.02 0.03 0.03 0.01 0.00 0.00 0.01 0.02 0.02 0.04 0.07 0.07 0.04 0.03 0.04 0.02 0.02 0.03 0.04 0.06 0.08 0.12 0.14 0.12 0.09 0.08
0.08 0.18 0.31 0.40 0.58 0.50 0.28 0.08 0.19 0.10 0.14 0.11 0.05 0.07 0.05 0.02 0.02 0.02 0.05 0.05 0.07 0.03 0.02 0.01 0.01 0.01 0.01 0.03 0.06 0.04 0.02 0.01 0.01 0.01 0.02 0.04 0.04 0.04 0.07 0.06 0.03 0.05 0.08 0.06 0.03 0.02 0.03 0.05 0.09 0.14 0.16 0.15 0.12 0.10
0.19 0.29 0.33 0.35 0.35 0.20 0.15 0.23 0.25 0.20 0.22 0.14 0.16 0.09 0.05 0.09 0.06 0.11 0.14 0.17 0.10 0.03 0.03 0.03 0.03 0.07 0.10 0.11 0.09 0.05 0.02 0.02 0.02 0.04 0.05 0.07 0.08 0.09 0.06 0.04 0.05 0.07 0.10 0.09 0.06 0.03 0.02 0.02 0.04 0.06 0.09 0.10 0.10 0.09
0.70 0.57 0.34 0.25 0.26 0.35 0.25 0.14 0.11 0.24 0.39 0.37 0.45 0.36 0.33 0.28 0.35 0.34 0.43 0.38 0.23 0.17 0.17 0.17 0.17 0.13 0.10 0.11 0.11 0.06 0.04 0.04 0.06 0.08 0.10 0.13 0.11 0.10 0.08 0.08 0.08 0.10 0.07 0.08 0.08 0.06 0.04 0.04 0.03 0.03 0.03 0.03 0.04 0.05
0.23 0.27 0.42 0.37 0.40 0.43 0.47 0.41 0.43 0.37 0.31 0.28 0.34 0.27 0.16 0.26 0.42 0.69 0.63 0.48 0.29 0.27 0.27 0.27 0.26 0.19 0.18 0.18 0.13 0.09 0.06 0.06 0.08 0.09 0.13 0.10 0.12 0.16 0.15 0.12 0.11 0.15 0.04 0.05 0.05 0.05 0.05 0.06 0.05 0.03 0.05 0.03 0.02 0.03
0.28 0.14 0.16 0.09 0.05 0.12 0.16 0.25 0.26 0.24 0.28 0.32 0.32 0.26 0.31 0.39 0.39 0.36 0.28 0.24 0.24 0.25 0.24 0.25 0.24 0.23 0.23 0.21 0.18 0.14 0.09 0.07 0.09 0.10 0.10 0.08 0.08 0.11 0.16 0.16 0.12 0.09 0.04 0.03 0.04 0.05 0.06 0.07 0.08 0.05 0.04 0.05 0.05 0.07
0.22 0.10 0.04 0.02 0.01 0.02 0.05 0.07 0.11 0.10 0.12 0.08 0.09 0.15 0.22 0.24 0.28 0.25 0.23 0.22 0.19 0.16 0.14 0.13 0.13 0.12 0.11 0.13 0.13 0.13 0.12 0.09 0.09 0.10 0.07 0.04 0.07 0.12 0.12 0.07 0.04 0.02 0.02 0.02 0.03 0.04 0.05 0.06 0.07 0.09 0.07 0.06 0.04 0.03
0.05 0.03 0.00 0.00 0.01 0.02 0.10 0.12 0.15 0.07 0.03 0.03 0.06 0.13 0.14 0.12 0.17 0.15 0.12 0.09 0.07 0.05 0.05 0.04 0.04 0.03 0.03 0.04 0.05 0.09 0.13 0.11 0.10 0.08 0.06 0.06 0.11 0.15 0.05 0.02 0.02 0.02 0.03 0.04 0.02 0.02 0.02 0.02 0.03 0.04 0.05 0.07 0.05 0.04
0.00 0.00 0.01 0.01 0.01 0.08 0.14 0.05 0.04 0.02 0.00 0.01 0.02 0.04 0.04 0.08 0.11 0.07 0.04 0.03 0.02 0.03 0.03 0.03 0.03 0.03 0.03 0.03 0.04 0.04 0.10 0.12 0.07 0.07 0.07 0.05 0.08 0.05 0.04 0.03 0.04 0.05 0.06 0.08 0.08 0.06 0.02 0.02 0.02 0.02 0.03 0.06 0.08 0.08
0.01 0.02 0.03 0.05 0.05 0.09 0.03 0.01 0.00 0.00 0.00 0.00 0.01 0.04 0.08 0.09 0.09 0.04 0.01 0.01 0.01 0.02 0.01 0.01 0.02 0.03 0.04 0.05 0.08 0.07 0.07 0.07 0.03 0.03 0.04 0.04 0.06 0.08 0.08 0.07 0.06 0.05 0.05 0.04 0.05 0.08 0.11 0.08 0.08 0.12 0.09 0.08 0.12 0.12
0.02 0.03 0.04 0.02 0.01 0.01 0.02 0.01 0.00 0.00 0.00 0.01 0.08 0.14 0.17 0.16 0.15 0.10 0.04 0.02 0.01 0.01 0.02 0.04 0.05 0.04 0.06 0.08 0.09 0.10 0.10 0.07 0.06 0.05 0.05 0.06 0.07 0.07 0.07 0.06 0.05 0.04 0.04 0.04 0.05 0.07 0.09 0.13 0.20 0.15 0.09 0.12 0.13 0.12
0.01 0.02 0.04 0.04 0.01 0.01 0.02 0.00 0.00 0.00 0.02 0.10 0.14 0.09 0.10 0.11 0.12 0.09 0.03 0.03 0.05 0.05 0.05 0.06 0.08 0.07 0.08 0.09 0.10 0.10 0.08 0.10 0.08 0.06 0.06 0.06 0.07 0.07 0.07 0.07 0.06 0.06 0.07 0.07 0.08 0.10 0.11 0.13 0.16 0.16 0.16 0.16 0.16 0.14

GFSWCAN_prec_precacc24_207.txt.gz
Total_Precipitation_Accumulation
0.01 0.01 0.01 0.02 0.04 0.07 0.13 0.23 0.40 0.47 0.46 0.43 0.36 0.30 0.27 0.23 0.15 0.10 0.15 0.23 0.38 0.46 0.50 0.23 0.16 0.10 0.09 0.06 0.16 0.27 0.15 0.18 0.18 0.19 0.20 0.22 0.16 0.11 0.10 0.05 0.05 0.10 0.20 0.24 0.25 0.30 0.19 0.06 0.03 0.07 0.05 0.02 0.02 0.02
0.01 0.00 0.00 0.01 0.00 0.00 0.00 0.02 0.09 0.19 0.36 0.44 0.43 0.38 0.32 0.23 0.15 0.08 0.12 0.18 0.30 0.35 0.40 0.18 0.12 0.08 0.06 0.04 0.09 0.19 0.12 0.10 0.15 0.19 0.25 0.28 0.26 0.22 0.12 0.10 0.05 0.16 0.18 0.25 0.34 0.34 0.16 0.10 0.06 0.02 0.03 0.04 0.03 0.02
0.00 0.00 0.00 0.00 0.01 0.00 0.00 0.00 0.01 0.04 0.07 0.13 0.25 0.34 0.34 0.33 0.20 0.11 0.18 0.12 0.30 0.27 0.30 0.23 0.20 0.10 0.08 0.10 0.12 0.26 0.19 0.12 0.08 0.17 0.29 0.16 0.11 0.08 0.09 0.09 0.09 0.05 0.03 0.10 0.11 0.03 0.03 0.03 0.05 0.02 0.01 0.03 0.03 0.01
0.00 0.00 0.00 0.00 0.00 0.01 0.00 0.00 0.00 0.00 0.01 0.03 0.06 0.13 0.21 0.27 0.19 0.13 0.20 0.07 0.11 0.10 0.21 0.25 0.13 0.10 0.07 0.04 0.02 0.01 0.02 0.06 0.16 0.24 0.31 0.22 0.11 0.07 0.05 0.03 0.02 0.02 0.02 0.02 0.01 0.01 0.01 0.01 0.03 0.03 0.01 0.01 0.02 0.02
0.00 0.00 0.00 0.01 0.01 0.00 0.00 0.00 0.00 0.00 0.00 0.00 0.00 0.01 0.05 0.10 0.14 0.16 0.19 0.15 0.10 0.11 0.17 0.11 0.04 0.01 0.00 0.00 0.00 0.01 0.02 0.04 0.10 0.18 0.14 0.07 0.06 0.07 0.03 0.02 0.00 0.00 0.01 0.03 0.02 0.01 0.02 0.00 0.00 0.00 0.00 0.00 0.00 0.00
0.00 0.00 0.00 0.00 0.00 0.00 0.00 0.00 0.00 0.00 0.00 0.00 0.00 0.00 0.02 0.06 0.03 0.02 0.02 0.03 0.02 0.03 0.06 0.04 0.04 0.00 0.00 0.00 0.00 0.00 0.01 0.02 0.06 0.06 0.03 0.02 0.01 0.10 0.08 0.01 0.00 0.00 0.00 0.00 0.00 0.00 0.00 0.00 0.00 0.00 0.00 0.00 0.00 0.00
0.00 0.00 0.00 0.00 0.00 0.00 0.00 0.00 0.00 0.00 0.00 0.00 0.01 0.02 0.04 0.02 0.09 0.03 0.05 0.05 0.00 0.01 0.06 0.02 0.01 0.00 0.00 0.00 0.00 0.00 0.00 0.01 0.02 0.04 0.01 0.00 0.00 0.07 0.06 0.01 0.00 0.00 0.00 0.00 0.00 0.01 0.00 0.00 0.00 0.00 0.00 0.00 0.00 0.00
0.00 0.00 0.00 0.00 0.00 0.00 0.00 0.00 0.00 0.00 0.00 0.00 0.00 0.00 0.00 0.00 0.02 0.05 0.01 0.00 0.01 0.04 0.05 0.03 0.03 0.02 0.01 0.02 0.05 0.03 0.07 0.09 0.07 0.02 0.01 0.01 0.02 0.08 0.09 0.00 0.00 0.00 0.00 0.00 0.00 0.00 0.01 0.00 0.00 0.00 0.00 0.00 0.00 0.00
0.00 0.00 0.00 0.00 0.00 0.00 0.00 0.00 0.00 0.00 0.00 0.00 0.00 0.00 0.01 0.01 0.05 0.04 0.00 0.01 0.05 0.07 0.08 0.05 0.02 0.08 0.04 0.05 0.12 0.10 0.13 0.13 0.07 0.06 0.02 0.09 0.07 0.11 0.02 0.00 0.00 0.00 0.00 0.00 0.00 0.00 0.00 0.00 0.00 0.00 0.00 0.00 0.01 0.00
0.00 0.00 0.00 0.00 0.00 0.00 0.00 0.00 0.00 0.00 0.00 0.00 0.01 0.03 0.03 0.01 0.01 0.02 0.04 0.08 0.11 0.10 0.07 0.03 0.01 0.02 0.02 0.04 0.07 0.11 0.13 0.06 0.07 0.03 0.04 0.11 0.05 0.04 0.07 0.07 0.04 0.04 0.02 0.03 0.11 0.07 0.05 0.03 0.01 0.00 0.00 0.00 0.02 0.02
0.00 0.00 0.00 0.00 0.00 0.00 0.00 0.00 0.00 0.00 0.00 0.04 0.08 0.10 0.05 0.01 0.03 0.07 0.12 0.07 0.08 0.06 0.03 0.01 0.01 0.02 0.03 0.03 0.06 0.08 0.10 0.08 0.10 0.07 0.08 0.09 0.03 0.04 0.11 0.14 0.14 0.15 0.07 0.05 0.05 0.02 0.02 0.02 0.01 0.01 0.00 0.00 0.01 0.02
0.00 0.00 0.00 0.00 0.01 0.00 0.00 0.00 0.00 0.01 0.10 0.06 0.06 0.03 0.03 0.05 0.09 0.08 0.05 0.03 0.05 0.04 0.05 0.05 0.12 0.10 0.08 0.04 0.07 0.08 0.09 0.06 0.05 0.12 0.14 0.04 0.11 0.23 0.12 0.14 0.12 0.05 0.02 0.00 0.00 0.00 0.00 0.00 0.00 0.01 0.01 0.01 0.01 0.01
0.00 0.01 0.02 0.02 0.01 0.00 0.00 0.00 0.00 0.00 0.00 0.03 0.02 0.02 0.04 0.06 0.06 0.04 0.13 0.16 0.14 0.08 0.08 0.09 0.44 0.33 0.12 0.08 0.11 0.08 0.07 0.04 0.07 0.13 0.07 0.08 0.15 0.13 0.07 0.02 0.00 0.00 0.00 0.00 0.00 0.00 0.00 0.01 0.01 0.01 0.02 0.00 0.01 0.01
0.00 0.01 0.04 0.05 0.02 0.02 0.00 0.00 0.00 0.00 0.02 0.05 0.03 0.02 0.02 0.03 0.01 0.02 0.14 0.13 0.11 0.11 0.18 0.28 0.40 0.32 0.20 0.18 0.06 0.08 0.05 0.07 0.08 0.05 0.09 0.23 0.29 0.25 0.09 0.01 0.00 0.00 0.00 0.00 0.00 0.00 0.01 0.02 0.01 0.01 0.01 0.02 0.04 0.02
0.00 0.00 0.00 0.02 0.03 0.04 0.03 0.03 0.03 0.03 0.07 0.05 0.04 0.02 0.00 0.00 0.02 0.04 0.04 0.04 0.03 0.09 0.20 0.33 0.28 0.20 0.27 0.20 0.06 0.05 0.08 0.06 0.04 0.14 0.41 0.32 0.31 0.28 0.13 0.03 0.00 0.00 0.00 0.01 0.01 0.01 0.01 0.02 0.02 0.02 0.02 0.02 0.04 0.03
0.00 0.00 0.00 0.01 0.03 0.07 0.06 0.07 0.14 0.22 0.20 0.05 0.02 0.01 0.01 0.01 0.04 0.04 0.03 0.05 0.07 0.11 0.11 0.21 0.25 0.16 0.15 0.06 0.11 0.04 0.03 0.04 0.15 0.42 0.40 0.15 0.06 0.01 0.00 0.00 0.00 0.00 0.00 0.00 0.01 0.01 0.02 0.02 0.04 0.04 0.03 0.02 0.02 0.03
0.00 0.00 0.01 0.02 0.06 0.09 0.12 0.22 0.30 0.29 0.17 0.05 0.01 0.00 0.00 0.01 0.01 0.02 0.06 0.08 0.11 0.09 0.15 0.25 0.36 0.25 0.20 0.25 0.16 0.27 0.43 0.39 0.31 0.26 0.10 0.01 0.00 0.00 0.00 0.00 0.00 0.00 0.00 0.00 0.01 0.01 0.02 0.02 0.03 0.06 0.04 0.03 0.03 0.05
0.01 0.01 0.02 0.07 0.14 0.33 0.31 0.33 0.41 0.29 0.12 0.01 0.00 0.00 0.01 0.02 0.03 0.04 0.06 0.10 0.07 0.12 0.20 0.27 0.21 0.18 0.16 0.11 0.15 0.36 0.47 0.27 0.12 0.05 0.01 0.00 0.00 0.00 0.00 0.00 0.00 0.00 0.01 0.01 0.01 0.01 0.01 0.02 0.03 0.04 0.06 0.07 0.08 0.07
0.06 0.04 0.05 0.13 0.23 0.44 0.54 0.36 0.20 0.22 0.02 0.00 0.00 0.00 0.01 0.02 0.02 0.04 0.05 0.04 0.05 0.18 0.34 0.16 0.13 0.09 0.12 0.21 0.29 0.19 0.10 0.04 0.02 0.00 0.01 0.02 0.00 0.00 0.00 0.00 0.00 0.01 0.00 0.01 0.01 0.01 0.01 0.05 0.04 0.03 0.04 0.05 0.08 0.10
0.11 0.13 0.13 0.24 0.82 1.20 0.81 0.47 0.16 0.06 0.02 0.02 0.01 0.01 0.05 0.03 0.04 0.03 0.02 0.01 0.04 0.22 0.26 0.13 0.04 0.07 0.09 0.08 0.06 0.03 0.02 0.02 0.01 0.01 0.01 0.01 0.01 0.00 0.00 0.01 0.01 0.01 0.02 0.00 0.01 0.01 0.02 0.03 0.02 0.03 0.04 0.06 0.08 0.10
0.05 0.06 0.13 0.42 0.80 0.80 0.61 0.39 0.31 0.06 0.02 0.02 0.01 0.06 0.04 0.01 0.02 0.04 0.04 0.03 0.12 0.14 0.08 0.07 0.11 0.11 0.06 0.04 0.02 0.01 0.02 0.01 0.01 0.02 0.02 0.02 0.01 0.00 0.01 0.03 0.02 0.02 0.03 0.01 0.01 0.02 0.03 0.04 0.05 0.05 0.07 0.09 0.10 0.11
0.09 0.20 0.35 0.50 0.83 0.86 0.72 0.11 0.08 0.12 0.10 0.04 0.03 0.06 0.04 0.03 0.03 0.04 0.05 0.09 0.10 0.06 0.03 0.02 0.03 0.03 0.02 0.01 0.02 0.03 0.03 0.01 0.00 0.00 0.00 0.01 0.02 0.03 0.05 0.07 0.03 0.03 0.04 0.01 0.01 0.02 0.03 0.03 0.05 0.07 0.10 0.11 0.09 0.08
0.07 0.17 0.28 0.37 0.54 0.47 0.27 0.08 0.19 0.10 0.14 0.11 0.05 0.07 0.06 0.03 0.02 0.02 0.05 0.06 0.08 0.04 0.02 0.01 0.01 0.01 0.01 0.03 0.05 0.04 0.02 0.01 0.01 0.01 0.01 0.03 0.04 0.04 0.07 0.06 0.03 0.05 0.08 0.06 0.03 0.01 0.02 0.03 0.06 0.10 0.12 0.13 0.11 0.10
0.18 0.22 0.27 0.31 0.30 0.19 0.14 0.22 0.23 0.19 0.20 0.15 0.17 0.09 0.05 0.09 0.06 0.13 0.18 0.21 0.13 0.04 0.03 0.04 0.04 0.09 0.12 0.11 0.10 0.07 0.04 0.02 0.02 0.03 0.04 0.06 0.07 0.08 0.05 0.04 0.05 0.07 0.11 0.10 0.07 0.04 0.02 0.02 0.04 0.06 0.08 0.10 0.10 0.09
0.67 0.53 0.33 0.23 0.26 0.33 0.24 0.15 0.13 0.25 0.37 0.39 0.47 0.42 0.47 0.37 0.45 0.44 0.50 0.43 0.25 0.19 0.18 0.18 0.20 0.17 0.12 0.13 0.13 0.10 0.07 0.06 0.06 0.06 0.08 0.09 0.07 0.07 0.07 0.08 0.07 0.10 0.08 0.08 0.08 0.06 0.04 0.04 0.03 0.03 0.02 0.03 0.04 0.05
0.23 0.27 0.40 0.35 0.38 0.41 0.45 0.40 0.42 0.34 0.28 0.26 0.34 0.28 0.18 0.27 0.42 0.70 0.65 0.52 0.32 0.30 0.31 0.31 0.30 0.22 0.22 0.23 0.18 0.14 0.11 0.08 0.07 0.07 0.11 0.06 0.08 0.13 0.14 0.12 0.11 0.15 0.05 0.05 0.06 0.05 0.04 0.05 0.04 0.03 0.05 0.03 0.02 0.03
0.28 0.14 0.15 0.08 0.05 0.11 0.15 0.23 0.25 0.23 0.28 0.33 0.32 0.25 0.31 0.39 0.40 0.37 0.29 0.25 0.27 0.30 0.29 0.31 0.30 0.30 0.29 0.26 0.23 0.20 0.16 0.13 0.12 0.09 0.08 0.07 0.08 0.11 0.16 0.16 0.13 0.10 0.04 0.03 0.04 0.05 0.06 0.07 0.08 0.05 0.04 0.05 0.05 0.07
0.21 0.09 0.03 0.02 0.01 0.02 0.05 0.07 0.11 0.11 0.13 0.08 0.08 0.15 0.22 0.25 0.29 0.26 0.25 0.25 0.22 0.18 0.15 0.14 0.14 0.14 0.14 0.15 0.16 0.16 0.16 0.16 0.15 0.15 0.11 0.07 0.08 0.13 0.12 0.07 0.04 0.02 0.02 0.02 0.03 0.04 0.05 0.06 0.07 0.09 0.07 0.06 0.04 0.03
0.05 0.03 0.00 0.00 0.01 0.02 0.10 0.13 0.15 0.07 0.03 0.02 0.05 0.13 0.15 0.12 0.17 0.16 0.14 0.11 0.08 0.06 0.06 0.05 0.04 0.02 0.02 0.02 0.04 0.08 0.13 0.13 0.13 0.12 0.09 0.09 0.14 0.16 0.05 0.02 0.02 0.02 0.03 0.04 0.02 0.02 0.02 0.02 0.03 0.04 0.05 0.07 0.05 0.04
0.00 0.00 0.01 0.01 0.01 0.08 0.14 0.04 0.03 0.01 0.00 0.00 0.01 0.04 0.05 0.08 0.11 0.08 0.04 0.03 0.02 0.03 0.03 0.03 0.03 0.02 0.02 0.02 0.03 0.03 0.09 0.11 0.07 0.07 0.08 0.06 0.09 0.06 0.04 0.03 0.04 0.05 0.06 0.07 0.08 0.06 0.02 0.02 0.02 0.02 0.03 0.05 0.07 0.08
0.01 0.02 0.03 0.04 0.05 0.10 0.03 0.01 0.00 0.00 0.00 0.00 0.01 0.04 0.08 0.10 0.10 0.04 0.01 0.01 0.01 0.02 0.01 0.01 0.02 0.03 0.03 0.04 0.07 0.07 0.07 0.06 0.02 0.02 0.03 0.04 0.05 0.07 0.07 0.06 0.06 0.05 0.05 0.04 0.04 0.08 0.10 0.07 0.08 0.11 0.09 0.08 0.12 0.12
0.02 0.03 0.04 0.02 0.01 0.01 0.02 0.01 0.00 0.00 0.00 0.01 0.08 0.14 0.17 0.16 0.14 0.10 0.03 0.01 0.01 0.01 0.02 0.03 0.04 0.03 0.04 0.06 0.07 0.09 0.09 0.07 0.05 0.03 0.04 0.05 0.06 0.06 0.06 0.05 0.05 0.04 0.04 0.04 0.05 0.07 0.09 0.12 0.19 0.14 0.08 0.11 0.12 0.12
0.01 0.02 0.04 0.04 0.01 0.01 0.02 0.00 0.00 0.00 0.02 0.10 0.14 0.08 0.09 0.10 0.10 0.08 0.03 0.02 0.03 0.03 0.03 0.04 0.05 0.04 0.05 0.06 0.07 0.07 0.06 0.08 0.07 0.05 0.05 0.05 0.05 0.06 0.06 0.06 0.06 0.06 0.07 0.07 0.08 0.10 0.11 0.13 0.15 0.15 0.16 0.16 0.16 0.14